<?xml version="1.0" encoding="UTF-8" standalone="no" ?>
<gpx xmlns="http://www.topografix.com/GPX/1/1" xmlns:xsi="http://www.w3.org/2001/XMLSchema-instance" xsi:schemaLocation="http://www.topografix.com/GPX/1/1 http://www.topografix.com/GPX/1/1/gpx.xsd" version="1.1" creator="VisuGPX - https://www.visugpx.com">
  <metadata>
    <name>SC3005G1_70km</name>
  </metadata>
  <trk>
    <name><![CDATA[Rue des Fiefs-Rue de Briffoeil-Rue de Mortagne]]></name>
    <trkseg>
      <trkpt lat="50.50366" lon="3.46457">
        <ele>22.252652</ele>
        <time>2021-05-26T18:53:43.827Z</time>
      </trkpt>
      <trkpt lat="50.50371" lon="3.46461">
        <ele>22.252652</ele>
        <time>2021-05-26T18:53:44.952Z</time>
      </trkpt>
      <trkpt lat="50.50523" lon="3.46572">
        <ele>23.108552</ele>
        <time>2021-05-26T18:54:15.471Z</time>
      </trkpt>
      <trkpt lat="50.50681" lon="3.46651">
        <ele>24.57384</ele>
        <time>2021-05-26T18:54:47.722Z</time>
      </trkpt>
      <trkpt lat="50.50708" lon="3.46672">
        <ele>24.778357</ele>
        <time>2021-05-26T18:54:53.056Z</time>
      </trkpt>
      <trkpt lat="50.50735" lon="3.46707">
        <ele>25.017818</ele>
        <time>2021-05-26T18:54:58.963Z</time>
      </trkpt>
      <trkpt lat="50.50778" lon="3.46766">
        <ele>25.301182</ele>
        <time>2021-05-26T18:55:08.015Z</time>
      </trkpt>
      <trkpt lat="50.50821" lon="3.46826">
        <ele>25.176528</ele>
        <time>2021-05-26T18:55:16.624Z</time>
      </trkpt>
      <trkpt lat="50.50831" lon="3.4684">
        <ele>25.148269</ele>
        <time>2021-05-26T18:55:18.426Z</time>
      </trkpt>
      <trkpt lat="50.50837" lon="3.46857">
        <ele>25.121053</ele>
        <time>2021-05-26T18:55:20.218Z</time>
      </trkpt>
      <trkpt lat="50.50838" lon="3.46879">
        <ele>25.091074</ele>
        <time>2021-05-26T18:55:22.088Z</time>
      </trkpt>
      <trkpt lat="50.50839" lon="3.46894">
        <ele>25.070788</ele>
        <time>2021-05-26T18:55:23.298Z</time>
      </trkpt>
      <trkpt lat="50.5084" lon="3.46941">
        <ele>25.006068</ele>
        <time>2021-05-26T18:55:27.264Z</time>
      </trkpt>
      <trkpt lat="50.5085" lon="3.46978">
        <ele>24.950478</ele>
        <time>2021-05-26T18:55:30.684Z</time>
      </trkpt>
      <trkpt lat="50.50871" lon="3.47017">
        <ele>24.807441</ele>
        <time>2021-05-26T18:55:35.005Z</time>
      </trkpt>
      <trkpt lat="50.50899" lon="3.47062">
        <ele>24.612999</ele>
        <time>2021-05-26T18:55:40.284Z</time>
      </trkpt>
      <trkpt lat="50.50936" lon="3.47116">
        <ele>24.36456</ele>
        <time>2021-05-26T18:55:46.942Z</time>
      </trkpt>
      <trkpt lat="50.50985" lon="3.47169">
        <ele>24.071711</ele>
        <time>2021-05-26T18:55:54.964Z</time>
      </trkpt>
      <trkpt lat="50.51052" lon="3.47236">
        <ele>23.734736</ele>
        <time>2021-05-26T18:56:05.593Z</time>
      </trkpt>
      <trkpt lat="50.51059" lon="3.47247">
        <ele>23.694704</ele>
        <time>2021-05-26T18:56:06.884Z</time>
      </trkpt>
      <trkpt lat="50.51066" lon="3.47262">
        <ele>23.643784</ele>
        <time>2021-05-26T18:56:08.508Z</time>
      </trkpt>
      <trkpt lat="50.51065" lon="3.47278">
        <ele>23.600032</ele>
        <time>2021-05-26T18:56:09.925Z</time>
      </trkpt>
      <trkpt lat="50.51006" lon="3.47445">
        <ele>23.017715</ele>
        <time>2021-05-26T18:56:26.250Z</time>
      </trkpt>
      <trkpt lat="50.51016" lon="3.47475">
        <ele>22.895191</ele>
        <time>2021-05-26T18:56:29.193Z</time>
      </trkpt>
      <trkpt lat="50.51082" lon="3.4755">
        <ele>22.437036</ele>
        <time>2021-05-26T18:56:39.681Z</time>
      </trkpt>
      <trkpt lat="50.51104" lon="3.47596">
        <ele>22.241691</ele>
        <time>2021-05-26T18:56:44.345Z</time>
      </trkpt>
      <trkpt lat="50.5111" lon="3.47622">
        <ele>22.164669</ele>
        <time>2021-05-26T18:56:46.556Z</time>
      </trkpt>
      <trkpt lat="50.51109" lon="3.47654">
        <ele>22.078072</ele>
        <time>2021-05-26T18:56:49.264Z</time>
      </trkpt>
      <trkpt lat="50.51104" lon="3.47687">
        <ele>21.985037</ele>
        <time>2021-05-26T18:56:52.000Z</time>
      </trkpt>
      <trkpt lat="50.5108" lon="3.47774">
        <ele>21.72349</ele>
        <time>2021-05-26T18:57:00.272Z</time>
      </trkpt>
      <trkpt lat="50.51082" lon="3.47786">
        <ele>21.690725</ele>
        <time>2021-05-26T18:57:01.187Z</time>
      </trkpt>
      <trkpt lat="50.5109" lon="3.47798">
        <ele>21.641792</ele>
        <time>2021-05-26T18:57:02.971Z</time>
      </trkpt>
      <trkpt lat="50.51109" lon="3.47824">
        <ele>21.534703</ele>
        <time>2021-05-26T18:57:06.355Z</time>
      </trkpt>
      <trkpt lat="50.51122" lon="3.47856">
        <ele>21.499182</ele>
        <time>2021-05-26T18:57:10.119Z</time>
      </trkpt>
      <trkpt lat="50.51125" lon="3.47964">
        <ele>21.486375</ele>
        <time>2021-05-26T18:57:20.222Z</time>
      </trkpt>
      <trkpt lat="50.51129" lon="3.48001">
        <ele>21.481923</ele>
        <time>2021-05-26T18:57:23.646Z</time>
      </trkpt>
      <trkpt lat="50.51132" lon="3.48019">
        <ele>21.479731</ele>
        <time>2021-05-26T18:57:25.660Z</time>
      </trkpt>
      <trkpt lat="50.51138" lon="3.48111">
        <ele>21.469106</ele>
        <time>2021-05-26T18:57:34.459Z</time>
      </trkpt>
      <trkpt lat="50.51143" lon="3.48169">
        <ele>21.488942</ele>
        <time>2021-05-26T18:57:39.932Z</time>
      </trkpt>
      <trkpt lat="50.51135" lon="3.48237">
        <ele>21.512363</ele>
        <time>2021-05-26T18:57:46.376Z</time>
      </trkpt>
      <trkpt lat="50.5113" lon="3.48251">
        <ele>21.517577</ele>
        <time>2021-05-26T18:57:47.842Z</time>
      </trkpt>
      <trkpt lat="50.5112" lon="3.48278">
        <ele>21.528373</ele>
        <time>2021-05-26T18:57:50.624Z</time>
      </trkpt>
      <trkpt lat="50.511" lon="3.48334">
        <ele>21.550244</ele>
        <time>2021-05-26T18:57:56.817Z</time>
      </trkpt>
      <trkpt lat="50.51092" lon="3.48355">
        <ele>21.558264</ele>
        <time>2021-05-26T18:57:59.257Z</time>
      </trkpt>
      <trkpt lat="50.51087" lon="3.48377">
        <ele>21.58474</ele>
        <time>2021-05-26T18:58:01.632Z</time>
      </trkpt>
      <trkpt lat="50.51082" lon="3.4846">
        <ele>21.94521</ele>
        <time>2021-05-26T18:58:10.647Z</time>
      </trkpt>
      <trkpt lat="50.5108" lon="3.48506">
        <ele>22.145403</ele>
        <time>2021-05-26T18:58:15.775Z</time>
      </trkpt>
      <trkpt lat="50.51082" lon="3.48534">
        <ele>22.266314</ele>
        <time>2021-05-26T18:58:18.938Z</time>
      </trkpt>
      <trkpt lat="50.51087" lon="3.48604">
        <ele>22.570922</ele>
        <time>2021-05-26T18:58:27.147Z</time>
      </trkpt>
      <trkpt lat="50.51084" lon="3.48625">
        <ele>22.664521</ele>
        <time>2021-05-26T18:58:29.872Z</time>
      </trkpt>
      <trkpt lat="50.51065" lon="3.48691">
        <ele>22.882707</ele>
        <time>2021-05-26T18:58:38.436Z</time>
      </trkpt>
      <trkpt lat="50.5108" lon="3.48708">
        <ele>22.944483</ele>
        <time>2021-05-26T18:58:41.664Z</time>
      </trkpt>
      <trkpt lat="50.51096" lon="3.4873">
        <ele>23.01945</ele>
        <time>2021-05-26T18:58:45.454Z</time>
      </trkpt>
      <trkpt lat="50.51113" lon="3.48814">
        <ele>23.211939</ele>
        <time>2021-05-26T18:58:54.894Z</time>
      </trkpt>
      <trkpt lat="50.51135" lon="3.4885">
        <ele>23.321099</ele>
        <time>2021-05-26T18:58:59.459Z</time>
      </trkpt>
      <trkpt lat="50.5114" lon="3.48867">
        <ele>23.363213</ele>
        <time>2021-05-26T18:59:01.342Z</time>
      </trkpt>
      <trkpt lat="50.51144" lon="3.48878">
        <ele>23.389403</ele>
        <time>2021-05-26T18:59:02.235Z</time>
      </trkpt>
      <trkpt lat="50.5114" lon="3.48908">
        <ele>23.306258</ele>
        <time>2021-05-26T18:59:05.166Z</time>
      </trkpt>
      <trkpt lat="50.51084" lon="3.49038">
        <ele>22.597394</ele>
        <time>2021-05-26T18:59:17.820Z</time>
      </trkpt>
      <trkpt lat="50.5104" lon="3.49284">
        <ele>21.654521</ele>
        <time>2021-05-26T18:59:38.002Z</time>
      </trkpt>
      <trkpt lat="50.51039" lon="3.49338">
        <ele>21.483003</ele>
        <time>2021-05-26T18:59:42.717Z</time>
      </trkpt>
      <trkpt lat="50.51048" lon="3.49357">
        <ele>21.408373</ele>
        <time>2021-05-26T18:59:44.845Z</time>
      </trkpt>
      <trkpt lat="50.51121" lon="3.49492">
        <ele>21.741305</ele>
        <time>2021-05-26T19:00:02.723Z</time>
      </trkpt>
      <trkpt lat="50.51187" lon="3.49526">
        <ele>22.17934</ele>
        <time>2021-05-26T19:00:15.779Z</time>
      </trkpt>
      <trkpt lat="50.51219" lon="3.4955">
        <ele>22.404957</ele>
        <time>2021-05-26T19:00:22.369Z</time>
      </trkpt>
      <trkpt lat="50.51269" lon="3.49574">
        <ele>22.813512</ele>
        <time>2021-05-26T19:00:32.137Z</time>
      </trkpt>
      <trkpt lat="50.51271" lon="3.4958">
        <ele>22.8499</ele>
        <time>2021-05-26T19:00:33.015Z</time>
      </trkpt>
      <trkpt lat="50.51281" lon="3.49649">
        <ele>23.201333</ele>
        <time>2021-05-26T19:00:41.110Z</time>
      </trkpt>
      <trkpt lat="50.51284" lon="3.49655">
        <ele>23.236244</ele>
        <time>2021-05-26T19:00:41.943Z</time>
      </trkpt>
      <trkpt lat="50.5129" lon="3.49667">
        <ele>23.317899</ele>
        <time>2021-05-26T19:00:43.831Z</time>
      </trkpt>
      <trkpt lat="50.51308" lon="3.49699">
        <ele>23.527165</ele>
        <time>2021-05-26T19:00:48.528Z</time>
      </trkpt>
      <trkpt lat="50.51322" lon="3.49739">
        <ele>23.751292</ele>
        <time>2021-05-26T19:00:53.606Z</time>
      </trkpt>
      <trkpt lat="50.51323" lon="3.49797">
        <ele>23.961916</ele>
        <time>2021-05-26T19:00:59.846Z</time>
      </trkpt>
      <trkpt lat="50.51322" lon="3.49943">
        <ele>24.474891</ele>
        <time>2021-05-26T19:01:15.381Z</time>
      </trkpt>
      <trkpt lat="50.51329" lon="3.49959">
        <ele>24.540366</ele>
        <time>2021-05-26T19:01:17.413Z</time>
      </trkpt>
      <trkpt lat="50.51349" lon="3.49997">
        <ele>24.717106</ele>
        <time>2021-05-26T19:01:22.841Z</time>
      </trkpt>
      <trkpt lat="50.51361" lon="3.50011">
        <ele>24.800416</ele>
        <time>2021-05-26T19:01:25.504Z</time>
      </trkpt>
      <trkpt lat="50.51365" lon="3.50016">
        <ele>24.831995</ele>
        <time>2021-05-26T19:01:26.468Z</time>
      </trkpt>
      <trkpt lat="50.51388" lon="3.50031">
        <ele>24.975391</ele>
        <time>2021-05-26T19:01:30.834Z</time>
      </trkpt>
      <trkpt lat="50.51403" lon="3.50027">
        <ele>25.064776</ele>
        <time>2021-05-26T19:01:34.401Z</time>
      </trkpt>
      <trkpt lat="50.51493" lon="3.50033">
        <ele>25.59294</ele>
        <time>2021-05-26T19:01:54.810Z</time>
      </trkpt>
      <trkpt lat="50.51534" lon="3.50031">
        <ele>25.830757</ele>
        <time>2021-05-26T19:02:03.962Z</time>
      </trkpt>
      <trkpt lat="50.51614" lon="3.4998">
        <ele>26.145235</ele>
        <time>2021-05-26T19:02:22.408Z</time>
      </trkpt>
      <trkpt lat="50.51651" lon="3.49965">
        <ele>26.282811</ele>
        <time>2021-05-26T19:02:30.728Z</time>
      </trkpt>
      <trkpt lat="50.51651" lon="3.49965">
        <ele>26.282811</ele>
        <time>2021-05-26T19:02:30.737Z</time>
      </trkpt>
      <trkpt lat="50.51668" lon="3.49964">
        <ele>26.347554</ele>
        <time>2021-05-26T19:02:34.550Z</time>
      </trkpt>
      <trkpt lat="50.51683" lon="3.49975">
        <ele>26.407579</ele>
        <time>2021-05-26T19:02:38.043Z</time>
      </trkpt>
      <trkpt lat="50.51701" lon="3.5002">
        <ele>26.559518</ele>
        <time>2021-05-26T19:02:45.248Z</time>
      </trkpt>
      <trkpt lat="50.51699" lon="3.50068">
        <ele>26.73143</ele>
        <time>2021-05-26T19:02:51.814Z</time>
      </trkpt>
      <trkpt lat="50.51699" lon="3.50081">
        <ele>26.775154</ele>
        <time>2021-05-26T19:02:53.670Z</time>
      </trkpt>
      <trkpt lat="50.51703" lon="3.50087">
        <ele>26.806252</ele>
        <time>2021-05-26T19:02:55.009Z</time>
      </trkpt>
      <trkpt lat="50.51737" lon="3.50105">
        <ele>27.009301</ele>
        <time>2021-05-26T19:03:03.113Z</time>
      </trkpt>
      <trkpt lat="50.51831" lon="3.50116">
        <ele>27.572344</ele>
        <time>2021-05-26T19:03:24.676Z</time>
      </trkpt>
      <trkpt lat="50.51919" lon="3.50084">
        <ele>28.442791</ele>
        <time>2021-05-26T19:03:46.138Z</time>
      </trkpt>
      <trkpt lat="50.51944" lon="3.50099">
        <ele>28.695019</ele>
        <time>2021-05-26T19:03:52.253Z</time>
      </trkpt>
      <trkpt lat="50.5195" lon="3.50108">
        <ele>28.777081</ele>
        <time>2021-05-26T19:03:54.437Z</time>
      </trkpt>
      <trkpt lat="50.51998" lon="3.50182">
        <ele>29.536901</ele>
        <time>2021-05-26T19:04:11.194Z</time>
      </trkpt>
      <trkpt lat="50.5208" lon="3.5027">
        <ele>31.029051</ele>
        <time>2021-05-26T19:04:37.429Z</time>
      </trkpt>
      <trkpt lat="50.5212" lon="3.50308">
        <ele>31.73909</ele>
        <time>2021-05-26T19:04:50.184Z</time>
      </trkpt>
      <trkpt lat="50.524" lon="3.49201">
        <ele>41.374903</ele>
        <time>2021-05-26T19:07:25.446Z</time>
      </trkpt>
      <trkpt lat="50.52437" lon="3.49238">
        <ele>40.840604</ele>
        <time>2021-05-26T19:07:30.397Z</time>
      </trkpt>
      <trkpt lat="50.52468" lon="3.49266">
        <ele>40.397581</ele>
        <time>2021-05-26T19:07:34.386Z</time>
      </trkpt>
      <trkpt lat="50.5252" lon="3.49298">
        <ele>39.696651</ele>
        <time>2021-05-26T19:07:40.507Z</time>
      </trkpt>
      <trkpt lat="50.52606" lon="3.49393">
        <ele>38.303492</ele>
        <time>2021-05-26T19:07:52.029Z</time>
      </trkpt>
      <trkpt lat="50.52627" lon="3.49401">
        <ele>38.010591</ele>
        <time>2021-05-26T19:07:54.656Z</time>
      </trkpt>
      <trkpt lat="50.52677" lon="3.49452">
        <ele>37.20733</ele>
        <time>2021-05-26T19:08:02.109Z</time>
      </trkpt>
      <trkpt lat="50.52712" lon="3.49529">
        <ele>37.045108</ele>
        <time>2021-05-26T19:08:10.251Z</time>
      </trkpt>
      <trkpt lat="50.52714" lon="3.49533">
        <ele>37.045408</ele>
        <time>2021-05-26T19:08:10.635Z</time>
      </trkpt>
      <trkpt lat="50.52721" lon="3.49559">
        <ele>37.047195</ele>
        <time>2021-05-26T19:08:13.381Z</time>
      </trkpt>
      <trkpt lat="50.5273" lon="3.49651">
        <ele>37.052889</ele>
        <time>2021-05-26T19:08:22.293Z</time>
      </trkpt>
      <trkpt lat="50.52741" lon="3.4971">
        <ele>37.056632</ele>
        <time>2021-05-26T19:08:28.539Z</time>
      </trkpt>
      <trkpt lat="50.52782" lon="3.49813">
        <ele>37.847073</ele>
        <time>2021-05-26T19:08:42.170Z</time>
      </trkpt>
      <trkpt lat="50.52816" lon="3.49901">
        <ele>38.651032</ele>
        <time>2021-05-26T19:08:54.786Z</time>
      </trkpt>
      <trkpt lat="50.52823" lon="3.49916">
        <ele>38.795727</ele>
        <time>2021-05-26T19:08:57.185Z</time>
      </trkpt>
      <trkpt lat="50.52862" lon="3.50053">
        <ele>40.641198</ele>
        <time>2021-05-26T19:09:19.985Z</time>
      </trkpt>
      <trkpt lat="50.52877" lon="3.50086">
        <ele>41.27051</ele>
        <time>2021-05-26T19:09:27.013Z</time>
      </trkpt>
      <trkpt lat="50.52899" lon="3.50114">
        <ele>41.948533</ele>
        <time>2021-05-26T19:09:34.529Z</time>
      </trkpt>
      <trkpt lat="50.52947" lon="3.5016">
        <ele>43.296521</ele>
        <time>2021-05-26T19:09:48.068Z</time>
      </trkpt>
      <trkpt lat="50.52955" lon="3.50169">
        <ele>43.532671</ele>
        <time>2021-05-26T19:09:50.700Z</time>
      </trkpt>
      <trkpt lat="50.52963" lon="3.50179">
        <ele>43.662346</ele>
        <time>2021-05-26T19:09:52.946Z</time>
      </trkpt>
      <trkpt lat="50.52993" lon="3.50234">
        <ele>44.126282</ele>
        <time>2021-05-26T19:10:03.156Z</time>
      </trkpt>
      <trkpt lat="50.53005" lon="3.50257">
        <ele>44.310147</ele>
        <time>2021-05-26T19:10:08.359Z</time>
      </trkpt>
      <trkpt lat="50.53009" lon="3.50267">
        <ele>44.388739</ele>
        <time>2021-05-26T19:10:10.428Z</time>
      </trkpt>
      <trkpt lat="50.53014" lon="3.50277">
        <ele>44.466816</ele>
        <time>2021-05-26T19:10:12.264Z</time>
      </trkpt>
      <trkpt lat="50.53063" lon="3.50413">
        <ele>45.296355</ele>
        <time>2021-05-26T19:10:34.257Z</time>
      </trkpt>
      <trkpt lat="50.53077" lon="3.50493">
        <ele>44.676445</ele>
        <time>2021-05-26T19:10:43.555Z</time>
      </trkpt>
      <trkpt lat="50.53061" lon="3.50585">
        <ele>43.970137</ele>
        <time>2021-05-26T19:10:53.829Z</time>
      </trkpt>
      <trkpt lat="50.53015" lon="3.50751">
        <ele>41.90377</ele>
        <time>2021-05-26T19:11:12.047Z</time>
      </trkpt>
      <trkpt lat="50.52998" lon="3.50805">
        <ele>40.977767</ele>
        <time>2021-05-26T19:11:17.765Z</time>
      </trkpt>
      <trkpt lat="50.52998" lon="3.50805">
        <ele>40.977767</ele>
        <time>2021-05-26T19:11:17.780Z</time>
      </trkpt>
      <trkpt lat="50.52998" lon="3.50805">
        <ele>40.977767</ele>
        <time>2021-05-26T19:11:17.924Z</time>
      </trkpt>
      <trkpt lat="50.53029" lon="3.50839">
        <ele>40.050456</ele>
        <time>2021-05-26T19:11:44.312Z</time>
      </trkpt>
      <trkpt lat="50.52991" lon="3.50936">
        <ele>38.457206</ele>
        <time>2021-05-26T19:11:55.106Z</time>
      </trkpt>
      <trkpt lat="50.52991" lon="3.50936">
        <ele>38.454358</ele>
        <time>2021-05-26T19:11:55.130Z</time>
      </trkpt>
      <trkpt lat="50.52946" lon="3.51037">
        <ele>37.081947</ele>
        <time>2021-05-26T19:12:07.361Z</time>
      </trkpt>
      <trkpt lat="50.52934" lon="3.5106">
        <ele>36.742122</ele>
        <time>2021-05-26T19:12:10.569Z</time>
      </trkpt>
      <trkpt lat="50.52856" lon="3.51209">
        <ele>35.63645</ele>
        <time>2021-05-26T19:12:32.532Z</time>
      </trkpt>
      <trkpt lat="50.5282" lon="3.51277">
        <ele>35.560855</ele>
        <time>2021-05-26T19:12:45.316Z</time>
      </trkpt>
      <trkpt lat="50.52814" lon="3.51288">
        <ele>35.548477</ele>
        <time>2021-05-26T19:12:47.292Z</time>
      </trkpt>
      <trkpt lat="50.52774" lon="3.51363">
        <ele>35.430939</ele>
        <time>2021-05-26T19:12:59.790Z</time>
      </trkpt>
      <trkpt lat="50.52729" lon="3.51449">
        <ele>35.152594</ele>
        <time>2021-05-26T19:13:13.537Z</time>
      </trkpt>
      <trkpt lat="50.5277" lon="3.51505">
        <ele>34.938681</ele>
        <time>2021-05-26T19:13:23.883Z</time>
      </trkpt>
      <trkpt lat="50.52783" lon="3.5152">
        <ele>34.877269</ele>
        <time>2021-05-26T19:13:26.764Z</time>
      </trkpt>
      <trkpt lat="50.52822" lon="3.51588">
        <ele>34.601539</ele>
        <time>2021-05-26T19:13:37.117Z</time>
      </trkpt>
      <trkpt lat="50.5284" lon="3.51629">
        <ele>34.436808</ele>
        <time>2021-05-26T19:13:42.432Z</time>
      </trkpt>
      <trkpt lat="50.52842" lon="3.51636">
        <ele>34.411574</ele>
        <time>2021-05-26T19:13:43.236Z</time>
      </trkpt>
      <trkpt lat="50.52867" lon="3.51709">
        <ele>34.132792</ele>
        <time>2021-05-26T19:13:52.757Z</time>
      </trkpt>
      <trkpt lat="50.52879" lon="3.51748">
        <ele>33.989775</ele>
        <time>2021-05-26T19:13:58.445Z</time>
      </trkpt>
      <trkpt lat="50.52908" lon="3.518">
        <ele>33.85689</ele>
        <time>2021-05-26T19:14:07.584Z</time>
      </trkpt>
      <trkpt lat="50.52924" lon="3.51854">
        <ele>33.94185</ele>
        <time>2021-05-26T19:14:15.655Z</time>
      </trkpt>
      <trkpt lat="50.52925" lon="3.51854">
        <ele>33.942817</ele>
        <time>2021-05-26T19:14:15.765Z</time>
      </trkpt>
      <trkpt lat="50.52951" lon="3.51909">
        <ele>34.040489</ele>
        <time>2021-05-26T19:14:25.269Z</time>
      </trkpt>
      <trkpt lat="50.52963" lon="3.51899">
        <ele>34.070633</ele>
        <time>2021-05-26T19:14:28.358Z</time>
      </trkpt>
      <trkpt lat="50.53017" lon="3.51852">
        <ele>34.210216</ele>
        <time>2021-05-26T19:14:41.370Z</time>
      </trkpt>
      <trkpt lat="50.5304" lon="3.51833">
        <ele>34.187163</ele>
        <time>2021-05-26T19:14:46.407Z</time>
      </trkpt>
      <trkpt lat="50.5305" lon="3.5183">
        <ele>34.158996</ele>
        <time>2021-05-26T19:14:48.653Z</time>
      </trkpt>
      <trkpt lat="50.53058" lon="3.51826">
        <ele>34.137027</ele>
        <time>2021-05-26T19:14:50.379Z</time>
      </trkpt>
      <trkpt lat="50.53075" lon="3.51882">
        <ele>34.033308</ele>
        <time>2021-05-26T19:14:58.341Z</time>
      </trkpt>
      <trkpt lat="50.53076" lon="3.51886">
        <ele>34.02663</ele>
        <time>2021-05-26T19:14:58.829Z</time>
      </trkpt>
      <trkpt lat="50.53083" lon="3.51907">
        <ele>33.986064</ele>
        <time>2021-05-26T19:15:01.875Z</time>
      </trkpt>
      <trkpt lat="50.53085" lon="3.51914">
        <ele>33.973575</ele>
        <time>2021-05-26T19:15:02.834Z</time>
      </trkpt>
      <trkpt lat="50.5309" lon="3.51932">
        <ele>33.940886</ele>
        <time>2021-05-26T19:15:05.179Z</time>
      </trkpt>
      <trkpt lat="50.5309" lon="3.51933">
        <ele>33.93832</ele>
        <time>2021-05-26T19:15:05.349Z</time>
      </trkpt>
      <trkpt lat="50.53098" lon="3.51957">
        <ele>33.893911</ele>
        <time>2021-05-26T19:15:08.547Z</time>
      </trkpt>
      <trkpt lat="50.53098" lon="3.5196">
        <ele>33.889908</ele>
        <time>2021-05-26T19:15:08.835Z</time>
      </trkpt>
      <trkpt lat="50.53109" lon="3.51998">
        <ele>33.819643</ele>
        <time>2021-05-26T19:15:13.643Z</time>
      </trkpt>
      <trkpt lat="50.53079" lon="3.52013">
        <ele>33.740128</ele>
        <time>2021-05-26T19:15:19.280Z</time>
      </trkpt>
      <trkpt lat="50.5306" lon="3.5203">
        <ele>33.691545</ele>
        <time>2021-05-26T19:15:23.437Z</time>
      </trkpt>
      <trkpt lat="50.53034" lon="3.52074">
        <ele>33.606279</ele>
        <time>2021-05-26T19:15:30.583Z</time>
      </trkpt>
      <trkpt lat="50.53028" lon="3.52082">
        <ele>33.588747</ele>
        <time>2021-05-26T19:15:31.968Z</time>
      </trkpt>
      <trkpt lat="50.53017" lon="3.52125">
        <ele>33.524437</ele>
        <time>2021-05-26T19:15:37.775Z</time>
      </trkpt>
      <trkpt lat="50.5301" lon="3.52137">
        <ele>33.501634</ele>
        <time>2021-05-26T19:15:39.664Z</time>
      </trkpt>
      <trkpt lat="50.53006" lon="3.5217">
        <ele>33.454725</ele>
        <time>2021-05-26T19:15:44.386Z</time>
      </trkpt>
      <trkpt lat="50.53002" lon="3.5219">
        <ele>33.425903</ele>
        <time>2021-05-26T19:15:46.967Z</time>
      </trkpt>
      <trkpt lat="50.53004" lon="3.52202">
        <ele>33.407777</ele>
        <time>2021-05-26T19:15:48.870Z</time>
      </trkpt>
      <trkpt lat="50.53017" lon="3.52251">
        <ele>33.374131</ele>
        <time>2021-05-26T19:15:55.802Z</time>
      </trkpt>
      <trkpt lat="50.53069" lon="3.52383">
        <ele>33.482559</ele>
        <time>2021-05-26T19:16:16.331Z</time>
      </trkpt>
      <trkpt lat="50.53075" lon="3.524">
        <ele>33.496268</ele>
        <time>2021-05-26T19:16:19.080Z</time>
      </trkpt>
      <trkpt lat="50.53087" lon="3.52472">
        <ele>33.548138</ele>
        <time>2021-05-26T19:16:28.978Z</time>
      </trkpt>
      <trkpt lat="50.53017" lon="3.52536">
        <ele>33.468647</ele>
        <time>2021-05-26T19:16:45.091Z</time>
      </trkpt>
      <trkpt lat="50.53011" lon="3.52541">
        <ele>33.460149</ele>
        <time>2021-05-26T19:16:46.382Z</time>
      </trkpt>
      <trkpt lat="50.52973" lon="3.52579">
        <ele>33.403798</ele>
        <time>2021-05-26T19:16:54.987Z</time>
      </trkpt>
      <trkpt lat="50.5297" lon="3.52582">
        <ele>33.399823</ele>
        <time>2021-05-26T19:16:55.598Z</time>
      </trkpt>
      <trkpt lat="50.53039" lon="3.52801">
        <ele>33.437646</ele>
        <time>2021-05-26T19:17:26.382Z</time>
      </trkpt>
      <trkpt lat="50.53055" lon="3.5285">
        <ele>33.472802</ele>
        <time>2021-05-26T19:17:33.886Z</time>
      </trkpt>
      <trkpt lat="50.53059" lon="3.5286">
        <ele>33.480479</ele>
        <time>2021-05-26T19:17:35.588Z</time>
      </trkpt>
      <trkpt lat="50.53069" lon="3.52893">
        <ele>33.504114</ele>
        <time>2021-05-26T19:17:40.672Z</time>
      </trkpt>
      <trkpt lat="50.53077" lon="3.52917">
        <ele>33.55329</ele>
        <time>2021-05-26T19:17:44.406Z</time>
      </trkpt>
      <trkpt lat="50.53094" lon="3.52967">
        <ele>33.789515</ele>
        <time>2021-05-26T19:17:52.588Z</time>
      </trkpt>
      <trkpt lat="50.53181" lon="3.53222">
        <ele>35.036198</ele>
        <time>2021-05-26T19:18:35.083Z</time>
      </trkpt>
      <trkpt lat="50.53338" lon="3.536">
        <ele>37.197672</ele>
        <time>2021-05-26T19:19:42.408Z</time>
      </trkpt>
      <trkpt lat="50.53363" lon="3.53717">
        <ele>37.589362</ele>
        <time>2021-05-26T19:19:59.832Z</time>
      </trkpt>
      <trkpt lat="50.5338" lon="3.53948">
        <ele>38.169586</ele>
        <time>2021-05-26T19:20:31.547Z</time>
      </trkpt>
      <trkpt lat="50.53424" lon="3.54177">
        <ele>38.92307</ele>
        <time>2021-05-26T19:21:05.427Z</time>
      </trkpt>
      <trkpt lat="50.53452" lon="3.54235">
        <ele>39.348262</ele>
        <time>2021-05-26T19:21:16.261Z</time>
      </trkpt>
      <trkpt lat="50.53466" lon="3.54251">
        <ele>39.519322</ele>
        <time>2021-05-26T19:21:20.310Z</time>
      </trkpt>
      <trkpt lat="50.53569" lon="3.54336">
        <ele>40.687696</ele>
        <time>2021-05-26T19:21:48.764Z</time>
      </trkpt>
      <trkpt lat="50.53683" lon="3.5442">
        <ele>42.484636</ele>
        <time>2021-05-26T19:22:20.876Z</time>
      </trkpt>
      <trkpt lat="50.53702" lon="3.54414">
        <ele>42.766768</ele>
        <time>2021-05-26T19:22:26.004Z</time>
      </trkpt>
      <trkpt lat="50.53806" lon="3.54383">
        <ele>44.466404</ele>
        <time>2021-05-26T19:22:55.293Z</time>
      </trkpt>
      <trkpt lat="50.53932" lon="3.54346">
        <ele>46.55556</ele>
        <time>2021-05-26T19:23:30.331Z</time>
      </trkpt>
      <trkpt lat="50.53958" lon="3.54335">
        <ele>46.732658</ele>
        <time>2021-05-26T19:23:37.063Z</time>
      </trkpt>
      <trkpt lat="50.53985" lon="3.54339">
        <ele>46.914111</ele>
        <time>2021-05-26T19:23:43.838Z</time>
      </trkpt>
      <trkpt lat="50.54011" lon="3.54358">
        <ele>47.103641</ele>
        <time>2021-05-26T19:23:50.642Z</time>
      </trkpt>
      <trkpt lat="50.54093" lon="3.54426">
        <ele>47.629041</ele>
        <time>2021-05-26T19:24:09.805Z</time>
      </trkpt>
      <trkpt lat="50.54113" lon="3.54448">
        <ele>47.472036</ele>
        <time>2021-05-26T19:24:14.468Z</time>
      </trkpt>
      <trkpt lat="50.54133" lon="3.54488">
        <ele>47.266423</ele>
        <time>2021-05-26T19:24:20.459Z</time>
      </trkpt>
      <trkpt lat="50.54138" lon="3.54508">
        <ele>47.180569</ele>
        <time>2021-05-26T19:24:22.857Z</time>
      </trkpt>
      <trkpt lat="50.54141" lon="3.5453">
        <ele>47.087108</ele>
        <time>2021-05-26T19:24:25.429Z</time>
      </trkpt>
      <trkpt lat="50.54148" lon="3.54582">
        <ele>46.872288</ele>
        <time>2021-05-26T19:24:31.419Z</time>
      </trkpt>
      <trkpt lat="50.54183" lon="3.54702">
        <ele>46.308935</ele>
        <time>2021-05-26T19:24:46.211Z</time>
      </trkpt>
      <trkpt lat="50.54189" lon="3.54724">
        <ele>46.19499</ele>
        <time>2021-05-26T19:24:48.796Z</time>
      </trkpt>
      <trkpt lat="50.5425" lon="3.54789">
        <ele>45.652172</ele>
        <time>2021-05-26T19:24:58.070Z</time>
      </trkpt>
      <trkpt lat="50.54293" lon="3.54836">
        <ele>45.262047</ele>
        <time>2021-05-26T19:25:05.110Z</time>
      </trkpt>
      <trkpt lat="50.54316" lon="3.54851">
        <ele>45.076665</ele>
        <time>2021-05-26T19:25:08.378Z</time>
      </trkpt>
      <trkpt lat="50.54348" lon="3.54866">
        <ele>44.839147</ele>
        <time>2021-05-26T19:25:12.784Z</time>
      </trkpt>
      <trkpt lat="50.54428" lon="3.54902">
        <ele>44.254704</ele>
        <time>2021-05-26T19:25:23.393Z</time>
      </trkpt>
      <trkpt lat="50.54492" lon="3.54932">
        <ele>43.680925</ele>
        <time>2021-05-26T19:25:31.864Z</time>
      </trkpt>
      <trkpt lat="50.54548" lon="3.54956">
        <ele>42.990397</ele>
        <time>2021-05-26T19:25:38.758Z</time>
      </trkpt>
      <trkpt lat="50.54611" lon="3.54994">
        <ele>42.188083</ele>
        <time>2021-05-26T19:25:46.492Z</time>
      </trkpt>
      <trkpt lat="50.54639" lon="3.55029">
        <ele>41.764561</ele>
        <time>2021-05-26T19:25:50.735Z</time>
      </trkpt>
      <trkpt lat="50.54665" lon="3.55052">
        <ele>41.648734</ele>
        <time>2021-05-26T19:25:54.327Z</time>
      </trkpt>
      <trkpt lat="50.54689" lon="3.55072">
        <ele>41.539867</ele>
        <time>2021-05-26T19:25:57.758Z</time>
      </trkpt>
      <trkpt lat="50.54693" lon="3.55074">
        <ele>41.524102</ele>
        <time>2021-05-26T19:25:58.287Z</time>
      </trkpt>
      <trkpt lat="50.54849" lon="3.5518">
        <ele>41.425543</ele>
        <time>2021-05-26T19:26:23.073Z</time>
      </trkpt>
      <trkpt lat="50.54865" lon="3.55191">
        <ele>41.54986</ele>
        <time>2021-05-26T19:26:26.340Z</time>
      </trkpt>
      <trkpt lat="50.55001" lon="3.55282">
        <ele>42.535045</ele>
        <time>2021-05-26T19:26:55.003Z</time>
      </trkpt>
      <trkpt lat="50.55094" lon="3.55255">
        <ele>43.075124</ele>
        <time>2021-05-26T19:27:11.072Z</time>
      </trkpt>
      <trkpt lat="50.55108" lon="3.55228">
        <ele>43.199294</ele>
        <time>2021-05-26T19:27:14.394Z</time>
      </trkpt>
      <trkpt lat="50.55145" lon="3.55144">
        <ele>43.190111</ele>
        <time>2021-05-26T19:27:24.679Z</time>
      </trkpt>
      <trkpt lat="50.55157" lon="3.55116">
        <ele>43.103801</ele>
        <time>2021-05-26T19:27:27.859Z</time>
      </trkpt>
      <trkpt lat="50.55191" lon="3.55031">
        <ele>42.846807</ele>
        <time>2021-05-26T19:27:35.920Z</time>
      </trkpt>
      <trkpt lat="50.55207" lon="3.54961">
        <ele>42.656227</ele>
        <time>2021-05-26T19:27:41.938Z</time>
      </trkpt>
      <trkpt lat="50.55364" lon="3.54813">
        <ele>41.812026</ele>
        <time>2021-05-26T19:28:15.767Z</time>
      </trkpt>
      <trkpt lat="50.554" lon="3.54809">
        <ele>41.84092</ele>
        <time>2021-05-26T19:28:22.814Z</time>
      </trkpt>
      <trkpt lat="50.55581" lon="3.54823">
        <ele>42.232091</ele>
        <time>2021-05-26T19:29:01.895Z</time>
      </trkpt>
      <trkpt lat="50.55629" lon="3.54826">
        <ele>42.42437</ele>
        <time>2021-05-26T19:29:12.430Z</time>
      </trkpt>
      <trkpt lat="50.55713" lon="3.54836">
        <ele>42.764381</ele>
        <time>2021-05-26T19:29:30.864Z</time>
      </trkpt>
      <trkpt lat="50.55828" lon="3.54903">
        <ele>43.286445</ele>
        <time>2021-05-26T19:29:57.572Z</time>
      </trkpt>
      <trkpt lat="50.55854" lon="3.54922">
        <ele>43.407335</ele>
        <time>2021-05-26T19:30:03.869Z</time>
      </trkpt>
      <trkpt lat="50.55835" lon="3.5502">
        <ele>43.779978</ele>
        <time>2021-05-26T19:30:14.967Z</time>
      </trkpt>
      <trkpt lat="50.55832" lon="3.55038">
        <ele>43.883161</ele>
        <time>2021-05-26T19:30:16.958Z</time>
      </trkpt>
      <trkpt lat="50.55849" lon="3.55047">
        <ele>44.039909</ele>
        <time>2021-05-26T19:30:20.250Z</time>
      </trkpt>
      <trkpt lat="50.55924" lon="3.55082">
        <ele>44.713808</ele>
        <time>2021-05-26T19:30:34.528Z</time>
      </trkpt>
      <trkpt lat="50.55942" lon="3.55091">
        <ele>44.877332</ele>
        <time>2021-05-26T19:30:38.128Z</time>
      </trkpt>
      <trkpt lat="50.56001" lon="3.55119">
        <ele>45.516584</ele>
        <time>2021-05-26T19:30:49.982Z</time>
      </trkpt>
      <trkpt lat="50.56022" lon="3.55129">
        <ele>45.794314</ele>
        <time>2021-05-26T19:30:54.324Z</time>
      </trkpt>
      <trkpt lat="50.56062" lon="3.55154">
        <ele>46.317841</ele>
        <time>2021-05-26T19:31:02.497Z</time>
      </trkpt>
      <trkpt lat="50.56071" lon="3.5516">
        <ele>46.428642</ele>
        <time>2021-05-26T19:31:04.626Z</time>
      </trkpt>
      <trkpt lat="50.56094" lon="3.55172">
        <ele>46.731696</ele>
        <time>2021-05-26T19:31:09.331Z</time>
      </trkpt>
      <trkpt lat="50.56116" lon="3.55181">
        <ele>47.013994</ele>
        <time>2021-05-26T19:31:14.236Z</time>
      </trkpt>
      <trkpt lat="50.56152" lon="3.55189">
        <ele>47.468174</ele>
        <time>2021-05-26T19:31:21.610Z</time>
      </trkpt>
      <trkpt lat="50.56166" lon="3.55201">
        <ele>47.684244</ele>
        <time>2021-05-26T19:31:24.719Z</time>
      </trkpt>
      <trkpt lat="50.56169" lon="3.55205">
        <ele>47.74171</ele>
        <time>2021-05-26T19:31:25.759Z</time>
      </trkpt>
      <trkpt lat="50.56182" lon="3.55226">
        <ele>47.993268</ele>
        <time>2021-05-26T19:31:29.388Z</time>
      </trkpt>
      <trkpt lat="50.56189" lon="3.55238">
        <ele>48.140548</ele>
        <time>2021-05-26T19:31:31.381Z</time>
      </trkpt>
      <trkpt lat="50.56196" lon="3.55248">
        <ele>48.261769</ele>
        <time>2021-05-26T19:31:33.525Z</time>
      </trkpt>
      <trkpt lat="50.56242" lon="3.55321">
        <ele>49.153149</ele>
        <time>2021-05-26T19:31:46.324Z</time>
      </trkpt>
      <trkpt lat="50.56313" lon="3.5538">
        <ele>50.209943</ele>
        <time>2021-05-26T19:32:03.170Z</time>
      </trkpt>
      <trkpt lat="50.56383" lon="3.5546">
        <ele>51.280242</ele>
        <time>2021-05-26T19:32:20.307Z</time>
      </trkpt>
      <trkpt lat="50.56412" lon="3.55503">
        <ele>51.77263</ele>
        <time>2021-05-26T19:32:27.935Z</time>
      </trkpt>
      <trkpt lat="50.5642" lon="3.55515">
        <ele>51.905348</ele>
        <time>2021-05-26T19:32:30.003Z</time>
      </trkpt>
      <trkpt lat="50.56456" lon="3.5558">
        <ele>52.561861</ele>
        <time>2021-05-26T19:32:40.632Z</time>
      </trkpt>
      <trkpt lat="50.56499" lon="3.55673">
        <ele>53.438167</ele>
        <time>2021-05-26T19:32:55.012Z</time>
      </trkpt>
      <trkpt lat="50.56514" lon="3.55707">
        <ele>53.749307</ele>
        <time>2021-05-26T19:33:00.056Z</time>
      </trkpt>
      <trkpt lat="50.56547" lon="3.55782">
        <ele>54.418181</ele>
        <time>2021-05-26T19:33:11.638Z</time>
      </trkpt>
      <trkpt lat="50.56564" lon="3.55809">
        <ele>54.685461</ele>
        <time>2021-05-26T19:33:16.477Z</time>
      </trkpt>
      <trkpt lat="50.56603" lon="3.55849">
        <ele>55.200966</ele>
        <time>2021-05-26T19:33:25.855Z</time>
      </trkpt>
      <trkpt lat="50.56653" lon="3.55885">
        <ele>55.815121</ele>
        <time>2021-05-26T19:33:36.516Z</time>
      </trkpt>
      <trkpt lat="50.56668" lon="3.55909">
        <ele>56.050551</ele>
        <time>2021-05-26T19:33:40.309Z</time>
      </trkpt>
      <trkpt lat="50.5672" lon="3.55948">
        <ele>56.570975</ele>
        <time>2021-05-26T19:33:50.212Z</time>
      </trkpt>
      <trkpt lat="50.56752" lon="3.5596">
        <ele>56.849759</ele>
        <time>2021-05-26T19:33:56.173Z</time>
      </trkpt>
      <trkpt lat="50.56801" lon="3.55992">
        <ele>57.306287</ele>
        <time>2021-05-26T19:34:05.929Z</time>
      </trkpt>
      <trkpt lat="50.56844" lon="3.56019">
        <ele>57.706901</ele>
        <time>2021-05-26T19:34:14.313Z</time>
      </trkpt>
      <trkpt lat="50.5687" lon="3.56039">
        <ele>58.167316</ele>
        <time>2021-05-26T19:34:20.031Z</time>
      </trkpt>
      <trkpt lat="50.5692" lon="3.56103">
        <ele>59.186244</ele>
        <time>2021-05-26T19:34:33.105Z</time>
      </trkpt>
      <trkpt lat="50.5703" lon="3.56333">
        <ele>62.572325</ele>
        <time>2021-05-26T19:35:15.091Z</time>
      </trkpt>
      <trkpt lat="50.57042" lon="3.56362">
        <ele>63.030872</ele>
        <time>2021-05-26T19:35:20.271Z</time>
      </trkpt>
      <trkpt lat="50.57052" lon="3.56466">
        <ele>64.403939</ele>
        <time>2021-05-26T19:35:36.222Z</time>
      </trkpt>
      <trkpt lat="50.57081" lon="3.56548">
        <ele>65.24708</ele>
        <time>2021-05-26T19:35:49.782Z</time>
      </trkpt>
      <trkpt lat="50.57116" lon="3.56609">
        <ele>65.982922</ele>
        <time>2021-05-26T19:36:00.776Z</time>
      </trkpt>
      <trkpt lat="50.57163" lon="3.5671">
        <ele>66.831446</ele>
        <time>2021-05-26T19:36:15.071Z</time>
      </trkpt>
      <trkpt lat="50.57171" lon="3.56728">
        <ele>66.792354</ele>
        <time>2021-05-26T19:36:17.341Z</time>
      </trkpt>
      <trkpt lat="50.57194" lon="3.56777">
        <ele>66.686045</ele>
        <time>2021-05-26T19:36:23.352Z</time>
      </trkpt>
      <trkpt lat="50.57274" lon="3.56941">
        <ele>66.161013</ele>
        <time>2021-05-26T19:36:40.115Z</time>
      </trkpt>
      <trkpt lat="50.57361" lon="3.57103">
        <ele>64.674368</ele>
        <time>2021-05-26T19:36:56.384Z</time>
      </trkpt>
      <trkpt lat="50.57365" lon="3.57123">
        <ele>64.530602</ele>
        <time>2021-05-26T19:36:57.952Z</time>
      </trkpt>
      <trkpt lat="50.57352" lon="3.57194">
        <ele>63.859349</ele>
        <time>2021-05-26T19:37:03.452Z</time>
      </trkpt>
      <trkpt lat="50.57353" lon="3.57203">
        <ele>63.764229</ele>
        <time>2021-05-26T19:37:04.146Z</time>
      </trkpt>
      <trkpt lat="50.57358" lon="3.57216">
        <ele>63.622356</ele>
        <time>2021-05-26T19:37:05.169Z</time>
      </trkpt>
      <trkpt lat="50.57397" lon="3.57303">
        <ele>62.563029</ele>
        <time>2021-05-26T19:37:13.029Z</time>
      </trkpt>
      <trkpt lat="50.57426" lon="3.57372">
        <ele>61.756292</ele>
        <time>2021-05-26T19:37:18.944Z</time>
      </trkpt>
      <trkpt lat="50.57491" lon="3.57526">
        <ele>59.886382</ele>
        <time>2021-05-26T19:37:32.217Z</time>
      </trkpt>
      <trkpt lat="50.57515" lon="3.57585">
        <ele>59.171432</ele>
        <time>2021-05-26T19:37:37.330Z</time>
      </trkpt>
      <trkpt lat="50.57556" lon="3.5766">
        <ele>58.295078</ele>
        <time>2021-05-26T19:37:44.548Z</time>
      </trkpt>
      <trkpt lat="50.57617" lon="3.57836">
        <ele>56.681351</ele>
        <time>2021-05-26T19:37:59.707Z</time>
      </trkpt>
      <trkpt lat="50.57662" lon="3.57976">
        <ele>55.811957</ele>
        <time>2021-05-26T19:38:11.965Z</time>
      </trkpt>
      <trkpt lat="50.57741" lon="3.58219">
        <ele>54.889165</ele>
        <time>2021-05-26T19:38:34.796Z</time>
      </trkpt>
      <trkpt lat="50.57734" lon="3.58307">
        <ele>54.774546</ele>
        <time>2021-05-26T19:38:43.007Z</time>
      </trkpt>
      <trkpt lat="50.57736" lon="3.58316">
        <ele>54.761955</ele>
        <time>2021-05-26T19:38:43.770Z</time>
      </trkpt>
      <trkpt lat="50.57739" lon="3.58326">
        <ele>54.747794</ele>
        <time>2021-05-26T19:38:45.123Z</time>
      </trkpt>
      <trkpt lat="50.57744" lon="3.58334">
        <ele>54.732733</ele>
        <time>2021-05-26T19:38:46.226Z</time>
      </trkpt>
      <trkpt lat="50.57878" lon="3.5838">
        <ele>54.932464</ele>
        <time>2021-05-26T19:39:07.743Z</time>
      </trkpt>
      <trkpt lat="50.5792" lon="3.5839">
        <ele>55.029378</ele>
        <time>2021-05-26T19:39:14.118Z</time>
      </trkpt>
      <trkpt lat="50.57971" lon="3.5839">
        <ele>55.205282</ele>
        <time>2021-05-26T19:39:22.569Z</time>
      </trkpt>
      <trkpt lat="50.58055" lon="3.58423">
        <ele>55.611569</ele>
        <time>2021-05-26T19:39:36.769Z</time>
      </trkpt>
      <trkpt lat="50.58071" lon="3.58437">
        <ele>55.695198</ele>
        <time>2021-05-26T19:39:39.385Z</time>
      </trkpt>
      <trkpt lat="50.58073" lon="3.58441">
        <ele>55.711185</ele>
        <time>2021-05-26T19:39:40.481Z</time>
      </trkpt>
      <trkpt lat="50.58092" lon="3.58471">
        <ele>55.837585</ele>
        <time>2021-05-26T19:39:44.901Z</time>
      </trkpt>
      <trkpt lat="50.58105" lon="3.58502">
        <ele>55.971056</ele>
        <time>2021-05-26T19:39:49.289Z</time>
      </trkpt>
      <trkpt lat="50.58119" lon="3.58565">
        <ele>56.464864</ele>
        <time>2021-05-26T19:39:56.776Z</time>
      </trkpt>
      <trkpt lat="50.58141" lon="3.58596">
        <ele>56.817294</ele>
        <time>2021-05-26T19:40:02.587Z</time>
      </trkpt>
      <trkpt lat="50.5817" lon="3.58615">
        <ele>57.174743</ele>
        <time>2021-05-26T19:40:08.932Z</time>
      </trkpt>
      <trkpt lat="50.58187" lon="3.58631">
        <ele>57.409792</ele>
        <time>2021-05-26T19:40:13.263Z</time>
      </trkpt>
      <trkpt lat="50.58217" lon="3.58611">
        <ele>57.790077</ele>
        <time>2021-05-26T19:40:19.780Z</time>
      </trkpt>
      <trkpt lat="50.58232" lon="3.58613">
        <ele>57.96474</ele>
        <time>2021-05-26T19:40:22.579Z</time>
      </trkpt>
      <trkpt lat="50.58237" lon="3.58647">
        <ele>58.215696</ele>
        <time>2021-05-26T19:40:27.292Z</time>
      </trkpt>
      <trkpt lat="50.58241" lon="3.58668">
        <ele>58.367809</ele>
        <time>2021-05-26T19:40:29.831Z</time>
      </trkpt>
      <trkpt lat="50.58247" lon="3.58685">
        <ele>58.511587</ele>
        <time>2021-05-26T19:40:32.474Z</time>
      </trkpt>
      <trkpt lat="50.58259" lon="3.587">
        <ele>58.675553</ele>
        <time>2021-05-26T19:40:35.638Z</time>
      </trkpt>
      <trkpt lat="50.58365" lon="3.58819">
        <ele>60.014582</ele>
        <time>2021-05-26T19:41:00.814Z</time>
      </trkpt>
      <trkpt lat="50.58429" lon="3.58914">
        <ele>59.782003</ele>
        <time>2021-05-26T19:41:14.747Z</time>
      </trkpt>
      <trkpt lat="50.58476" lon="3.58989">
        <ele>59.605668</ele>
        <time>2021-05-26T19:41:23.139Z</time>
      </trkpt>
      <trkpt lat="50.58502" lon="3.59031">
        <ele>59.160947</ele>
        <time>2021-05-26T19:41:27.364Z</time>
      </trkpt>
      <trkpt lat="50.58543" lon="3.59073">
        <ele>58.167884</ele>
        <time>2021-05-26T19:41:32.866Z</time>
      </trkpt>
      <trkpt lat="50.58582" lon="3.59107">
        <ele>57.275945</ele>
        <time>2021-05-26T19:41:37.649Z</time>
      </trkpt>
      <trkpt lat="50.58615" lon="3.59131">
        <ele>56.544455</ele>
        <time>2021-05-26T19:41:41.521Z</time>
      </trkpt>
      <trkpt lat="50.58701" lon="3.59184">
        <ele>54.932391</ele>
        <time>2021-05-26T19:41:51.396Z</time>
      </trkpt>
      <trkpt lat="50.58744" lon="3.59194">
        <ele>54.224033</ele>
        <time>2021-05-26T19:41:56.245Z</time>
      </trkpt>
      <trkpt lat="50.58787" lon="3.59214">
        <ele>53.497779</ele>
        <time>2021-05-26T19:42:01.522Z</time>
      </trkpt>
      <trkpt lat="50.59011" lon="3.59305">
        <ele>51.814349</ele>
        <time>2021-05-26T19:42:31.832Z</time>
      </trkpt>
      <trkpt lat="50.5908" lon="3.59342">
        <ele>51.388453</ele>
        <time>2021-05-26T19:42:41.753Z</time>
      </trkpt>
      <trkpt lat="50.59196" lon="3.59472">
        <ele>50.416435</ele>
        <time>2021-05-26T19:42:59.881Z</time>
      </trkpt>
      <trkpt lat="50.5923" lon="3.59502">
        <ele>50.095229</ele>
        <time>2021-05-26T19:43:04.685Z</time>
      </trkpt>
      <trkpt lat="50.59268" lon="3.59538">
        <ele>49.724516</ele>
        <time>2021-05-26T19:43:10.237Z</time>
      </trkpt>
      <trkpt lat="50.59357" lon="3.59619">
        <ele>48.951562</ele>
        <time>2021-05-26T19:43:23.102Z</time>
      </trkpt>
      <trkpt lat="50.59371" lon="3.59639">
        <ele>48.815129</ele>
        <time>2021-05-26T19:43:25.600Z</time>
      </trkpt>
      <trkpt lat="50.59418" lon="3.59748">
        <ele>48.229047</ele>
        <time>2021-05-26T19:43:36.370Z</time>
      </trkpt>
      <trkpt lat="50.59435" lon="3.59773">
        <ele>48.092477</ele>
        <time>2021-05-26T19:43:39.464Z</time>
      </trkpt>
      <trkpt lat="50.59487" lon="3.59828">
        <ele>47.837442</ele>
        <time>2021-05-26T19:43:47.628Z</time>
      </trkpt>
      <trkpt lat="50.5949" lon="3.59829">
        <ele>47.824792</ele>
        <time>2021-05-26T19:43:48.044Z</time>
      </trkpt>
      <trkpt lat="50.5951" lon="3.59832">
        <ele>47.742643</ele>
        <time>2021-05-26T19:43:50.648Z</time>
      </trkpt>
      <trkpt lat="50.59526" lon="3.59854">
        <ele>47.658676</ele>
        <time>2021-05-26T19:43:53.444Z</time>
      </trkpt>
      <trkpt lat="50.59572" lon="3.60016">
        <ele>47.491611</ele>
        <time>2021-05-26T19:44:09.461Z</time>
      </trkpt>
      <trkpt lat="50.59591" lon="3.60088">
        <ele>47.581163</ele>
        <time>2021-05-26T19:44:17.309Z</time>
      </trkpt>
      <trkpt lat="50.59593" lon="3.60135">
        <ele>47.634679</ele>
        <time>2021-05-26T19:44:22.120Z</time>
      </trkpt>
      <trkpt lat="50.59595" lon="3.60152">
        <ele>47.654124</ele>
        <time>2021-05-26T19:44:23.954Z</time>
      </trkpt>
      <trkpt lat="50.59598" lon="3.60171">
        <ele>47.677256</ele>
        <time>2021-05-26T19:44:26.134Z</time>
      </trkpt>
      <trkpt lat="50.59609" lon="3.60204">
        <ele>47.719724</ele>
        <time>2021-05-26T19:44:30.049Z</time>
      </trkpt>
      <trkpt lat="50.5961" lon="3.60213">
        <ele>47.734057</ele>
        <time>2021-05-26T19:44:31.113Z</time>
      </trkpt>
      <trkpt lat="50.59656" lon="3.60376">
        <ele>48.130284</ele>
        <time>2021-05-26T19:44:50.319Z</time>
      </trkpt>
      <trkpt lat="50.5974" lon="3.61019">
        <ele>48.673547</ele>
        <time>2021-05-26T19:45:53.798Z</time>
      </trkpt>
      <trkpt lat="50.59748" lon="3.61083">
        <ele>48.537731</ele>
        <time>2021-05-26T19:46:00.030Z</time>
      </trkpt>
      <trkpt lat="50.59755" lon="3.61149">
        <ele>48.359434</ele>
        <time>2021-05-26T19:46:06.193Z</time>
      </trkpt>
      <trkpt lat="50.59768" lon="3.61248">
        <ele>48.090663</ele>
        <time>2021-05-26T19:46:14.806Z</time>
      </trkpt>
      <trkpt lat="50.59773" lon="3.6129">
        <ele>47.977466</ele>
        <time>2021-05-26T19:46:18.178Z</time>
      </trkpt>
      <trkpt lat="50.59775" lon="3.61305">
        <ele>47.937774</ele>
        <time>2021-05-26T19:46:19.336Z</time>
      </trkpt>
      <trkpt lat="50.59839" lon="3.61289">
        <ele>47.371653</ele>
        <time>2021-05-26T19:46:30.429Z</time>
      </trkpt>
      <trkpt lat="50.5985" lon="3.61299">
        <ele>47.256753</ele>
        <time>2021-05-26T19:46:32.638Z</time>
      </trkpt>
      <trkpt lat="50.59859" lon="3.61315">
        <ele>47.139548</ele>
        <time>2021-05-26T19:46:34.957Z</time>
      </trkpt>
      <trkpt lat="50.59878" lon="3.61366">
        <ele>46.80743</ele>
        <time>2021-05-26T19:46:41.473Z</time>
      </trkpt>
      <trkpt lat="50.59884" lon="3.61371">
        <ele>46.747512</ele>
        <time>2021-05-26T19:46:42.647Z</time>
      </trkpt>
      <trkpt lat="50.5992" lon="3.61399">
        <ele>46.391009</ele>
        <time>2021-05-26T19:46:49.858Z</time>
      </trkpt>
      <trkpt lat="50.59926" lon="3.61411">
        <ele>46.337343</ele>
        <time>2021-05-26T19:46:51.645Z</time>
      </trkpt>
      <trkpt lat="50.59935" lon="3.61442">
        <ele>46.354194</ele>
        <time>2021-05-26T19:46:55.674Z</time>
      </trkpt>
      <trkpt lat="50.59945" lon="3.61476">
        <ele>46.372607</ele>
        <time>2021-05-26T19:47:00.264Z</time>
      </trkpt>
      <trkpt lat="50.59962" lon="3.61535">
        <ele>46.404669</ele>
        <time>2021-05-26T19:47:08.789Z</time>
      </trkpt>
      <trkpt lat="50.59964" lon="3.61543">
        <ele>46.408753</ele>
        <time>2021-05-26T19:47:09.879Z</time>
      </trkpt>
      <trkpt lat="50.59979" lon="3.61604">
        <ele>46.441313</ele>
        <time>2021-05-26T19:47:18.948Z</time>
      </trkpt>
      <trkpt lat="50.60002" lon="3.6166">
        <ele>46.474408</ele>
        <time>2021-05-26T19:47:28.529Z</time>
      </trkpt>
      <trkpt lat="50.60011" lon="3.6168">
        <ele>46.534989</ele>
        <time>2021-05-26T19:47:32.061Z</time>
      </trkpt>
      <trkpt lat="50.6001" lon="3.61681">
        <ele>46.5394</ele>
        <time>2021-05-26T19:47:32.288Z</time>
      </trkpt>
      <trkpt lat="50.6001" lon="3.61686">
        <ele>46.55144</ele>
        <time>2021-05-26T19:47:32.769Z</time>
      </trkpt>
      <trkpt lat="50.60011" lon="3.6169">
        <ele>46.562746</ele>
        <time>2021-05-26T19:47:33.253Z</time>
      </trkpt>
      <trkpt lat="50.60013" lon="3.61694">
        <ele>46.574678</ele>
        <time>2021-05-26T19:47:33.718Z</time>
      </trkpt>
      <trkpt lat="50.60014" lon="3.61695">
        <ele>46.581829</ele>
        <time>2021-05-26T19:47:34.004Z</time>
      </trkpt>
      <trkpt lat="50.60016" lon="3.61696">
        <ele>46.589376</ele>
        <time>2021-05-26T19:47:34.257Z</time>
      </trkpt>
      <trkpt lat="50.6002" lon="3.61694">
        <ele>46.606702</ele>
        <time>2021-05-26T19:47:34.901Z</time>
      </trkpt>
      <trkpt lat="50.60021" lon="3.61693">
        <ele>46.611858</ele>
        <time>2021-05-26T19:47:35.059Z</time>
      </trkpt>
      <trkpt lat="50.60027" lon="3.61709">
        <ele>46.661142</ele>
        <time>2021-05-26T19:47:37.154Z</time>
      </trkpt>
      <trkpt lat="50.6003" lon="3.61722">
        <ele>46.695692</ele>
        <time>2021-05-26T19:47:38.672Z</time>
      </trkpt>
      <trkpt lat="50.60038" lon="3.6175">
        <ele>46.775978</ele>
        <time>2021-05-26T19:47:41.752Z</time>
      </trkpt>
      <trkpt lat="50.60056" lon="3.61772">
        <ele>46.868617</ele>
        <time>2021-05-26T19:47:45.722Z</time>
      </trkpt>
      <trkpt lat="50.60058" lon="3.61781">
        <ele>46.895393</ele>
        <time>2021-05-26T19:47:46.771Z</time>
      </trkpt>
      <trkpt lat="50.60076" lon="3.61839">
        <ele>47.062601</ele>
        <time>2021-05-26T19:47:53.392Z</time>
      </trkpt>
      <trkpt lat="50.60089" lon="3.61887">
        <ele>47.199671</ele>
        <time>2021-05-26T19:47:59.139Z</time>
      </trkpt>
      <trkpt lat="50.60103" lon="3.61928">
        <ele>47.239285</ele>
        <time>2021-05-26T19:48:03.706Z</time>
      </trkpt>
      <trkpt lat="50.60122" lon="3.61962">
        <ele>47.269735</ele>
        <time>2021-05-26T19:48:07.700Z</time>
      </trkpt>
      <trkpt lat="50.60127" lon="3.61975">
        <ele>47.280114</ele>
        <time>2021-05-26T19:48:09.279Z</time>
      </trkpt>
      <trkpt lat="50.60142" lon="3.6206">
        <ele>47.338674</ele>
        <time>2021-05-26T19:48:16.812Z</time>
      </trkpt>
      <trkpt lat="50.60146" lon="3.62082">
        <ele>47.353554</ele>
        <time>2021-05-26T19:48:19.234Z</time>
      </trkpt>
      <trkpt lat="50.60142" lon="3.62083">
        <ele>47.357789</ele>
        <time>2021-05-26T19:48:19.979Z</time>
      </trkpt>
      <trkpt lat="50.60138" lon="3.62098">
        <ele>47.368679</ele>
        <time>2021-05-26T19:48:21.461Z</time>
      </trkpt>
      <trkpt lat="50.60139" lon="3.62102">
        <ele>47.371412</ele>
        <time>2021-05-26T19:48:21.894Z</time>
      </trkpt>
      <trkpt lat="50.60141" lon="3.62106">
        <ele>47.374522</ele>
        <time>2021-05-26T19:48:22.248Z</time>
      </trkpt>
      <trkpt lat="50.60151" lon="3.62107">
        <ele>47.385018</ele>
        <time>2021-05-26T19:48:23.810Z</time>
      </trkpt>
      <trkpt lat="50.60155" lon="3.62094">
        <ele>47.394887</ele>
        <time>2021-05-26T19:48:25.705Z</time>
      </trkpt>
      <trkpt lat="50.60154" lon="3.62089">
        <ele>47.398084</ele>
        <time>2021-05-26T19:48:26.118Z</time>
      </trkpt>
      <trkpt lat="50.60161" lon="3.62087">
        <ele>47.476911</ele>
        <time>2021-05-26T19:48:27.223Z</time>
      </trkpt>
      <trkpt lat="50.60192" lon="3.62077">
        <ele>47.981718</ele>
        <time>2021-05-26T19:48:32.839Z</time>
      </trkpt>
      <trkpt lat="50.6021" lon="3.6207">
        <ele>48.278861</ele>
        <time>2021-05-26T19:48:36.045Z</time>
      </trkpt>
      <trkpt lat="50.60264" lon="3.62049">
        <ele>49.148583</ele>
        <time>2021-05-26T19:48:47.678Z</time>
      </trkpt>
      <trkpt lat="50.60317" lon="3.62011">
        <ele>50.0875</ele>
        <time>2021-05-26T19:49:00.657Z</time>
      </trkpt>
      <trkpt lat="50.60334" lon="3.61995">
        <ele>50.552124</ele>
        <time>2021-05-26T19:49:06.196Z</time>
      </trkpt>
      <trkpt lat="50.60339" lon="3.6199">
        <ele>50.752745</ele>
        <time>2021-05-26T19:49:07.551Z</time>
      </trkpt>
      <trkpt lat="50.60365" lon="3.61963">
        <ele>51.810477</ele>
        <time>2021-05-26T19:49:17.042Z</time>
      </trkpt>
      <trkpt lat="50.60393" lon="3.61925">
        <ele>53.057988</ele>
        <time>2021-05-26T19:49:27.730Z</time>
      </trkpt>
      <trkpt lat="50.60433" lon="3.61863">
        <ele>54.96311</ele>
        <time>2021-05-26T19:49:44.426Z</time>
      </trkpt>
      <trkpt lat="50.60444" lon="3.61848">
        <ele>55.453686</ele>
        <time>2021-05-26T19:49:48.901Z</time>
      </trkpt>
      <trkpt lat="50.60451" lon="3.61839">
        <ele>55.745092</ele>
        <time>2021-05-26T19:49:51.363Z</time>
      </trkpt>
      <trkpt lat="50.60451" lon="3.61839">
        <ele>55.757129</ele>
        <time>2021-05-26T19:49:51.477Z</time>
      </trkpt>
      <trkpt lat="50.6046" lon="3.6183">
        <ele>56.10392</ele>
        <time>2021-05-26T19:49:54.497Z</time>
      </trkpt>
      <trkpt lat="50.60463" lon="3.61827">
        <ele>56.242972</ele>
        <time>2021-05-26T19:49:55.595Z</time>
      </trkpt>
      <trkpt lat="50.60469" lon="3.61824">
        <ele>56.435602</ele>
        <time>2021-05-26T19:49:57.258Z</time>
      </trkpt>
      <trkpt lat="50.60479" lon="3.6182">
        <ele>56.715733</ele>
        <time>2021-05-26T19:50:00.105Z</time>
      </trkpt>
      <trkpt lat="50.60483" lon="3.61819">
        <ele>56.831294</ele>
        <time>2021-05-26T19:50:01.313Z</time>
      </trkpt>
      <trkpt lat="50.6049" lon="3.61825">
        <ele>57.065071</ele>
        <time>2021-05-26T19:50:03.661Z</time>
      </trkpt>
      <trkpt lat="50.60504" lon="3.61825">
        <ele>57.436119</ele>
        <time>2021-05-26T19:50:07.105Z</time>
      </trkpt>
      <trkpt lat="50.60511" lon="3.61821">
        <ele>57.663988</ele>
        <time>2021-05-26T19:50:09.348Z</time>
      </trkpt>
      <trkpt lat="50.60521" lon="3.61782">
        <ele>58.412507</ele>
        <time>2021-05-26T19:50:16.912Z</time>
      </trkpt>
      <trkpt lat="50.60525" lon="3.61783">
        <ele>58.52302</ele>
        <time>2021-05-26T19:50:18.120Z</time>
      </trkpt>
      <trkpt lat="50.60536" lon="3.61784">
        <ele>58.833247</ele>
        <time>2021-05-26T19:50:22.019Z</time>
      </trkpt>
      <trkpt lat="50.60578" lon="3.61766">
        <ele>60.051334</ele>
        <time>2021-05-26T19:50:35.952Z</time>
      </trkpt>
      <trkpt lat="50.60596" lon="3.61753">
        <ele>60.591545</ele>
        <time>2021-05-26T19:50:41.425Z</time>
      </trkpt>
      <trkpt lat="50.60598" lon="3.61751">
        <ele>60.675532</ele>
        <time>2021-05-26T19:50:42.403Z</time>
      </trkpt>
      <trkpt lat="50.60663" lon="3.61676">
        <ele>61.773165</ele>
        <time>2021-05-26T19:51:04.048Z</time>
      </trkpt>
      <trkpt lat="50.60661" lon="3.61647">
        <ele>61.90727</ele>
        <time>2021-05-26T19:51:08.331Z</time>
      </trkpt>
      <trkpt lat="50.60697" lon="3.61637">
        <ele>62.173586</ele>
        <time>2021-05-26T19:51:14.607Z</time>
      </trkpt>
      <trkpt lat="50.60708" lon="3.61635">
        <ele>62.25025</ele>
        <time>2021-05-26T19:51:16.381Z</time>
      </trkpt>
      <trkpt lat="50.60823" lon="3.61606">
        <ele>62.497645</ele>
        <time>2021-05-26T19:51:32.815Z</time>
      </trkpt>
      <trkpt lat="50.61044" lon="3.61551">
        <ele>62.412738</ele>
        <time>2021-05-26T19:52:03.002Z</time>
      </trkpt>
      <trkpt lat="50.61266" lon="3.61498">
        <ele>64.702082</ele>
        <time>2021-05-26T19:52:47.297Z</time>
      </trkpt>
      <trkpt lat="50.61268" lon="3.61523">
        <ele>64.927829</ele>
        <time>2021-05-26T19:52:52.163Z</time>
      </trkpt>
      <trkpt lat="50.61263" lon="3.61607">
        <ele>65.652047</ele>
        <time>2021-05-26T19:53:06.949Z</time>
      </trkpt>
      <trkpt lat="50.61254" lon="3.61647">
        <ele>66.012594</ele>
        <time>2021-05-26T19:53:14.628Z</time>
      </trkpt>
      <trkpt lat="50.61251" lon="3.61687">
        <ele>66.353653</ele>
        <time>2021-05-26T19:53:21.856Z</time>
      </trkpt>
      <trkpt lat="50.61254" lon="3.61938">
        <ele>67.398752</ele>
        <time>2021-05-26T19:53:59.097Z</time>
      </trkpt>
      <trkpt lat="50.61274" lon="3.62105">
        <ele>67.135951</ele>
        <time>2021-05-26T19:54:18.237Z</time>
      </trkpt>
      <trkpt lat="50.6129" lon="3.62113">
        <ele>67.038227</ele>
        <time>2021-05-26T19:54:21.233Z</time>
      </trkpt>
      <trkpt lat="50.614" lon="3.62125">
        <ele>66.304023</ele>
        <time>2021-05-26T19:54:40.403Z</time>
      </trkpt>
      <trkpt lat="50.61852" lon="3.62173">
        <ele>64.95588</ele>
        <time>2021-05-26T19:56:08.880Z</time>
      </trkpt>
      <trkpt lat="50.6215" lon="3.62205">
        <ele>62.123794</ele>
        <time>2021-05-26T19:57:01.827Z</time>
      </trkpt>
      <trkpt lat="50.62405" lon="3.62232">
        <ele>56.797331</ele>
        <time>2021-05-26T19:57:40.916Z</time>
      </trkpt>
      <trkpt lat="50.62418" lon="3.62297">
        <ele>56.004085</ele>
        <time>2021-05-26T19:57:45.714Z</time>
      </trkpt>
      <trkpt lat="50.62431" lon="3.62391">
        <ele>54.882827</ele>
        <time>2021-05-26T19:57:52.706Z</time>
      </trkpt>
      <trkpt lat="50.62438" lon="3.62536">
        <ele>53.745176</ele>
        <time>2021-05-26T19:58:03.832Z</time>
      </trkpt>
      <trkpt lat="50.62436" lon="3.62596">
        <ele>53.35237</ele>
        <time>2021-05-26T19:58:08.562Z</time>
      </trkpt>
      <trkpt lat="50.62475" lon="3.62816">
        <ele>52.095651</ele>
        <time>2021-05-26T19:58:26.486Z</time>
      </trkpt>
      <trkpt lat="50.62512" lon="3.62969">
        <ele>51.371381</ele>
        <time>2021-05-26T19:58:40.046Z</time>
      </trkpt>
      <trkpt lat="50.62516" lon="3.6301">
        <ele>51.353721</ele>
        <time>2021-05-26T19:58:43.585Z</time>
      </trkpt>
      <trkpt lat="50.62528" lon="3.63131">
        <ele>51.413092</ele>
        <time>2021-05-26T19:58:58.822Z</time>
      </trkpt>
      <trkpt lat="50.62554" lon="3.63124">
        <ele>51.432919</ele>
        <time>2021-05-26T19:59:02.636Z</time>
      </trkpt>
      <trkpt lat="50.62575" lon="3.63118">
        <ele>51.449465</ele>
        <time>2021-05-26T19:59:06.113Z</time>
      </trkpt>
      <trkpt lat="50.62699" lon="3.63081">
        <ele>52.688524</ele>
        <time>2021-05-26T19:59:29.443Z</time>
      </trkpt>
      <trkpt lat="50.62796" lon="3.63052">
        <ele>54.022121</ele>
        <time>2021-05-26T19:59:51.072Z</time>
      </trkpt>
      <trkpt lat="50.6292" lon="3.63015">
        <ele>56.083296</ele>
        <time>2021-05-26T20:00:19.505Z</time>
      </trkpt>
      <trkpt lat="50.62966" lon="3.63002">
        <ele>56.792814</ele>
        <time>2021-05-26T20:00:29.076Z</time>
      </trkpt>
      <trkpt lat="50.63371" lon="3.62881">
        <ele>59.04638</ele>
        <time>2021-05-26T20:01:35.805Z</time>
      </trkpt>
      <trkpt lat="50.63501" lon="3.62839">
        <ele>60.754381</ele>
        <time>2021-05-26T20:02:04.117Z</time>
      </trkpt>
      <trkpt lat="50.63524" lon="3.62836">
        <ele>61.205095</ele>
        <time>2021-05-26T20:02:09.472Z</time>
      </trkpt>
      <trkpt lat="50.63539" lon="3.62839">
        <ele>61.50318</ele>
        <time>2021-05-26T20:02:12.963Z</time>
      </trkpt>
      <trkpt lat="50.63551" lon="3.62845">
        <ele>61.766355</ele>
        <time>2021-05-26T20:02:16.433Z</time>
      </trkpt>
      <trkpt lat="50.63861" lon="3.6315">
        <ele>67.582594</ele>
        <time>2021-05-26T20:03:38.917Z</time>
      </trkpt>
      <trkpt lat="50.63891" lon="3.63164">
        <ele>67.586971</ele>
        <time>2021-05-26T20:03:43.659Z</time>
      </trkpt>
      <trkpt lat="50.63896" lon="3.63164">
        <ele>67.587646</ele>
        <time>2021-05-26T20:03:44.904Z</time>
      </trkpt>
      <trkpt lat="50.63901" lon="3.63162">
        <ele>67.588372</ele>
        <time>2021-05-26T20:03:45.826Z</time>
      </trkpt>
      <trkpt lat="50.63904" lon="3.63159">
        <ele>67.588919</ele>
        <time>2021-05-26T20:03:46.326Z</time>
      </trkpt>
      <trkpt lat="50.63908" lon="3.63156">
        <ele>67.589541</ele>
        <time>2021-05-26T20:03:47.143Z</time>
      </trkpt>
      <trkpt lat="50.63962" lon="3.63076">
        <ele>67.167672</ele>
        <time>2021-05-26T20:03:55.682Z</time>
      </trkpt>
      <trkpt lat="50.64036" lon="3.62971">
        <ele>63.12119</ele>
        <time>2021-05-26T20:04:05.247Z</time>
      </trkpt>
      <trkpt lat="50.64066" lon="3.62951">
        <ele>61.769136</ele>
        <time>2021-05-26T20:04:08.328Z</time>
      </trkpt>
      <trkpt lat="50.64163" lon="3.62875">
        <ele>58.445184</ele>
        <time>2021-05-26T20:04:18.728Z</time>
      </trkpt>
      <trkpt lat="50.64324" lon="3.62749">
        <ele>55.40155</ele>
        <time>2021-05-26T20:04:40.221Z</time>
      </trkpt>
      <trkpt lat="50.64497" lon="3.62617">
        <ele>55.028343</ele>
        <time>2021-05-26T20:05:09.867Z</time>
      </trkpt>
      <trkpt lat="50.64645" lon="3.62512">
        <ele>54.971612</ele>
        <time>2021-05-26T20:05:33.777Z</time>
      </trkpt>
      <trkpt lat="50.64692" lon="3.62484">
        <ele>54.874499</ele>
        <time>2021-05-26T20:05:41.043Z</time>
      </trkpt>
      <trkpt lat="50.64865" lon="3.62388">
        <ele>54.175306</ele>
        <time>2021-05-26T20:06:05.952Z</time>
      </trkpt>
      <trkpt lat="50.64989" lon="3.6231">
        <ele>53.190241</ele>
        <time>2021-05-26T20:06:23.110Z</time>
      </trkpt>
      <trkpt lat="50.65053" lon="3.62252">
        <ele>52.498852</ele>
        <time>2021-05-26T20:06:31.858Z</time>
      </trkpt>
      <trkpt lat="50.65126" lon="3.62168">
        <ele>51.6936</ele>
        <time>2021-05-26T20:06:42.864Z</time>
      </trkpt>
      <trkpt lat="50.65146" lon="3.62142">
        <ele>51.470791</ele>
        <time>2021-05-26T20:06:45.980Z</time>
      </trkpt>
      <trkpt lat="50.65151" lon="3.62138">
        <ele>51.424261</ele>
        <time>2021-05-26T20:06:46.752Z</time>
      </trkpt>
      <trkpt lat="50.65172" lon="3.62112">
        <ele>51.192741</ele>
        <time>2021-05-26T20:06:50.093Z</time>
      </trkpt>
      <trkpt lat="50.65181" lon="3.621">
        <ele>51.093087</ele>
        <time>2021-05-26T20:06:51.685Z</time>
      </trkpt>
      <trkpt lat="50.6519" lon="3.62083">
        <ele>50.972315</ele>
        <time>2021-05-26T20:06:53.456Z</time>
      </trkpt>
      <trkpt lat="50.65197" lon="3.62075">
        <ele>50.901648</ele>
        <time>2021-05-26T20:06:54.464Z</time>
      </trkpt>
      <trkpt lat="50.65206" lon="3.62067">
        <ele>50.807067</ele>
        <time>2021-05-26T20:06:55.977Z</time>
      </trkpt>
      <trkpt lat="50.6524" lon="3.62042">
        <ele>50.537064</ele>
        <time>2021-05-26T20:07:00.801Z</time>
      </trkpt>
      <trkpt lat="50.65284" lon="3.62027">
        <ele>50.2744</ele>
        <time>2021-05-26T20:07:06.768Z</time>
      </trkpt>
      <trkpt lat="50.65287" lon="3.62027">
        <ele>50.257245</ele>
        <time>2021-05-26T20:07:07.294Z</time>
      </trkpt>
      <trkpt lat="50.65289" lon="3.62027">
        <ele>50.241842</ele>
        <time>2021-05-26T20:07:07.615Z</time>
      </trkpt>
      <trkpt lat="50.65316" lon="3.62034">
        <ele>50.084016</ele>
        <time>2021-05-26T20:07:11.562Z</time>
      </trkpt>
      <trkpt lat="50.65348" lon="3.62063">
        <ele>49.866986</ele>
        <time>2021-05-26T20:07:16.644Z</time>
      </trkpt>
      <trkpt lat="50.6535" lon="3.62064">
        <ele>49.85343</ele>
        <time>2021-05-26T20:07:16.905Z</time>
      </trkpt>
      <trkpt lat="50.6536" lon="3.62072">
        <ele>49.788786</ele>
        <time>2021-05-26T20:07:18.377Z</time>
      </trkpt>
      <trkpt lat="50.65379" lon="3.62077">
        <ele>49.678148</ele>
        <time>2021-05-26T20:07:20.769Z</time>
      </trkpt>
      <trkpt lat="50.65434" lon="3.6207">
        <ele>48.715321</ele>
        <time>2021-05-26T20:07:27.398Z</time>
      </trkpt>
      <trkpt lat="50.65471" lon="3.62065">
        <ele>47.913274</ele>
        <time>2021-05-26T20:07:31.416Z</time>
      </trkpt>
      <trkpt lat="50.65508" lon="3.62059">
        <ele>47.099774</ele>
        <time>2021-05-26T20:07:35.321Z</time>
      </trkpt>
      <trkpt lat="50.65513" lon="3.62059">
        <ele>46.994802</ele>
        <time>2021-05-26T20:07:35.833Z</time>
      </trkpt>
      <trkpt lat="50.65517" lon="3.62058">
        <ele>46.89186</ele>
        <time>2021-05-26T20:07:36.323Z</time>
      </trkpt>
      <trkpt lat="50.65523" lon="3.62057">
        <ele>46.771297</ele>
        <time>2021-05-26T20:07:36.890Z</time>
      </trkpt>
      <trkpt lat="50.65544" lon="3.62051">
        <ele>46.296767</ele>
        <time>2021-05-26T20:07:39.180Z</time>
      </trkpt>
      <trkpt lat="50.65578" lon="3.6203">
        <ele>45.468123</ele>
        <time>2021-05-26T20:07:43.002Z</time>
      </trkpt>
      <trkpt lat="50.65602" lon="3.62015">
        <ele>44.843781</ele>
        <time>2021-05-26T20:07:45.560Z</time>
      </trkpt>
      <trkpt lat="50.65613" lon="3.62007">
        <ele>44.531554</ele>
        <time>2021-05-26T20:07:46.881Z</time>
      </trkpt>
      <trkpt lat="50.65616" lon="3.62001">
        <ele>44.407423</ele>
        <time>2021-05-26T20:07:47.389Z</time>
      </trkpt>
      <trkpt lat="50.6562" lon="3.61994">
        <ele>44.268757</ele>
        <time>2021-05-26T20:07:47.955Z</time>
      </trkpt>
      <trkpt lat="50.65625" lon="3.61999">
        <ele>44.11711</ele>
        <time>2021-05-26T20:07:48.851Z</time>
      </trkpt>
      <trkpt lat="50.6563" lon="3.62005">
        <ele>43.963721</ele>
        <time>2021-05-26T20:07:49.741Z</time>
      </trkpt>
      <trkpt lat="50.65716" lon="3.62115">
        <ele>41.19963</ele>
        <time>2021-05-26T20:08:06.547Z</time>
      </trkpt>
      <trkpt lat="50.65834" lon="3.62313">
        <ele>38.986253</ele>
        <time>2021-05-26T20:08:35.765Z</time>
      </trkpt>
      <trkpt lat="50.6592" lon="3.62419">
        <ele>38.548234</ele>
        <time>2021-05-26T20:08:55.969Z</time>
      </trkpt>
      <trkpt lat="50.65947" lon="3.6244">
        <ele>38.450317</ele>
        <time>2021-05-26T20:09:02.049Z</time>
      </trkpt>
      <trkpt lat="50.65969" lon="3.62449">
        <ele>38.376389</ele>
        <time>2021-05-26T20:09:06.439Z</time>
      </trkpt>
      <trkpt lat="50.65973" lon="3.62436">
        <ele>38.346486</ele>
        <time>2021-05-26T20:09:08.080Z</time>
      </trkpt>
      <trkpt lat="50.65988" lon="3.62414">
        <ele>38.314019</ele>
        <time>2021-05-26T20:09:10.952Z</time>
      </trkpt>
      <trkpt lat="50.65994" lon="3.62408">
        <ele>38.359354</ele>
        <time>2021-05-26T20:09:12.100Z</time>
      </trkpt>
      <trkpt lat="50.6602" lon="3.62395">
        <ele>38.535566</ele>
        <time>2021-05-26T20:09:18.025Z</time>
      </trkpt>
      <trkpt lat="50.66045" lon="3.62386">
        <ele>38.704733</ele>
        <time>2021-05-26T20:09:22.674Z</time>
      </trkpt>
      <trkpt lat="50.66107" lon="3.62367">
        <ele>39.115189</ele>
        <time>2021-05-26T20:09:35.241Z</time>
      </trkpt>
      <trkpt lat="50.66153" lon="3.62367">
        <ele>39.417019</ele>
        <time>2021-05-26T20:09:44.141Z</time>
      </trkpt>
      <trkpt lat="50.66158" lon="3.6237">
        <ele>39.450042</ele>
        <time>2021-05-26T20:09:44.743Z</time>
      </trkpt>
      <trkpt lat="50.66164" lon="3.62376">
        <ele>39.416981</ele>
        <time>2021-05-26T20:09:46.080Z</time>
      </trkpt>
      <trkpt lat="50.66198" lon="3.62426">
        <ele>38.982248</ele>
        <time>2021-05-26T20:09:52.057Z</time>
      </trkpt>
      <trkpt lat="50.66203" lon="3.62433">
        <ele>38.921763</ele>
        <time>2021-05-26T20:09:53.365Z</time>
      </trkpt>
      <trkpt lat="50.66208" lon="3.62436">
        <ele>38.870987</ele>
        <time>2021-05-26T20:09:53.960Z</time>
      </trkpt>
      <trkpt lat="50.66257" lon="3.62458">
        <ele>38.393647</ele>
        <time>2021-05-26T20:10:00.129Z</time>
      </trkpt>
      <trkpt lat="50.66271" lon="3.62463">
        <ele>38.257473</ele>
        <time>2021-05-26T20:10:01.915Z</time>
      </trkpt>
      <trkpt lat="50.66271" lon="3.62418">
        <ele>37.993091</ele>
        <time>2021-05-26T20:10:04.983Z</time>
      </trkpt>
      <trkpt lat="50.66273" lon="3.62385">
        <ele>37.796197</ele>
        <time>2021-05-26T20:10:07.286Z</time>
      </trkpt>
      <trkpt lat="50.66289" lon="3.62339">
        <ele>37.440228</ele>
        <time>2021-05-26T20:10:11.068Z</time>
      </trkpt>
      <trkpt lat="50.66338" lon="3.62284">
        <ele>36.811745</ele>
        <time>2021-05-26T20:10:17.872Z</time>
      </trkpt>
      <trkpt lat="50.66346" lon="3.62276">
        <ele>36.706498</ele>
        <time>2021-05-26T20:10:18.880Z</time>
      </trkpt>
      <trkpt lat="50.66362" lon="3.62259">
        <ele>36.504933</ele>
        <time>2021-05-26T20:10:21.135Z</time>
      </trkpt>
      <trkpt lat="50.66396" lon="3.62226">
        <ele>36.08372</ele>
        <time>2021-05-26T20:10:26.854Z</time>
      </trkpt>
      <trkpt lat="50.66399" lon="3.62223">
        <ele>36.045427</ele>
        <time>2021-05-26T20:10:27.625Z</time>
      </trkpt>
      <trkpt lat="50.66418" lon="3.62205">
        <ele>35.913847</ele>
        <time>2021-05-26T20:10:31.035Z</time>
      </trkpt>
      <trkpt lat="50.66451" lon="3.62173">
        <ele>36.168115</ele>
        <time>2021-05-26T20:10:38.009Z</time>
      </trkpt>
      <trkpt lat="50.66465" lon="3.62159">
        <ele>36.28046</ele>
        <time>2021-05-26T20:10:41.070Z</time>
      </trkpt>
      <trkpt lat="50.66528" lon="3.621">
        <ele>36.762061</ele>
        <time>2021-05-26T20:10:55.033Z</time>
      </trkpt>
      <trkpt lat="50.66553" lon="3.62078">
        <ele>36.952578</ele>
        <time>2021-05-26T20:11:00.458Z</time>
      </trkpt>
      <trkpt lat="50.66581" lon="3.62056">
        <ele>36.977377</ele>
        <time>2021-05-26T20:11:05.570Z</time>
      </trkpt>
      <trkpt lat="50.66599" lon="3.62042">
        <ele>36.864362</ele>
        <time>2021-05-26T20:11:08.457Z</time>
      </trkpt>
      <trkpt lat="50.66605" lon="3.62037">
        <ele>36.826786</ele>
        <time>2021-05-26T20:11:09.337Z</time>
      </trkpt>
      <trkpt lat="50.6661" lon="3.62033">
        <ele>36.796706</ele>
        <time>2021-05-26T20:11:10.156Z</time>
      </trkpt>
      <trkpt lat="50.66624" lon="3.62022">
        <ele>36.707123</ele>
        <time>2021-05-26T20:11:12.199Z</time>
      </trkpt>
      <trkpt lat="50.66627" lon="3.6202">
        <ele>36.691169</ele>
        <time>2021-05-26T20:11:12.611Z</time>
      </trkpt>
      <trkpt lat="50.66636" lon="3.62013">
        <ele>36.633163</ele>
        <time>2021-05-26T20:11:13.912Z</time>
      </trkpt>
      <trkpt lat="50.66641" lon="3.62008">
        <ele>36.600196</ele>
        <time>2021-05-26T20:11:14.730Z</time>
      </trkpt>
      <trkpt lat="50.66646" lon="3.62003">
        <ele>36.568561</ele>
        <time>2021-05-26T20:11:15.512Z</time>
      </trkpt>
      <trkpt lat="50.66652" lon="3.61996">
        <ele>36.523442</ele>
        <time>2021-05-26T20:11:16.517Z</time>
      </trkpt>
      <trkpt lat="50.66654" lon="3.61993">
        <ele>36.508405</ele>
        <time>2021-05-26T20:11:16.800Z</time>
      </trkpt>
      <trkpt lat="50.66678" lon="3.61952">
        <ele>36.311466</ele>
        <time>2021-05-26T20:11:21.105Z</time>
      </trkpt>
      <trkpt lat="50.66691" lon="3.61918">
        <ele>36.16727</ele>
        <time>2021-05-26T20:11:24.068Z</time>
      </trkpt>
      <trkpt lat="50.66695" lon="3.61911">
        <ele>36.134365</ele>
        <time>2021-05-26T20:11:24.738Z</time>
      </trkpt>
      <trkpt lat="50.66702" lon="3.61898">
        <ele>36.074327</ele>
        <time>2021-05-26T20:11:26.005Z</time>
      </trkpt>
      <trkpt lat="50.66704" lon="3.61895">
        <ele>36.0595</ele>
        <time>2021-05-26T20:11:26.326Z</time>
      </trkpt>
      <trkpt lat="50.66709" lon="3.61889">
        <ele>36.030273</ele>
        <time>2021-05-26T20:11:27.044Z</time>
      </trkpt>
      <trkpt lat="50.66758" lon="3.61828">
        <ele>35.771279</ele>
        <time>2021-05-26T20:11:35.027Z</time>
      </trkpt>
      <trkpt lat="50.66772" lon="3.61813">
        <ele>35.699071</ele>
        <time>2021-05-26T20:11:37.330Z</time>
      </trkpt>
      <trkpt lat="50.66778" lon="3.61808">
        <ele>35.674033</ele>
        <time>2021-05-26T20:11:38.112Z</time>
      </trkpt>
      <trkpt lat="50.66781" lon="3.61806">
        <ele>35.660616</ele>
        <time>2021-05-26T20:11:38.582Z</time>
      </trkpt>
      <trkpt lat="50.66817" lon="3.61798">
        <ele>35.50777</ele>
        <time>2021-05-26T20:11:43.825Z</time>
      </trkpt>
      <trkpt lat="50.66823" lon="3.61798">
        <ele>35.484171</ele>
        <time>2021-05-26T20:11:44.695Z</time>
      </trkpt>
      <trkpt lat="50.66825" lon="3.61798">
        <ele>35.475837</ele>
        <time>2021-05-26T20:11:44.993Z</time>
      </trkpt>
      <trkpt lat="50.6683" lon="3.61796">
        <ele>35.455339</ele>
        <time>2021-05-26T20:11:45.686Z</time>
      </trkpt>
      <trkpt lat="50.66835" lon="3.61795">
        <ele>35.43447</ele>
        <time>2021-05-26T20:11:46.333Z</time>
      </trkpt>
      <trkpt lat="50.66838" lon="3.61795">
        <ele>35.421589</ele>
        <time>2021-05-26T20:11:46.804Z</time>
      </trkpt>
      <trkpt lat="50.66841" lon="3.61794">
        <ele>35.409119</ele>
        <time>2021-05-26T20:11:47.363Z</time>
      </trkpt>
      <trkpt lat="50.6688" lon="3.61776">
        <ele>35.329066</ele>
        <time>2021-05-26T20:11:53.650Z</time>
      </trkpt>
      <trkpt lat="50.66901" lon="3.61759">
        <ele>35.367563</ele>
        <time>2021-05-26T20:11:57.422Z</time>
      </trkpt>
      <trkpt lat="50.66949" lon="3.61716">
        <ele>35.45755</ele>
        <time>2021-05-26T20:12:06.641Z</time>
      </trkpt>
      <trkpt lat="50.6704" lon="3.61629">
        <ele>35.491538</ele>
        <time>2021-05-26T20:12:22.767Z</time>
      </trkpt>
      <trkpt lat="50.67094" lon="3.61547">
        <ele>35.116636</ele>
        <time>2021-05-26T20:12:32.735Z</time>
      </trkpt>
      <trkpt lat="50.671" lon="3.61538">
        <ele>35.07637</ele>
        <time>2021-05-26T20:12:33.639Z</time>
      </trkpt>
      <trkpt lat="50.67104" lon="3.61533">
        <ele>35.045739</ele>
        <time>2021-05-26T20:12:34.426Z</time>
      </trkpt>
      <trkpt lat="50.67122" lon="3.61521">
        <ele>34.949857</ele>
        <time>2021-05-26T20:12:37.046Z</time>
      </trkpt>
      <trkpt lat="50.67133" lon="3.61515">
        <ele>34.893302</ele>
        <time>2021-05-26T20:12:38.345Z</time>
      </trkpt>
      <trkpt lat="50.6716" lon="3.615">
        <ele>34.745502</ele>
        <time>2021-05-26T20:12:42.269Z</time>
      </trkpt>
      <trkpt lat="50.67196" lon="3.61482">
        <ele>34.680934</ele>
        <time>2021-05-26T20:12:47.066Z</time>
      </trkpt>
      <trkpt lat="50.67202" lon="3.61478">
        <ele>34.678377</ele>
        <time>2021-05-26T20:12:47.835Z</time>
      </trkpt>
      <trkpt lat="50.67206" lon="3.61472">
        <ele>34.676313</ele>
        <time>2021-05-26T20:12:48.545Z</time>
      </trkpt>
      <trkpt lat="50.67221" lon="3.61461">
        <ele>34.670034</ele>
        <time>2021-05-26T20:12:50.780Z</time>
      </trkpt>
      <trkpt lat="50.67227" lon="3.61456">
        <ele>34.667443</ele>
        <time>2021-05-26T20:12:51.620Z</time>
      </trkpt>
      <trkpt lat="50.67229" lon="3.61454">
        <ele>34.666246</ele>
        <time>2021-05-26T20:12:51.958Z</time>
      </trkpt>
      <trkpt lat="50.67241" lon="3.61446">
        <ele>34.661366</ele>
        <time>2021-05-26T20:12:53.617Z</time>
      </trkpt>
      <trkpt lat="50.67239" lon="3.61436">
        <ele>34.658775</ele>
        <time>2021-05-26T20:12:54.599Z</time>
      </trkpt>
      <trkpt lat="50.67239" lon="3.61426">
        <ele>34.6565</ele>
        <time>2021-05-26T20:12:55.513Z</time>
      </trkpt>
      <trkpt lat="50.67239" lon="3.6142">
        <ele>34.654917</ele>
        <time>2021-05-26T20:12:56.136Z</time>
      </trkpt>
      <trkpt lat="50.6724" lon="3.61415">
        <ele>34.653649</ele>
        <time>2021-05-26T20:12:56.610Z</time>
      </trkpt>
      <trkpt lat="50.67285" lon="3.6125">
        <ele>35.081897</ele>
        <time>2021-05-26T20:13:15.680Z</time>
      </trkpt>
      <trkpt lat="50.67289" lon="3.61231">
        <ele>35.264398</ele>
        <time>2021-05-26T20:13:17.995Z</time>
      </trkpt>
      <trkpt lat="50.67306" lon="3.6117">
        <ele>35.885887</ele>
        <time>2021-05-26T20:13:26.157Z</time>
      </trkpt>
      <trkpt lat="50.6736" lon="3.60912">
        <ele>38.77985</ele>
        <time>2021-05-26T20:14:06.432Z</time>
      </trkpt>
      <trkpt lat="50.67364" lon="3.60897">
        <ele>38.979396</ele>
        <time>2021-05-26T20:14:09.142Z</time>
      </trkpt>
      <trkpt lat="50.67368" lon="3.60876">
        <ele>39.24656</ele>
        <time>2021-05-26T20:14:12.166Z</time>
      </trkpt>
      <trkpt lat="50.67372" lon="3.60866">
        <ele>39.388403</ele>
        <time>2021-05-26T20:14:13.823Z</time>
      </trkpt>
      <trkpt lat="50.67376" lon="3.60843">
        <ele>39.680989</ele>
        <time>2021-05-26T20:14:17.404Z</time>
      </trkpt>
      <trkpt lat="50.67389" lon="3.60781">
        <ele>40.480922</ele>
        <time>2021-05-26T20:14:26.113Z</time>
      </trkpt>
      <trkpt lat="50.67404" lon="3.60713">
        <ele>41.198128</ele>
        <time>2021-05-26T20:14:35.264Z</time>
      </trkpt>
      <trkpt lat="50.6741" lon="3.60686">
        <ele>41.462893</ele>
        <time>2021-05-26T20:14:39.083Z</time>
      </trkpt>
      <trkpt lat="50.67415" lon="3.60655">
        <ele>41.750677</ele>
        <time>2021-05-26T20:14:43.285Z</time>
      </trkpt>
      <trkpt lat="50.67419" lon="3.60637">
        <ele>41.917655</ele>
        <time>2021-05-26T20:14:45.790Z</time>
      </trkpt>
      <trkpt lat="50.67419" lon="3.60621">
        <ele>42.064093</ele>
        <time>2021-05-26T20:14:47.627Z</time>
      </trkpt>
      <trkpt lat="50.67418" lon="3.60601">
        <ele>42.242323</ele>
        <time>2021-05-26T20:14:50.108Z</time>
      </trkpt>
      <trkpt lat="50.67417" lon="3.60591">
        <ele>42.335119</ele>
        <time>2021-05-26T20:14:51.578Z</time>
      </trkpt>
      <trkpt lat="50.67399" lon="3.60443">
        <ele>43.634073</ele>
        <time>2021-05-26T20:15:11.025Z</time>
      </trkpt>
      <trkpt lat="50.67399" lon="3.6044">
        <ele>43.6568</ele>
        <time>2021-05-26T20:15:11.468Z</time>
      </trkpt>
      <trkpt lat="50.67399" lon="3.60425">
        <ele>43.76816</ele>
        <time>2021-05-26T20:15:13.897Z</time>
      </trkpt>
      <trkpt lat="50.67403" lon="3.60368">
        <ele>44.20876</ele>
        <time>2021-05-26T20:15:21.983Z</time>
      </trkpt>
      <trkpt lat="50.67411" lon="3.60305">
        <ele>44.696466</ele>
        <time>2021-05-26T20:15:30.539Z</time>
      </trkpt>
      <trkpt lat="50.67419" lon="3.6025">
        <ele>45.120467</ele>
        <time>2021-05-26T20:15:37.791Z</time>
      </trkpt>
      <trkpt lat="50.67424" lon="3.60222">
        <ele>45.341793</ele>
        <time>2021-05-26T20:15:40.249Z</time>
      </trkpt>
      <trkpt lat="50.67427" lon="3.602">
        <ele>45.422498</ele>
        <time>2021-05-26T20:15:43.120Z</time>
      </trkpt>
      <trkpt lat="50.67437" lon="3.60142">
        <ele>45.149108</ele>
        <time>2021-05-26T20:15:48.260Z</time>
      </trkpt>
      <trkpt lat="50.6744" lon="3.60129">
        <ele>45.089021</ele>
        <time>2021-05-26T20:15:49.630Z</time>
      </trkpt>
      <trkpt lat="50.67444" lon="3.60109">
        <ele>44.992916</ele>
        <time>2021-05-26T20:15:51.072Z</time>
      </trkpt>
      <trkpt lat="50.67464" lon="3.60016">
        <ele>44.548399</ele>
        <time>2021-05-26T20:15:59.232Z</time>
      </trkpt>
      <trkpt lat="50.67464" lon="3.60008">
        <ele>44.510362</ele>
        <time>2021-05-26T20:15:59.745Z</time>
      </trkpt>
      <trkpt lat="50.67466" lon="3.59989">
        <ele>44.42422</ele>
        <time>2021-05-26T20:16:01.109Z</time>
      </trkpt>
      <trkpt lat="50.67468" lon="3.59962">
        <ele>44.302325</ele>
        <time>2021-05-26T20:16:04.145Z</time>
      </trkpt>
      <trkpt lat="50.67452" lon="3.59956">
        <ele>44.183665</ele>
        <time>2021-05-26T20:16:06.573Z</time>
      </trkpt>
      <trkpt lat="50.67453" lon="3.59953">
        <ele>44.164128</ele>
        <time>2021-05-26T20:16:06.970Z</time>
      </trkpt>
      <trkpt lat="50.67453" lon="3.59944">
        <ele>44.077752</ele>
        <time>2021-05-26T20:16:08.383Z</time>
      </trkpt>
      <trkpt lat="50.6748" lon="3.59777">
        <ele>42.460686</ele>
        <time>2021-05-26T20:16:26.374Z</time>
      </trkpt>
      <trkpt lat="50.67487" lon="3.59765">
        <ele>42.313522</ele>
        <time>2021-05-26T20:16:28.628Z</time>
      </trkpt>
      <trkpt lat="50.67493" lon="3.59698">
        <ele>41.675732</ele>
        <time>2021-05-26T20:16:35.846Z</time>
      </trkpt>
      <trkpt lat="50.67499" lon="3.5961">
        <ele>40.290615</ele>
        <time>2021-05-26T20:16:44.511Z</time>
      </trkpt>
      <trkpt lat="50.67493" lon="3.59584">
        <ele>39.826984</ele>
        <time>2021-05-26T20:16:47.509Z</time>
      </trkpt>
      <trkpt lat="50.67489" lon="3.59575">
        <ele>39.629585</ele>
        <time>2021-05-26T20:16:48.547Z</time>
      </trkpt>
      <trkpt lat="50.67484" lon="3.59566">
        <ele>39.413109</ele>
        <time>2021-05-26T20:16:49.602Z</time>
      </trkpt>
      <trkpt lat="50.6744" lon="3.59525">
        <ele>38.04056</ele>
        <time>2021-05-26T20:16:57.203Z</time>
      </trkpt>
      <trkpt lat="50.6744" lon="3.59525">
        <ele>38.04056</ele>
        <time>2021-05-26T20:16:57.208Z</time>
      </trkpt>
      <trkpt lat="50.67429" lon="3.59489">
        <ele>37.344161</ele>
        <time>2021-05-26T20:17:00.826Z</time>
      </trkpt>
      <trkpt lat="50.67461" lon="3.59237">
        <ele>33.210451</ele>
        <time>2021-05-26T20:17:25.128Z</time>
      </trkpt>
      <trkpt lat="50.67458" lon="3.59141">
        <ele>32.003868</ele>
        <time>2021-05-26T20:17:35.254Z</time>
      </trkpt>
      <trkpt lat="50.6746" lon="3.59129">
        <ele>31.948284</ele>
        <time>2021-05-26T20:17:36.428Z</time>
      </trkpt>
      <trkpt lat="50.67463" lon="3.5911">
        <ele>31.85483</ele>
        <time>2021-05-26T20:17:38.739Z</time>
      </trkpt>
      <trkpt lat="50.67467" lon="3.59094">
        <ele>31.774881</ele>
        <time>2021-05-26T20:17:40.610Z</time>
      </trkpt>
      <trkpt lat="50.67475" lon="3.59073">
        <ele>31.662078</ele>
        <time>2021-05-26T20:17:43.136Z</time>
      </trkpt>
      <trkpt lat="50.67456" lon="3.59047">
        <ele>31.476818</ele>
        <time>2021-05-26T20:17:46.364Z</time>
      </trkpt>
      <trkpt lat="50.67449" lon="3.59031">
        <ele>31.384662</ele>
        <time>2021-05-26T20:17:47.877Z</time>
      </trkpt>
      <trkpt lat="50.67448" lon="3.5901">
        <ele>31.285561</ele>
        <time>2021-05-26T20:17:49.782Z</time>
      </trkpt>
      <trkpt lat="50.67451" lon="3.58982">
        <ele>31.151029</ele>
        <time>2021-05-26T20:17:52.046Z</time>
      </trkpt>
      <trkpt lat="50.67453" lon="3.5897">
        <ele>31.095836</ele>
        <time>2021-05-26T20:17:53.205Z</time>
      </trkpt>
      <trkpt lat="50.6745" lon="3.58941">
        <ele>30.955438</ele>
        <time>2021-05-26T20:17:56.102Z</time>
      </trkpt>
      <trkpt lat="50.67424" lon="3.58911">
        <ele>30.823955</ele>
        <time>2021-05-26T20:18:01.299Z</time>
      </trkpt>
      <trkpt lat="50.67421" lon="3.58909">
        <ele>30.827423</ele>
        <time>2021-05-26T20:18:01.814Z</time>
      </trkpt>
      <trkpt lat="50.67414" lon="3.5891">
        <ele>30.834036</ele>
        <time>2021-05-26T20:18:02.893Z</time>
      </trkpt>
      <trkpt lat="50.67375" lon="3.58981">
        <ele>30.8939</ele>
        <time>2021-05-26T20:18:12.473Z</time>
      </trkpt>
      <trkpt lat="50.67358" lon="3.59">
        <ele>30.914897</ele>
        <time>2021-05-26T20:18:15.360Z</time>
      </trkpt>
      <trkpt lat="50.67351" lon="3.59004">
        <ele>30.921693</ele>
        <time>2021-05-26T20:18:16.344Z</time>
      </trkpt>
      <trkpt lat="50.67331" lon="3.59016">
        <ele>30.943594</ele>
        <time>2021-05-26T20:18:19.846Z</time>
      </trkpt>
      <trkpt lat="50.67315" lon="3.59024">
        <ele>30.960813</ele>
        <time>2021-05-26T20:18:22.287Z</time>
      </trkpt>
      <trkpt lat="50.67312" lon="3.59024">
        <ele>30.963018</ele>
        <time>2021-05-26T20:18:22.926Z</time>
      </trkpt>
      <trkpt lat="50.6731" lon="3.59024">
        <ele>30.964921</ele>
        <time>2021-05-26T20:18:23.238Z</time>
      </trkpt>
      <trkpt lat="50.67307" lon="3.59023">
        <ele>30.968185</ele>
        <time>2021-05-26T20:18:23.730Z</time>
      </trkpt>
      <trkpt lat="50.67303" lon="3.59021">
        <ele>30.972348</ele>
        <time>2021-05-26T20:18:24.273Z</time>
      </trkpt>
      <trkpt lat="50.67278" lon="3.59008">
        <ele>30.999517</ele>
        <time>2021-05-26T20:18:28.058Z</time>
      </trkpt>
      <trkpt lat="50.6727" lon="3.59003">
        <ele>31.010209</ele>
        <time>2021-05-26T20:18:29.454Z</time>
      </trkpt>
      <trkpt lat="50.6715" lon="3.58933">
        <ele>31.154468</ele>
        <time>2021-05-26T20:18:49.037Z</time>
      </trkpt>
      <trkpt lat="50.67124" lon="3.58926">
        <ele>31.183681</ele>
        <time>2021-05-26T20:18:52.714Z</time>
      </trkpt>
      <trkpt lat="50.6711" lon="3.58921">
        <ele>31.229477</ele>
        <time>2021-05-26T20:18:55.010Z</time>
      </trkpt>
      <trkpt lat="50.67095" lon="3.58913">
        <ele>31.355959</ele>
        <time>2021-05-26T20:18:57.515Z</time>
      </trkpt>
      <trkpt lat="50.67087" lon="3.58891">
        <ele>31.479812</ele>
        <time>2021-05-26T20:19:00.080Z</time>
      </trkpt>
      <trkpt lat="50.67083" lon="3.58873">
        <ele>31.576937</ele>
        <time>2021-05-26T20:19:02.395Z</time>
      </trkpt>
      <trkpt lat="50.67081" lon="3.58861">
        <ele>31.639496</ele>
        <time>2021-05-26T20:19:03.606Z</time>
      </trkpt>
      <trkpt lat="50.67079" lon="3.58845">
        <ele>31.718009</ele>
        <time>2021-05-26T20:19:05.328Z</time>
      </trkpt>
      <trkpt lat="50.67075" lon="3.58819">
        <ele>31.848528</ele>
        <time>2021-05-26T20:19:09.440Z</time>
      </trkpt>
      <trkpt lat="50.67077" lon="3.58789">
        <ele>31.998368</ele>
        <time>2021-05-26T20:19:13.818Z</time>
      </trkpt>
      <trkpt lat="50.6708" lon="3.58783">
        <ele>32.039353</ele>
        <time>2021-05-26T20:19:15.091Z</time>
      </trkpt>
      <trkpt lat="50.67123" lon="3.58685">
        <ele>32.641527</ele>
        <time>2021-05-26T20:19:34.126Z</time>
      </trkpt>
      <trkpt lat="50.67168" lon="3.58586">
        <ele>33.431182</ele>
        <time>2021-05-26T20:19:53.200Z</time>
      </trkpt>
      <trkpt lat="50.67256" lon="3.58389">
        <ele>34.707027</ele>
        <time>2021-05-26T20:20:29.970Z</time>
      </trkpt>
      <trkpt lat="50.67316" lon="3.58254">
        <ele>35.209512</ele>
        <time>2021-05-26T20:20:52.806Z</time>
      </trkpt>
      <trkpt lat="50.67574" lon="3.57676">
        <ele>35.424678</ele>
        <time>2021-05-26T20:22:21.814Z</time>
      </trkpt>
      <trkpt lat="50.67596" lon="3.57627">
        <ele>35.670743</ele>
        <time>2021-05-26T20:22:30.591Z</time>
      </trkpt>
      <trkpt lat="50.67591" lon="3.57623">
        <ele>35.704698</ele>
        <time>2021-05-26T20:22:31.826Z</time>
      </trkpt>
      <trkpt lat="50.67572" lon="3.57602">
        <ele>35.853644</ele>
        <time>2021-05-26T20:22:36.303Z</time>
      </trkpt>
      <trkpt lat="50.6756" lon="3.5759">
        <ele>35.950084</ele>
        <time>2021-05-26T20:22:38.975Z</time>
      </trkpt>
      <trkpt lat="50.67427" lon="3.57444">
        <ele>38.20265</ele>
        <time>2021-05-26T20:23:13.041Z</time>
      </trkpt>
      <trkpt lat="50.67296" lon="3.573">
        <ele>41.228935</ele>
        <time>2021-05-26T20:23:47.884Z</time>
      </trkpt>
      <trkpt lat="50.66971" lon="3.56946">
        <ele>50.875176</ele>
        <time>2021-05-26T20:25:26.043Z</time>
      </trkpt>
      <trkpt lat="50.66609" lon="3.5655">
        <ele>60.718602</ele>
        <time>2021-05-26T20:27:19.436Z</time>
      </trkpt>
      <trkpt lat="50.66604" lon="3.56561">
        <ele>60.603411</ele>
        <time>2021-05-26T20:27:20.808Z</time>
      </trkpt>
      <trkpt lat="50.6659" lon="3.566">
        <ele>60.224166</ele>
        <time>2021-05-26T20:27:26.056Z</time>
      </trkpt>
      <trkpt lat="50.66577" lon="3.566">
        <ele>60.046463</ele>
        <time>2021-05-26T20:27:28.051Z</time>
      </trkpt>
      <trkpt lat="50.66428" lon="3.56493">
        <ele>55.620374</ele>
        <time>2021-05-26T20:27:51.133Z</time>
      </trkpt>
      <trkpt lat="50.66389" lon="3.56447">
        <ele>53.583711</ele>
        <time>2021-05-26T20:27:57.869Z</time>
      </trkpt>
      <trkpt lat="50.66328" lon="3.56378">
        <ele>50.780606</ele>
        <time>2021-05-26T20:28:08.258Z</time>
      </trkpt>
      <trkpt lat="50.66291" lon="3.56334">
        <ele>49.410156</ele>
        <time>2021-05-26T20:28:14.835Z</time>
      </trkpt>
      <trkpt lat="50.66242" lon="3.56287">
        <ele>47.740087</ele>
        <time>2021-05-26T20:28:23.268Z</time>
      </trkpt>
      <trkpt lat="50.66155" lon="3.56219">
        <ele>45.878452</ele>
        <time>2021-05-26T20:28:39.175Z</time>
      </trkpt>
      <trkpt lat="50.6599" lon="3.56123">
        <ele>44.885925</ele>
        <time>2021-05-26T20:29:12.466Z</time>
      </trkpt>
      <trkpt lat="50.65969" lon="3.56089">
        <ele>44.883688</ele>
        <time>2021-05-26T20:29:18.392Z</time>
      </trkpt>
      <trkpt lat="50.65922" lon="3.56043">
        <ele>44.87956</ele>
        <time>2021-05-26T20:29:29.732Z</time>
      </trkpt>
      <trkpt lat="50.65873" lon="3.55949">
        <ele>45.040598</ele>
        <time>2021-05-26T20:29:46.092Z</time>
      </trkpt>
      <trkpt lat="50.65821" lon="3.56006">
        <ele>45.483463</ele>
        <time>2021-05-26T20:29:56.750Z</time>
      </trkpt>
      <trkpt lat="50.65701" lon="3.56136">
        <ele>46.414065</ele>
        <time>2021-05-26T20:30:24.308Z</time>
      </trkpt>
      <trkpt lat="50.6561" lon="3.56216">
        <ele>46.958007</ele>
        <time>2021-05-26T20:30:41.748Z</time>
      </trkpt>
      <trkpt lat="50.65599" lon="3.56229">
        <ele>47.029183</ele>
        <time>2021-05-26T20:30:43.963Z</time>
      </trkpt>
      <trkpt lat="50.65587" lon="3.56242">
        <ele>47.072328</ele>
        <time>2021-05-26T20:30:46.093Z</time>
      </trkpt>
      <trkpt lat="50.65446" lon="3.56395">
        <ele>46.71105</ele>
        <time>2021-05-26T20:31:09.800Z</time>
      </trkpt>
      <trkpt lat="50.6541" lon="3.56446">
        <ele>46.44934</ele>
        <time>2021-05-26T20:31:16.538Z</time>
      </trkpt>
      <trkpt lat="50.65385" lon="3.56485">
        <ele>46.249357</ele>
        <time>2021-05-26T20:31:21.190Z</time>
      </trkpt>
      <trkpt lat="50.65381" lon="3.56501">
        <ele>46.183125</ele>
        <time>2021-05-26T20:31:22.825Z</time>
      </trkpt>
      <trkpt lat="50.65354" lon="3.56528">
        <ele>46.001659</ele>
        <time>2021-05-26T20:31:28.731Z</time>
      </trkpt>
      <trkpt lat="50.65306" lon="3.56578">
        <ele>45.664051</ele>
        <time>2021-05-26T20:31:39.036Z</time>
      </trkpt>
      <trkpt lat="50.65294" lon="3.56584">
        <ele>45.46704</ele>
        <time>2021-05-26T20:31:41.049Z</time>
      </trkpt>
      <trkpt lat="50.65287" lon="3.56561">
        <ele>45.196025</ele>
        <time>2021-05-26T20:31:43.697Z</time>
      </trkpt>
      <trkpt lat="50.65266" lon="3.5651">
        <ele>44.533897</ele>
        <time>2021-05-26T20:31:50.193Z</time>
      </trkpt>
      <trkpt lat="50.65249" lon="3.56439">
        <ele>43.729409</ele>
        <time>2021-05-26T20:31:57.808Z</time>
      </trkpt>
      <trkpt lat="50.65246" lon="3.56416">
        <ele>43.469528</ele>
        <time>2021-05-26T20:32:00.206Z</time>
      </trkpt>
      <trkpt lat="50.65244" lon="3.5638">
        <ele>43.081848</ele>
        <time>2021-05-26T20:32:03.774Z</time>
      </trkpt>
      <trkpt lat="50.65243" lon="3.56358">
        <ele>42.843526</ele>
        <time>2021-05-26T20:32:05.946Z</time>
      </trkpt>
      <trkpt lat="50.65229" lon="3.56325">
        <ele>42.418214</ele>
        <time>2021-05-26T20:32:09.858Z</time>
      </trkpt>
      <trkpt lat="50.65175" lon="3.5629">
        <ele>41.420818</ele>
        <time>2021-05-26T20:32:19.096Z</time>
      </trkpt>
      <trkpt lat="50.65153" lon="3.56269">
        <ele>40.985932</ele>
        <time>2021-05-26T20:32:23.110Z</time>
      </trkpt>
      <trkpt lat="50.6513" lon="3.56238">
        <ele>40.479319</ele>
        <time>2021-05-26T20:32:27.873Z</time>
      </trkpt>
      <trkpt lat="50.65109" lon="3.56186">
        <ele>39.810866</ele>
        <time>2021-05-26T20:32:34.496Z</time>
      </trkpt>
      <trkpt lat="50.65084" lon="3.5607">
        <ele>39.656932</ele>
        <time>2021-05-26T20:32:48.598Z</time>
      </trkpt>
      <trkpt lat="50.65066" lon="3.56041">
        <ele>39.693883</ele>
        <time>2021-05-26T20:32:53.818Z</time>
      </trkpt>
      <trkpt lat="50.6502" lon="3.55978">
        <ele>39.781598</ele>
        <time>2021-05-26T20:33:07.466Z</time>
      </trkpt>
      <trkpt lat="50.65011" lon="3.55966">
        <ele>39.799346</ele>
        <time>2021-05-26T20:33:10.454Z</time>
      </trkpt>
      <trkpt lat="50.6494" lon="3.55872">
        <ele>40.929077</ele>
        <time>2021-05-26T20:33:34.003Z</time>
      </trkpt>
      <trkpt lat="50.64888" lon="3.55821">
        <ele>41.839519</ele>
        <time>2021-05-26T20:33:50.807Z</time>
      </trkpt>
      <trkpt lat="50.64817" lon="3.55729">
        <ele>42.892887</ele>
        <time>2021-05-26T20:34:15.606Z</time>
      </trkpt>
      <trkpt lat="50.64793" lon="3.55709">
        <ele>43.110269</ele>
        <time>2021-05-26T20:34:22.260Z</time>
      </trkpt>
      <trkpt lat="50.64777" lon="3.55693">
        <ele>43.26217</ele>
        <time>2021-05-26T20:34:26.930Z</time>
      </trkpt>
      <trkpt lat="50.64762" lon="3.55673">
        <ele>43.423557</ele>
        <time>2021-05-26T20:34:31.437Z</time>
      </trkpt>
      <trkpt lat="50.6476" lon="3.55671">
        <ele>43.44138</ele>
        <time>2021-05-26T20:34:31.928Z</time>
      </trkpt>
      <trkpt lat="50.64743" lon="3.55648">
        <ele>43.626665</ele>
        <time>2021-05-26T20:34:36.917Z</time>
      </trkpt>
      <trkpt lat="50.64721" lon="3.55621">
        <ele>43.854182</ele>
        <time>2021-05-26T20:34:42.692Z</time>
      </trkpt>
      <trkpt lat="50.64708" lon="3.55604">
        <ele>43.933005</ele>
        <time>2021-05-26T20:34:45.782Z</time>
      </trkpt>
      <trkpt lat="50.64685" lon="3.55573">
        <ele>43.575269</ele>
        <time>2021-05-26T20:34:51.734Z</time>
      </trkpt>
      <trkpt lat="50.64661" lon="3.55538">
        <ele>43.206757</ele>
        <time>2021-05-26T20:34:57.670Z</time>
      </trkpt>
      <trkpt lat="50.64638" lon="3.55486">
        <ele>42.746679</ele>
        <time>2021-05-26T20:35:04.253Z</time>
      </trkpt>
      <trkpt lat="50.64575" lon="3.55338">
        <ele>41.575833</ele>
        <time>2021-05-26T20:35:22.540Z</time>
      </trkpt>
      <trkpt lat="50.64569" lon="3.55322">
        <ele>41.482201</ele>
        <time>2021-05-26T20:35:24.299Z</time>
      </trkpt>
      <trkpt lat="50.64563" lon="3.55303">
        <ele>41.370988</ele>
        <time>2021-05-26T20:35:26.608Z</time>
      </trkpt>
      <trkpt lat="50.64558" lon="3.55286">
        <ele>41.274596</ele>
        <time>2021-05-26T20:35:28.603Z</time>
      </trkpt>
      <trkpt lat="50.64476" lon="3.54916">
        <ele>40.77828</ele>
        <time>2021-05-26T20:36:17.560Z</time>
      </trkpt>
      <trkpt lat="50.64457" lon="3.54873">
        <ele>40.857248</ele>
        <time>2021-05-26T20:36:25.906Z</time>
      </trkpt>
      <trkpt lat="50.64371" lon="3.54739">
        <ele>42.860716</ele>
        <time>2021-05-26T20:36:58.651Z</time>
      </trkpt>
      <trkpt lat="50.64165" lon="3.5442">
        <ele>47.555264</ele>
        <time>2021-05-26T20:38:19.458Z</time>
      </trkpt>
      <trkpt lat="50.64154" lon="3.54409">
        <ele>47.621043</ele>
        <time>2021-05-26T20:38:22.831Z</time>
      </trkpt>
      <trkpt lat="50.64133" lon="3.54416">
        <ele>47.731622</ele>
        <time>2021-05-26T20:38:27.483Z</time>
      </trkpt>
      <trkpt lat="50.63995" lon="3.54517">
        <ele>47.924521</ele>
        <time>2021-05-26T20:38:56.952Z</time>
      </trkpt>
      <trkpt lat="50.63967" lon="3.54545">
        <ele>47.74457</ele>
        <time>2021-05-26T20:39:02.669Z</time>
      </trkpt>
      <trkpt lat="50.63835" lon="3.54698">
        <ele>47.372532</ele>
        <time>2021-05-26T20:39:32.550Z</time>
      </trkpt>
      <trkpt lat="50.63759" lon="3.548">
        <ele>47.539554</ele>
        <time>2021-05-26T20:39:54.772Z</time>
      </trkpt>
      <trkpt lat="50.63688" lon="3.54754">
        <ele>48.60915</ele>
        <time>2021-05-26T20:40:14.322Z</time>
      </trkpt>
      <trkpt lat="50.63651" lon="3.54731">
        <ele>49.209657</ele>
        <time>2021-05-26T20:40:24.852Z</time>
      </trkpt>
      <trkpt lat="50.63588" lon="3.5469">
        <ele>50.253295</ele>
        <time>2021-05-26T20:40:43.755Z</time>
      </trkpt>
      <trkpt lat="50.63547" lon="3.54632">
        <ele>51.44281</ele>
        <time>2021-05-26T20:40:59.448Z</time>
      </trkpt>
      <trkpt lat="50.6347" lon="3.5436">
        <ele>55.161296</ele>
        <time>2021-05-26T20:41:54.947Z</time>
      </trkpt>
      <trkpt lat="50.63455" lon="3.54306">
        <ele>55.712293</ele>
        <time>2021-05-26T20:42:04.922Z</time>
      </trkpt>
      <trkpt lat="50.63463" lon="3.54271">
        <ele>56.056093</ele>
        <time>2021-05-26T20:42:10.876Z</time>
      </trkpt>
      <trkpt lat="50.63466" lon="3.5425">
        <ele>56.265567</ele>
        <time>2021-05-26T20:42:14.428Z</time>
      </trkpt>
      <trkpt lat="50.63463" lon="3.54227">
        <ele>56.481282</ele>
        <time>2021-05-26T20:42:17.954Z</time>
      </trkpt>
      <trkpt lat="50.63454" lon="3.54191">
        <ele>56.848188</ele>
        <time>2021-05-26T20:42:23.918Z</time>
      </trkpt>
      <trkpt lat="50.63458" lon="3.54169">
        <ele>56.904101</ele>
        <time>2021-05-26T20:42:27.098Z</time>
      </trkpt>
      <trkpt lat="50.63471" lon="3.5415">
        <ele>56.878456</ele>
        <time>2021-05-26T20:42:30.998Z</time>
      </trkpt>
      <trkpt lat="50.63574" lon="3.54023">
        <ele>56.68927</ele>
        <time>2021-05-26T20:42:55.897Z</time>
      </trkpt>
      <trkpt lat="50.63593" lon="3.53977">
        <ele>56.467232</ele>
        <time>2021-05-26T20:43:02.384Z</time>
      </trkpt>
      <trkpt lat="50.636" lon="3.53954">
        <ele>56.22285</ele>
        <time>2021-05-26T20:43:05.739Z</time>
      </trkpt>
      <trkpt lat="50.63641" lon="3.53862">
        <ele>55.150456</ele>
        <time>2021-05-26T20:43:18.197Z</time>
      </trkpt>
      <trkpt lat="50.63689" lon="3.53787">
        <ele>54.142299</ele>
        <time>2021-05-26T20:43:28.693Z</time>
      </trkpt>
      <trkpt lat="50.63693" lon="3.53782">
        <ele>54.062932</ele>
        <time>2021-05-26T20:43:29.581Z</time>
      </trkpt>
      <trkpt lat="50.63698" lon="3.53769">
        <ele>53.881125</ele>
        <time>2021-05-26T20:43:31.035Z</time>
      </trkpt>
      <trkpt lat="50.637" lon="3.53627">
        <ele>51.333566</ele>
        <time>2021-05-26T20:43:43.960Z</time>
      </trkpt>
      <trkpt lat="50.63703" lon="3.53497">
        <ele>48.985745</ele>
        <time>2021-05-26T20:43:56.220Z</time>
      </trkpt>
      <trkpt lat="50.63705" lon="3.53461">
        <ele>48.830823</ele>
        <time>2021-05-26T20:43:59.604Z</time>
      </trkpt>
      <trkpt lat="50.63687" lon="3.53443">
        <ele>48.803459</ele>
        <time>2021-05-26T20:44:03.279Z</time>
      </trkpt>
      <trkpt lat="50.63563" lon="3.53315">
        <ele>48.74526</ele>
        <time>2021-05-26T20:44:36.221Z</time>
      </trkpt>
      <trkpt lat="50.63501" lon="3.53252">
        <ele>49.809986</ele>
        <time>2021-05-26T20:44:56.762Z</time>
      </trkpt>
      <trkpt lat="50.63432" lon="3.53192">
        <ele>50.957084</ele>
        <time>2021-05-26T20:45:17.736Z</time>
      </trkpt>
      <trkpt lat="50.63421" lon="3.53176">
        <ele>51.173904</ele>
        <time>2021-05-26T20:45:21.545Z</time>
      </trkpt>
      <trkpt lat="50.63395" lon="3.53114">
        <ele>51.687206</ele>
        <time>2021-05-26T20:45:33.069Z</time>
      </trkpt>
      <trkpt lat="50.63339" lon="3.52954">
        <ele>52.918333</ele>
        <time>2021-05-26T20:46:00.825Z</time>
      </trkpt>
      <trkpt lat="50.63322" lon="3.52845">
        <ele>53.815355</ele>
        <time>2021-05-26T20:46:18.905Z</time>
      </trkpt>
      <trkpt lat="50.6331" lon="3.52816">
        <ele>54.113027</ele>
        <time>2021-05-26T20:46:24.843Z</time>
      </trkpt>
      <trkpt lat="50.63295" lon="3.52795">
        <ele>54.382585</ele>
        <time>2021-05-26T20:46:29.961Z</time>
      </trkpt>
      <trkpt lat="50.63132" lon="3.52647">
        <ele>56.950981</ele>
        <time>2021-05-26T20:47:18.257Z</time>
      </trkpt>
      <trkpt lat="50.63113" lon="3.52631">
        <ele>57.240888</ele>
        <time>2021-05-26T20:47:23.517Z</time>
      </trkpt>
      <trkpt lat="50.63044" lon="3.52566">
        <ele>58.583593</ele>
        <time>2021-05-26T20:47:43.996Z</time>
      </trkpt>
      <trkpt lat="50.63051" lon="3.52546">
        <ele>58.924475</ele>
        <time>2021-05-26T20:47:47.959Z</time>
      </trkpt>
      <trkpt lat="50.63054" lon="3.52533">
        <ele>59.139742</ele>
        <time>2021-05-26T20:47:50.949Z</time>
      </trkpt>
      <trkpt lat="50.63071" lon="3.52452">
        <ele>60.460035</ele>
        <time>2021-05-26T20:48:06.097Z</time>
      </trkpt>
      <trkpt lat="50.63087" lon="3.52385">
        <ele>61.552322</ele>
        <time>2021-05-26T20:48:20.109Z</time>
      </trkpt>
      <trkpt lat="50.63081" lon="3.52377">
        <ele>61.752044</ele>
        <time>2021-05-26T20:48:23.287Z</time>
      </trkpt>
      <trkpt lat="50.6305" lon="3.52349">
        <ele>62.713374</ele>
        <time>2021-05-26T20:48:35.511Z</time>
      </trkpt>
      <trkpt lat="50.6304" lon="3.52327">
        <ele>63.376738</ele>
        <time>2021-05-26T20:48:41.392Z</time>
      </trkpt>
      <trkpt lat="50.62992" lon="3.5206">
        <ele>69.735415</ele>
        <time>2021-05-26T20:49:43.908Z</time>
      </trkpt>
      <trkpt lat="50.62994" lon="3.52041">
        <ele>70.121659</ele>
        <time>2021-05-26T20:49:48.109Z</time>
      </trkpt>
      <trkpt lat="50.63002" lon="3.52022">
        <ele>70.577662</ele>
        <time>2021-05-26T20:49:53.013Z</time>
      </trkpt>
      <trkpt lat="50.63173" lon="3.5189">
        <ele>76.697436</ele>
        <time>2021-05-26T20:50:53.061Z</time>
      </trkpt>
      <trkpt lat="50.63236" lon="3.51857">
        <ele>79.014858</ele>
        <time>2021-05-26T20:51:16.070Z</time>
      </trkpt>
      <trkpt lat="50.63242" lon="3.51844">
        <ele>79.361578</ele>
        <time>2021-05-26T20:51:19.856Z</time>
      </trkpt>
      <trkpt lat="50.63236" lon="3.51807">
        <ele>80.212672</ele>
        <time>2021-05-26T20:51:28.242Z</time>
      </trkpt>
      <trkpt lat="50.63217" lon="3.51766">
        <ele>81.216965</ele>
        <time>2021-05-26T20:51:39.898Z</time>
      </trkpt>
      <trkpt lat="50.63212" lon="3.51736">
        <ele>81.725873</ele>
        <time>2021-05-26T20:51:48.066Z</time>
      </trkpt>
      <trkpt lat="50.63209" lon="3.51712">
        <ele>82.133982</ele>
        <time>2021-05-26T20:51:53.904Z</time>
      </trkpt>
      <trkpt lat="50.63214" lon="3.51643">
        <ele>83.289156</ele>
        <time>2021-05-26T20:52:10.091Z</time>
      </trkpt>
      <trkpt lat="50.6322" lon="3.51606">
        <ele>83.930109</ele>
        <time>2021-05-26T20:52:17.574Z</time>
      </trkpt>
      <trkpt lat="50.63237" lon="3.51559">
        <ele>84.820876</ele>
        <time>2021-05-26T20:52:27.321Z</time>
      </trkpt>
      <trkpt lat="50.63248" lon="3.51541">
        <ele>85.230411</ele>
        <time>2021-05-26T20:52:31.578Z</time>
      </trkpt>
      <trkpt lat="50.63264" lon="3.51514">
        <ele>85.27386</ele>
        <time>2021-05-26T20:52:36.054Z</time>
      </trkpt>
      <trkpt lat="50.63275" lon="3.51485">
        <ele>84.560269</ele>
        <time>2021-05-26T20:52:39.562Z</time>
      </trkpt>
      <trkpt lat="50.63296" lon="3.51443">
        <ele>83.416316</ele>
        <time>2021-05-26T20:52:44.654Z</time>
      </trkpt>
      <trkpt lat="50.63304" lon="3.51401">
        <ele>82.489291</ele>
        <time>2021-05-26T20:52:48.669Z</time>
      </trkpt>
      <trkpt lat="50.63328" lon="3.51333">
        <ele>80.858802</ele>
        <time>2021-05-26T20:52:55.650Z</time>
      </trkpt>
      <trkpt lat="50.63344" lon="3.51262">
        <ele>79.032944</ele>
        <time>2021-05-26T20:53:01.941Z</time>
      </trkpt>
      <trkpt lat="50.63358" lon="3.51179">
        <ele>76.088504</ele>
        <time>2021-05-26T20:53:09.043Z</time>
      </trkpt>
      <trkpt lat="50.63363" lon="3.51153">
        <ele>75.161983</ele>
        <time>2021-05-26T20:53:11.283Z</time>
      </trkpt>
      <trkpt lat="50.63358" lon="3.51133">
        <ele>74.397327</ele>
        <time>2021-05-26T20:53:13.175Z</time>
      </trkpt>
      <trkpt lat="50.63344" lon="3.51102">
        <ele>73.076338</ele>
        <time>2021-05-26T20:53:16.402Z</time>
      </trkpt>
      <trkpt lat="50.63319" lon="3.51098">
        <ele>71.707767</ele>
        <time>2021-05-26T20:53:18.747Z</time>
      </trkpt>
      <trkpt lat="50.62967" lon="3.50902">
        <ele>56.185313</ele>
        <time>2021-05-26T20:53:55.112Z</time>
      </trkpt>
      <trkpt lat="50.629" lon="3.50862">
        <ele>53.87841</ele>
        <time>2021-05-26T20:54:02.253Z</time>
      </trkpt>
      <trkpt lat="50.62831" lon="3.50823">
        <ele>51.740843</ele>
        <time>2021-05-26T20:54:09.744Z</time>
      </trkpt>
      <trkpt lat="50.62735" lon="3.50765">
        <ele>49.140646</ele>
        <time>2021-05-26T20:54:20.920Z</time>
      </trkpt>
      <trkpt lat="50.62588" lon="3.50553">
        <ele>44.975344</ele>
        <time>2021-05-26T20:54:43.034Z</time>
      </trkpt>
      <trkpt lat="50.62564" lon="3.50527">
        <ele>44.33647</ele>
        <time>2021-05-26T20:54:46.092Z</time>
      </trkpt>
      <trkpt lat="50.62542" lon="3.50504">
        <ele>43.734708</ele>
        <time>2021-05-26T20:54:48.920Z</time>
      </trkpt>
      <trkpt lat="50.62492" lon="3.5045">
        <ele>42.398162</ele>
        <time>2021-05-26T20:54:55.276Z</time>
      </trkpt>
      <trkpt lat="50.62456" lon="3.50403">
        <ele>41.564807</ele>
        <time>2021-05-26T20:55:00.210Z</time>
      </trkpt>
      <trkpt lat="50.62434" lon="3.50384">
        <ele>41.107913</ele>
        <time>2021-05-26T20:55:02.918Z</time>
      </trkpt>
      <trkpt lat="50.62374" lon="3.50356">
        <ele>39.990172</ele>
        <time>2021-05-26T20:55:09.862Z</time>
      </trkpt>
      <trkpt lat="50.62344" lon="3.50352">
        <ele>39.452857</ele>
        <time>2021-05-26T20:55:13.507Z</time>
      </trkpt>
      <trkpt lat="50.62255" lon="3.50359">
        <ele>39.479979</ele>
        <time>2021-05-26T20:55:26.207Z</time>
      </trkpt>
      <trkpt lat="50.62227" lon="3.5036">
        <ele>39.58058</ele>
        <time>2021-05-26T20:55:31.407Z</time>
      </trkpt>
      <trkpt lat="50.62168" lon="3.50358">
        <ele>39.784543</ele>
        <time>2021-05-26T20:55:41.665Z</time>
      </trkpt>
      <trkpt lat="50.62153" lon="3.50361">
        <ele>39.838573</ele>
        <time>2021-05-26T20:55:44.784Z</time>
      </trkpt>
      <trkpt lat="50.62141" lon="3.50368">
        <ele>39.990839</ele>
        <time>2021-05-26T20:55:46.977Z</time>
      </trkpt>
      <trkpt lat="50.62134" lon="3.50375">
        <ele>40.10047</ele>
        <time>2021-05-26T20:55:48.533Z</time>
      </trkpt>
      <trkpt lat="50.62131" lon="3.50382">
        <ele>40.177005</ele>
        <time>2021-05-26T20:55:49.863Z</time>
      </trkpt>
      <trkpt lat="50.62128" lon="3.50396">
        <ele>40.297371</ele>
        <time>2021-05-26T20:55:51.586Z</time>
      </trkpt>
      <trkpt lat="50.6212" lon="3.5043">
        <ele>40.613343</ele>
        <time>2021-05-26T20:55:56.275Z</time>
      </trkpt>
      <trkpt lat="50.62118" lon="3.5044">
        <ele>40.703165</ele>
        <time>2021-05-26T20:55:57.810Z</time>
      </trkpt>
      <trkpt lat="50.62114" lon="3.5046">
        <ele>40.876722</ele>
        <time>2021-05-26T20:56:00.329Z</time>
      </trkpt>
      <trkpt lat="50.62108" lon="3.50471">
        <ele>41.001163</ele>
        <time>2021-05-26T20:56:02.077Z</time>
      </trkpt>
      <trkpt lat="50.62104" lon="3.50473">
        <ele>41.062982</ele>
        <time>2021-05-26T20:56:02.974Z</time>
      </trkpt>
      <trkpt lat="50.62059" lon="3.50459">
        <ele>41.682773</ele>
        <time>2021-05-26T20:56:12.900Z</time>
      </trkpt>
      <trkpt lat="50.6202" lon="3.50444">
        <ele>42.213888</ele>
        <time>2021-05-26T20:56:21.158Z</time>
      </trkpt>
      <trkpt lat="50.61976" lon="3.50429">
        <ele>43.091164</ele>
        <time>2021-05-26T20:56:30.486Z</time>
      </trkpt>
      <trkpt lat="50.61965" lon="3.50424">
        <ele>43.316026</ele>
        <time>2021-05-26T20:56:32.789Z</time>
      </trkpt>
      <trkpt lat="50.61955" lon="3.50421">
        <ele>43.511849</ele>
        <time>2021-05-26T20:56:35.418Z</time>
      </trkpt>
      <trkpt lat="50.61942" lon="3.50418">
        <ele>43.776572</ele>
        <time>2021-05-26T20:56:38.590Z</time>
      </trkpt>
      <trkpt lat="50.61901" lon="3.50386">
        <ele>44.675286</ele>
        <time>2021-05-26T20:56:49.120Z</time>
      </trkpt>
      <trkpt lat="50.61912" lon="3.50304">
        <ele>45.730165</ele>
        <time>2021-05-26T20:57:01.974Z</time>
      </trkpt>
      <trkpt lat="50.6186" lon="3.50287">
        <ele>46.989964</ele>
        <time>2021-05-26T20:57:15.208Z</time>
      </trkpt>
      <trkpt lat="50.61792" lon="3.50272">
        <ele>48.636114</ele>
        <time>2021-05-26T20:57:31.684Z</time>
      </trkpt>
      <trkpt lat="50.61762" lon="3.50278">
        <ele>49.361258</ele>
        <time>2021-05-26T20:57:39.008Z</time>
      </trkpt>
      <trkpt lat="50.61711" lon="3.50311">
        <ele>50.833505</ele>
        <time>2021-05-26T20:57:52.726Z</time>
      </trkpt>
      <trkpt lat="50.61681" lon="3.50317">
        <ele>51.738009</ele>
        <time>2021-05-26T20:58:00.207Z</time>
      </trkpt>
      <trkpt lat="50.61622" lon="3.503">
        <ele>53.562436</ele>
        <time>2021-05-26T20:58:16.102Z</time>
      </trkpt>
      <trkpt lat="50.61554" lon="3.50305">
        <ele>55.624027</ele>
        <time>2021-05-26T20:58:35.267Z</time>
      </trkpt>
      <trkpt lat="50.61461" lon="3.50298">
        <ele>59.351645</ele>
        <time>2021-05-26T20:59:04.327Z</time>
      </trkpt>
      <trkpt lat="50.61443" lon="3.50312">
        <ele>60.158875</ele>
        <time>2021-05-26T20:59:10.642Z</time>
      </trkpt>
      <trkpt lat="50.61434" lon="3.50327">
        <ele>60.691227</ele>
        <time>2021-05-26T20:59:15.298Z</time>
      </trkpt>
      <trkpt lat="50.61406" lon="3.50398">
        <ele>62.814127</ele>
        <time>2021-05-26T20:59:31.650Z</time>
      </trkpt>
      <trkpt lat="50.61377" lon="3.50447">
        <ele>64.021545</ele>
        <time>2021-05-26T20:59:44.474Z</time>
      </trkpt>
      <trkpt lat="50.61371" lon="3.50455">
        <ele>64.237006</ele>
        <time>2021-05-26T20:59:47.131Z</time>
      </trkpt>
      <trkpt lat="50.61317" lon="3.50535">
        <ele>66.323562</ele>
        <time>2021-05-26T21:00:07.279Z</time>
      </trkpt>
      <trkpt lat="50.6124" lon="3.50571">
        <ele>67.893523</ele>
        <time>2021-05-26T21:00:24.540Z</time>
      </trkpt>
      <trkpt lat="50.61221" lon="3.50595">
        <ele>67.911579</ele>
        <time>2021-05-26T21:00:28.489Z</time>
      </trkpt>
      <trkpt lat="50.6122" lon="3.50601">
        <ele>67.914422</ele>
        <time>2021-05-26T21:00:29.247Z</time>
      </trkpt>
      <trkpt lat="50.61218" lon="3.50614">
        <ele>67.920822</ele>
        <time>2021-05-26T21:00:30.315Z</time>
      </trkpt>
      <trkpt lat="50.6121" lon="3.50763">
        <ele>67.991179</ele>
        <time>2021-05-26T21:00:43.567Z</time>
      </trkpt>
      <trkpt lat="50.61206" lon="3.50787">
        <ele>68.002714</ele>
        <time>2021-05-26T21:00:45.470Z</time>
      </trkpt>
      <trkpt lat="50.61193" lon="3.50799">
        <ele>67.935382</ele>
        <time>2021-05-26T21:00:47.414Z</time>
      </trkpt>
      <trkpt lat="50.61183" lon="3.50805">
        <ele>67.834896</ele>
        <time>2021-05-26T21:00:48.842Z</time>
      </trkpt>
      <trkpt lat="50.61098" lon="3.508">
        <ele>67.060776</ele>
        <time>2021-05-26T21:00:59.006Z</time>
      </trkpt>
      <trkpt lat="50.60992" lon="3.508">
        <ele>66.091838</ele>
        <time>2021-05-26T21:01:12.318Z</time>
      </trkpt>
      <trkpt lat="50.60975" lon="3.50725">
        <ele>65.636966</ele>
        <time>2021-05-26T21:01:18.797Z</time>
      </trkpt>
      <trkpt lat="50.6094" lon="3.50618">
        <ele>64.957694</ele>
        <time>2021-05-26T21:01:28.440Z</time>
      </trkpt>
      <trkpt lat="50.60875" lon="3.5052">
        <ele>63.390078</ele>
        <time>2021-05-26T21:01:39.084Z</time>
      </trkpt>
      <trkpt lat="50.60835" lon="3.50406">
        <ele>61.70349</ele>
        <time>2021-05-26T21:01:48.086Z</time>
      </trkpt>
      <trkpt lat="50.60834" lon="3.50399">
        <ele>61.615039</ele>
        <time>2021-05-26T21:01:48.502Z</time>
      </trkpt>
      <trkpt lat="50.60833" lon="3.50387">
        <ele>61.452451</ele>
        <time>2021-05-26T21:01:49.289Z</time>
      </trkpt>
      <trkpt lat="50.60828" lon="3.50349">
        <ele>60.881878</ele>
        <time>2021-05-26T21:01:52.002Z</time>
      </trkpt>
      <trkpt lat="50.60822" lon="3.50334">
        <ele>60.557277</ele>
        <time>2021-05-26T21:01:53.070Z</time>
      </trkpt>
      <trkpt lat="50.60757" lon="3.50205">
        <ele>57.51291</ele>
        <time>2021-05-26T21:02:03.567Z</time>
      </trkpt>
      <trkpt lat="50.60708" lon="3.50138">
        <ele>55.805999</ele>
        <time>2021-05-26T21:02:10.305Z</time>
      </trkpt>
      <trkpt lat="50.6068" lon="3.50077">
        <ele>55.597935</ele>
        <time>2021-05-26T21:02:15.972Z</time>
      </trkpt>
      <trkpt lat="50.60673" lon="3.50068">
        <ele>55.557866</ele>
        <time>2021-05-26T21:02:16.915Z</time>
      </trkpt>
      <trkpt lat="50.6066" lon="3.50057">
        <ele>55.494928</ele>
        <time>2021-05-26T21:02:18.866Z</time>
      </trkpt>
      <trkpt lat="50.60633" lon="3.50049">
        <ele>55.376335</ele>
        <time>2021-05-26T21:02:22.318Z</time>
      </trkpt>
      <trkpt lat="50.60626" lon="3.50051">
        <ele>55.346199</ele>
        <time>2021-05-26T21:02:23.343Z</time>
      </trkpt>
      <trkpt lat="50.6062" lon="3.50054">
        <ele>55.31782</ele>
        <time>2021-05-26T21:02:24.802Z</time>
      </trkpt>
      <trkpt lat="50.60319" lon="3.49949">
        <ele>57.827827</ele>
        <time>2021-05-26T21:03:25.647Z</time>
      </trkpt>
      <trkpt lat="50.60106" lon="3.49746">
        <ele>59.228033</ele>
        <time>2021-05-26T21:04:08.581Z</time>
      </trkpt>
      <trkpt lat="50.60061" lon="3.49723">
        <ele>59.311125</ele>
        <time>2021-05-26T21:04:15.357Z</time>
      </trkpt>
      <trkpt lat="50.59983" lon="3.49654">
        <ele>58.368475</ele>
        <time>2021-05-26T21:04:26.926Z</time>
      </trkpt>
      <trkpt lat="50.59965" lon="3.49629">
        <ele>58.119482</ele>
        <time>2021-05-26T21:04:29.771Z</time>
      </trkpt>
      <trkpt lat="50.59933" lon="3.49587">
        <ele>57.679176</ele>
        <time>2021-05-26T21:04:34.518Z</time>
      </trkpt>
      <trkpt lat="50.59896" lon="3.49534">
        <ele>56.735214</ele>
        <time>2021-05-26T21:04:39.991Z</time>
      </trkpt>
      <trkpt lat="50.59838" lon="3.49459">
        <ele>54.903579</ele>
        <time>2021-05-26T21:04:48.104Z</time>
      </trkpt>
      <trkpt lat="50.59832" lon="3.4945">
        <ele>54.705877</ele>
        <time>2021-05-26T21:04:48.932Z</time>
      </trkpt>
      <trkpt lat="50.59798" lon="3.49405">
        <ele>53.606162</ele>
        <time>2021-05-26T21:04:53.651Z</time>
      </trkpt>
      <trkpt lat="50.5974" lon="3.49329">
        <ele>51.538897</ele>
        <time>2021-05-26T21:05:01.255Z</time>
      </trkpt>
      <trkpt lat="50.59717" lon="3.49307">
        <ele>50.752568</ele>
        <time>2021-05-26T21:05:03.981Z</time>
      </trkpt>
      <trkpt lat="50.59695" lon="3.4929">
        <ele>50.042632</ele>
        <time>2021-05-26T21:05:06.450Z</time>
      </trkpt>
      <trkpt lat="50.59656" lon="3.49263">
        <ele>48.801757</ele>
        <time>2021-05-26T21:05:10.901Z</time>
      </trkpt>
      <trkpt lat="50.59634" lon="3.49248">
        <ele>48.111581</ele>
        <time>2021-05-26T21:05:13.381Z</time>
      </trkpt>
      <trkpt lat="50.59613" lon="3.49242">
        <ele>47.663618</ele>
        <time>2021-05-26T21:05:15.754Z</time>
      </trkpt>
      <trkpt lat="50.59598" lon="3.49236">
        <ele>47.426782</ele>
        <time>2021-05-26T21:05:17.339Z</time>
      </trkpt>
      <trkpt lat="50.59598" lon="3.49194">
        <ele>47.000858</ele>
        <time>2021-05-26T21:05:20.393Z</time>
      </trkpt>
      <trkpt lat="50.59598" lon="3.49181">
        <ele>46.876468</ele>
        <time>2021-05-26T21:05:21.248Z</time>
      </trkpt>
      <trkpt lat="50.59598" lon="3.4911">
        <ele>46.168994</ele>
        <time>2021-05-26T21:05:26.346Z</time>
      </trkpt>
      <trkpt lat="50.59598" lon="3.49055">
        <ele>45.622708</ele>
        <time>2021-05-26T21:05:30.384Z</time>
      </trkpt>
      <trkpt lat="50.59596" lon="3.48949">
        <ele>44.894275</ele>
        <time>2021-05-26T21:05:39.224Z</time>
      </trkpt>
      <trkpt lat="50.59592" lon="3.48928">
        <ele>44.823548</ele>
        <time>2021-05-26T21:05:41.168Z</time>
      </trkpt>
      <trkpt lat="50.59589" lon="3.48872">
        <ele>44.643129</ele>
        <time>2021-05-26T21:05:46.226Z</time>
      </trkpt>
      <trkpt lat="50.59586" lon="3.48832">
        <ele>44.514326</ele>
        <time>2021-05-26T21:05:49.760Z</time>
      </trkpt>
      <trkpt lat="50.59572" lon="3.48837">
        <ele>44.445564</ele>
        <time>2021-05-26T21:05:51.670Z</time>
      </trkpt>
      <trkpt lat="50.59512" lon="3.48871">
        <ele>44.124909</ele>
        <time>2021-05-26T21:05:59.924Z</time>
      </trkpt>
      <trkpt lat="50.59441" lon="3.48914">
        <ele>43.840882</ele>
        <time>2021-05-26T21:06:09.625Z</time>
      </trkpt>
      <trkpt lat="50.59386" lon="3.48932">
        <ele>43.630317</ele>
        <time>2021-05-26T21:06:17.584Z</time>
      </trkpt>
      <trkpt lat="50.59369" lon="3.48932">
        <ele>43.56637</ele>
        <time>2021-05-26T21:06:19.824Z</time>
      </trkpt>
      <trkpt lat="50.59362" lon="3.48915">
        <ele>43.516557</ele>
        <time>2021-05-26T21:06:22.497Z</time>
      </trkpt>
      <trkpt lat="50.59349" lon="3.48894">
        <ele>43.484867</ele>
        <time>2021-05-26T21:06:26.078Z</time>
      </trkpt>
      <trkpt lat="50.59315" lon="3.48855">
        <ele>43.691152</ele>
        <time>2021-05-26T21:06:34.695Z</time>
      </trkpt>
      <trkpt lat="50.59294" lon="3.48791">
        <ele>43.915704</ele>
        <time>2021-05-26T21:06:44.872Z</time>
      </trkpt>
      <trkpt lat="50.59276" lon="3.48762">
        <ele>44.041144</ele>
        <time>2021-05-26T21:06:50.582Z</time>
      </trkpt>
      <trkpt lat="50.5922" lon="3.48723">
        <ele>44.342329</ele>
        <time>2021-05-26T21:07:05.390Z</time>
      </trkpt>
      <trkpt lat="50.59171" lon="3.48701">
        <ele>44.570893</ele>
        <time>2021-05-26T21:07:17.320Z</time>
      </trkpt>
      <trkpt lat="50.59101" lon="3.48688">
        <ele>44.887583</ele>
        <time>2021-05-26T21:07:32.723Z</time>
      </trkpt>
      <trkpt lat="50.59061" lon="3.4869">
        <ele>45.064937</ele>
        <time>2021-05-26T21:07:41.031Z</time>
      </trkpt>
      <trkpt lat="50.59051" lon="3.48686">
        <ele>45.114053</ele>
        <time>2021-05-26T21:07:43.260Z</time>
      </trkpt>
      <trkpt lat="50.59045" lon="3.4868">
        <ele>45.144548</ele>
        <time>2021-05-26T21:07:44.765Z</time>
      </trkpt>
      <trkpt lat="50.59042" lon="3.48656">
        <ele>45.210673</ele>
        <time>2021-05-26T21:07:47.997Z</time>
      </trkpt>
      <trkpt lat="50.59037" lon="3.48639">
        <ele>45.260398</ele>
        <time>2021-05-26T21:07:50.427Z</time>
      </trkpt>
      <trkpt lat="50.58994" lon="3.48564">
        <ele>45.534109</ele>
        <time>2021-05-26T21:08:04.151Z</time>
      </trkpt>
      <trkpt lat="50.5899" lon="3.48557">
        <ele>45.558321</ele>
        <time>2021-05-26T21:08:05.338Z</time>
      </trkpt>
      <trkpt lat="50.58978" lon="3.48539">
        <ele>45.628729</ele>
        <time>2021-05-26T21:08:09.069Z</time>
      </trkpt>
      <trkpt lat="50.58961" lon="3.48531">
        <ele>45.705378</ele>
        <time>2021-05-26T21:08:12.849Z</time>
      </trkpt>
      <trkpt lat="50.58958" lon="3.48534">
        <ele>45.721163</ele>
        <time>2021-05-26T21:08:13.648Z</time>
      </trkpt>
      <trkpt lat="50.58946" lon="3.48543">
        <ele>45.777288</ele>
        <time>2021-05-26T21:08:16.674Z</time>
      </trkpt>
      <trkpt lat="50.58934" lon="3.48558">
        <ele>45.842845</ele>
        <time>2021-05-26T21:08:20.025Z</time>
      </trkpt>
      <trkpt lat="50.58929" lon="3.48567">
        <ele>45.873458</ele>
        <time>2021-05-26T21:08:21.702Z</time>
      </trkpt>
      <trkpt lat="50.58923" lon="3.48586">
        <ele>45.954359</ele>
        <time>2021-05-26T21:08:24.896Z</time>
      </trkpt>
      <trkpt lat="50.58919" lon="3.48669">
        <ele>46.630073</ele>
        <time>2021-05-26T21:08:37.834Z</time>
      </trkpt>
      <trkpt lat="50.58924" lon="3.48695">
        <ele>46.846633</ele>
        <time>2021-05-26T21:08:42.358Z</time>
      </trkpt>
      <trkpt lat="50.5893" lon="3.4871">
        <ele>46.988104</ele>
        <time>2021-05-26T21:08:45.349Z</time>
      </trkpt>
      <trkpt lat="50.58911" lon="3.48742">
        <ele>47.330588</ele>
        <time>2021-05-26T21:08:52.406Z</time>
      </trkpt>
      <trkpt lat="50.58898" lon="3.48765">
        <ele>47.587321</ele>
        <time>2021-05-26T21:08:57.573Z</time>
      </trkpt>
      <trkpt lat="50.58876" lon="3.488">
        <ele>47.980066</ele>
        <time>2021-05-26T21:09:05.815Z</time>
      </trkpt>
      <trkpt lat="50.58869" lon="3.48814">
        <ele>48.131033</ele>
        <time>2021-05-26T21:09:08.738Z</time>
      </trkpt>
      <trkpt lat="50.58859" lon="3.48834">
        <ele>48.308755</ele>
        <time>2021-05-26T21:09:12.938Z</time>
      </trkpt>
      <trkpt lat="50.58847" lon="3.48855">
        <ele>48.504775</ele>
        <time>2021-05-26T21:09:17.371Z</time>
      </trkpt>
      <trkpt lat="50.58835" lon="3.48839">
        <ele>48.676061</ele>
        <time>2021-05-26T21:09:20.811Z</time>
      </trkpt>
      <trkpt lat="50.58813" lon="3.48812">
        <ele>48.978286</ele>
        <time>2021-05-26T21:09:26.333Z</time>
      </trkpt>
      <trkpt lat="50.58803" lon="3.48807">
        <ele>49.097764</ele>
        <time>2021-05-26T21:09:28.591Z</time>
      </trkpt>
      <trkpt lat="50.5871" lon="3.48796">
        <ele>50.113809</ele>
        <time>2021-05-26T21:09:45.851Z</time>
      </trkpt>
      <trkpt lat="50.58682" lon="3.48786">
        <ele>50.264439</ele>
        <time>2021-05-26T21:09:50.895Z</time>
      </trkpt>
      <trkpt lat="50.58665" lon="3.48769">
        <ele>50.347646</ele>
        <time>2021-05-26T21:09:54.188Z</time>
      </trkpt>
      <trkpt lat="50.58649" lon="3.48728">
        <ele>50.476305</ele>
        <time>2021-05-26T21:09:59.180Z</time>
      </trkpt>
      <trkpt lat="50.58634" lon="3.48585">
        <ele>50.858199</ele>
        <time>2021-05-26T21:10:13.628Z</time>
      </trkpt>
      <trkpt lat="50.58625" lon="3.48547">
        <ele>51.05748</ele>
        <time>2021-05-26T21:10:17.823Z</time>
      </trkpt>
      <trkpt lat="50.5859" lon="3.48481">
        <ele>51.672277</ele>
        <time>2021-05-26T21:10:27.144Z</time>
      </trkpt>
      <trkpt lat="50.58543" lon="3.4841">
        <ele>52.40908</ele>
        <time>2021-05-26T21:10:39.613Z</time>
      </trkpt>
      <trkpt lat="50.5853" lon="3.48404">
        <ele>52.555671</ele>
        <time>2021-05-26T21:10:42.236Z</time>
      </trkpt>
      <trkpt lat="50.5826" lon="3.484">
        <ele>58.131186</ele>
        <time>2021-05-26T21:11:46.516Z</time>
      </trkpt>
      <trkpt lat="50.58217" lon="3.48384">
        <ele>59.125506</ele>
        <time>2021-05-26T21:11:57.395Z</time>
      </trkpt>
      <trkpt lat="50.58057" lon="3.48288">
        <ele>62.426111</ele>
        <time>2021-05-26T21:12:37.709Z</time>
      </trkpt>
      <trkpt lat="50.57955" lon="3.48264">
        <ele>63.813807</ele>
        <time>2021-05-26T21:12:58.435Z</time>
      </trkpt>
      <trkpt lat="50.57903" lon="3.48269">
        <ele>63.594276</ele>
        <time>2021-05-26T21:13:06.496Z</time>
      </trkpt>
      <trkpt lat="50.57854" lon="3.48264">
        <ele>63.38487</ele>
        <time>2021-05-26T21:13:13.100Z</time>
      </trkpt>
      <trkpt lat="50.57835" lon="3.48271">
        <ele>63.305479</ele>
        <time>2021-05-26T21:13:15.584Z</time>
      </trkpt>
      <trkpt lat="50.57828" lon="3.48274">
        <ele>63.275209</ele>
        <time>2021-05-26T21:13:16.362Z</time>
      </trkpt>
      <trkpt lat="50.57614" lon="3.48354">
        <ele>59.704734</ele>
        <time>2021-05-26T21:13:40.877Z</time>
      </trkpt>
      <trkpt lat="50.57368" lon="3.48467">
        <ele>54.218397</ele>
        <time>2021-05-26T21:14:08.461Z</time>
      </trkpt>
      <trkpt lat="50.57343" lon="3.48486">
        <ele>53.658227</ele>
        <time>2021-05-26T21:14:11.522Z</time>
      </trkpt>
      <trkpt lat="50.57338" lon="3.48512">
        <ele>53.307977</ele>
        <time>2021-05-26T21:14:13.439Z</time>
      </trkpt>
      <trkpt lat="50.57355" lon="3.4881">
        <ele>50.682727</ele>
        <time>2021-05-26T21:14:35.359Z</time>
      </trkpt>
      <trkpt lat="50.57351" lon="3.48791">
        <ele>50.538549</ele>
        <time>2021-05-26T21:14:37.049Z</time>
      </trkpt>
      <trkpt lat="50.57308" lon="3.48672">
        <ele>50.105974</ele>
        <time>2021-05-26T21:14:49.665Z</time>
      </trkpt>
      <trkpt lat="50.57284" lon="3.48598">
        <ele>50.03882</ele>
        <time>2021-05-26T21:14:57.902Z</time>
      </trkpt>
      <trkpt lat="50.57263" lon="3.48501">
        <ele>49.957194</ele>
        <time>2021-05-26T21:15:07.348Z</time>
      </trkpt>
      <trkpt lat="50.57252" lon="3.48448">
        <ele>49.68383</ele>
        <time>2021-05-26T21:15:12.203Z</time>
      </trkpt>
      <trkpt lat="50.57246" lon="3.48417">
        <ele>49.492554</ele>
        <time>2021-05-26T21:15:14.889Z</time>
      </trkpt>
      <trkpt lat="50.5724" lon="3.48391">
        <ele>49.332056</ele>
        <time>2021-05-26T21:15:17.163Z</time>
      </trkpt>
      <trkpt lat="50.57235" lon="3.48362">
        <ele>49.155906</ele>
        <time>2021-05-26T21:15:19.531Z</time>
      </trkpt>
      <trkpt lat="50.57191" lon="3.48156">
        <ele>47.917636</ele>
        <time>2021-05-26T21:15:35.779Z</time>
      </trkpt>
      <trkpt lat="50.57179" lon="3.48099">
        <ele>47.592924</ele>
        <time>2021-05-26T21:15:40.503Z</time>
      </trkpt>
      <trkpt lat="50.57175" lon="3.4809">
        <ele>47.530623</ele>
        <time>2021-05-26T21:15:41.321Z</time>
      </trkpt>
      <trkpt lat="50.57171" lon="3.48065">
        <ele>47.394872</ele>
        <time>2021-05-26T21:15:43.482Z</time>
      </trkpt>
      <trkpt lat="50.57133" lon="3.47873">
        <ele>46.663563</ele>
        <time>2021-05-26T21:16:00.453Z</time>
      </trkpt>
      <trkpt lat="50.57106" lon="3.47799">
        <ele>46.55535</ele>
        <time>2021-05-26T21:16:08.708Z</time>
      </trkpt>
      <trkpt lat="50.57079" lon="3.47757">
        <ele>46.479265</ele>
        <time>2021-05-26T21:16:14.342Z</time>
      </trkpt>
      <trkpt lat="50.5702" lon="3.47684">
        <ele>46.156926</ele>
        <time>2021-05-26T21:16:24.988Z</time>
      </trkpt>
      <trkpt lat="50.57008" lon="3.47669">
        <ele>46.061388</ele>
        <time>2021-05-26T21:16:26.928Z</time>
      </trkpt>
      <trkpt lat="50.56963" lon="3.47614">
        <ele>45.701638</ele>
        <time>2021-05-26T21:16:34.561Z</time>
      </trkpt>
      <trkpt lat="50.56943" lon="3.476">
        <ele>45.564941</ele>
        <time>2021-05-26T21:16:37.167Z</time>
      </trkpt>
      <trkpt lat="50.569" lon="3.47571">
        <ele>45.267799</ele>
        <time>2021-05-26T21:16:42.911Z</time>
      </trkpt>
      <trkpt lat="50.56882" lon="3.47565">
        <ele>45.092815</ele>
        <time>2021-05-26T21:16:45.080Z</time>
      </trkpt>
      <trkpt lat="50.56838" lon="3.47544">
        <ele>44.659691</ele>
        <time>2021-05-26T21:16:50.673Z</time>
      </trkpt>
      <trkpt lat="50.5682" lon="3.47528">
        <ele>44.463614</ele>
        <time>2021-05-26T21:16:53.272Z</time>
      </trkpt>
      <trkpt lat="50.56815" lon="3.47518">
        <ele>44.386767</ele>
        <time>2021-05-26T21:16:54.179Z</time>
      </trkpt>
      <trkpt lat="50.56812" lon="3.47507">
        <ele>44.310474</ele>
        <time>2021-05-26T21:16:55.229Z</time>
      </trkpt>
      <trkpt lat="50.56807" lon="3.47489">
        <ele>44.193673</ele>
        <time>2021-05-26T21:16:56.785Z</time>
      </trkpt>
      <trkpt lat="50.56774" lon="3.47365">
        <ele>43.495271</ele>
        <time>2021-05-26T21:17:07.391Z</time>
      </trkpt>
      <trkpt lat="50.56769" lon="3.47349">
        <ele>43.447066</ele>
        <time>2021-05-26T21:17:08.852Z</time>
      </trkpt>
      <trkpt lat="50.56732" lon="3.47191">
        <ele>42.986341</ele>
        <time>2021-05-26T21:17:23.469Z</time>
      </trkpt>
      <trkpt lat="50.56742" lon="3.47048">
        <ele>42.520222</ele>
        <time>2021-05-26T21:17:36.363Z</time>
      </trkpt>
      <trkpt lat="50.56742" lon="3.46947">
        <ele>42.15584</ele>
        <time>2021-05-26T21:17:44.863Z</time>
      </trkpt>
      <trkpt lat="50.56717" lon="3.46782">
        <ele>41.474432</ele>
        <time>2021-05-26T21:17:58.295Z</time>
      </trkpt>
      <trkpt lat="50.56713" lon="3.46753">
        <ele>41.336576</ele>
        <time>2021-05-26T21:18:00.561Z</time>
      </trkpt>
      <trkpt lat="50.56699" lon="3.46663">
        <ele>40.911675</ele>
        <time>2021-05-26T21:18:07.946Z</time>
      </trkpt>
      <trkpt lat="50.56694" lon="3.46624">
        <ele>40.723651</ele>
        <time>2021-05-26T21:18:11.234Z</time>
      </trkpt>
      <trkpt lat="50.56691" lon="3.4661">
        <ele>40.657923</ele>
        <time>2021-05-26T21:18:12.503Z</time>
      </trkpt>
      <trkpt lat="50.56689" lon="3.46595">
        <ele>40.588319</ele>
        <time>2021-05-26T21:18:13.710Z</time>
      </trkpt>
      <trkpt lat="50.56686" lon="3.46567">
        <ele>40.479168</ele>
        <time>2021-05-26T21:18:16.196Z</time>
      </trkpt>
      <trkpt lat="50.5668" lon="3.46522">
        <ele>40.513976</ele>
        <time>2021-05-26T21:18:20.303Z</time>
      </trkpt>
      <trkpt lat="50.56675" lon="3.46474">
        <ele>40.55094</ele>
        <time>2021-05-26T21:18:25.021Z</time>
      </trkpt>
      <trkpt lat="50.56671" lon="3.46437">
        <ele>40.579165</ele>
        <time>2021-05-26T21:18:28.672Z</time>
      </trkpt>
      <trkpt lat="50.56668" lon="3.46401">
        <ele>40.607389</ele>
        <time>2021-05-26T21:18:32.252Z</time>
      </trkpt>
      <trkpt lat="50.56664" lon="3.46351">
        <ele>40.644921</ele>
        <time>2021-05-26T21:18:37.590Z</time>
      </trkpt>
      <trkpt lat="50.56661" lon="3.46326">
        <ele>40.664641</ele>
        <time>2021-05-26T21:18:40.488Z</time>
      </trkpt>
      <trkpt lat="50.5666" lon="3.46305">
        <ele>40.680368</ele>
        <time>2021-05-26T21:18:42.626Z</time>
      </trkpt>
      <trkpt lat="50.56659" lon="3.46275">
        <ele>40.671558</ele>
        <time>2021-05-26T21:18:45.793Z</time>
      </trkpt>
      <trkpt lat="50.56659" lon="3.46263">
        <ele>40.656385</ele>
        <time>2021-05-26T21:18:47.066Z</time>
      </trkpt>
      <trkpt lat="50.56658" lon="3.46245">
        <ele>40.635164</ele>
        <time>2021-05-26T21:18:48.829Z</time>
      </trkpt>
      <trkpt lat="50.56658" lon="3.46212">
        <ele>40.59597</ele>
        <time>2021-05-26T21:18:52.224Z</time>
      </trkpt>
      <trkpt lat="50.56658" lon="3.46128">
        <ele>40.49735</ele>
        <time>2021-05-26T21:18:59.984Z</time>
      </trkpt>
      <trkpt lat="50.5666" lon="3.46104">
        <ele>40.467873</ele>
        <time>2021-05-26T21:19:02.267Z</time>
      </trkpt>
      <trkpt lat="50.56665" lon="3.46009">
        <ele>40.355778</ele>
        <time>2021-05-26T21:19:10.032Z</time>
      </trkpt>
      <trkpt lat="50.5668" lon="3.45879">
        <ele>39.605296</ele>
        <time>2021-05-26T21:19:20.545Z</time>
      </trkpt>
      <trkpt lat="50.56703" lon="3.45751">
        <ele>38.840212</ele>
        <time>2021-05-26T21:19:30.895Z</time>
      </trkpt>
      <trkpt lat="50.56729" lon="3.45649">
        <ele>38.321041</ele>
        <time>2021-05-26T21:19:39.519Z</time>
      </trkpt>
      <trkpt lat="50.5676" lon="3.4556">
        <ele>37.857611</ele>
        <time>2021-05-26T21:19:47.746Z</time>
      </trkpt>
      <trkpt lat="50.56801" lon="3.45471">
        <ele>37.409553</ele>
        <time>2021-05-26T21:19:56.954Z</time>
      </trkpt>
      <trkpt lat="50.56816" lon="3.45441">
        <ele>37.329857</ele>
        <time>2021-05-26T21:20:00.328Z</time>
      </trkpt>
      <trkpt lat="50.56902" lon="3.45289">
        <ele>36.911033</ele>
        <time>2021-05-26T21:20:18.414Z</time>
      </trkpt>
      <trkpt lat="50.56938" lon="3.45231">
        <ele>36.63828</ele>
        <time>2021-05-26T21:20:25.577Z</time>
      </trkpt>
      <trkpt lat="50.56981" lon="3.45174">
        <ele>36.302051</ele>
        <time>2021-05-26T21:20:33.054Z</time>
      </trkpt>
      <trkpt lat="50.57124" lon="3.45032">
        <ele>34.936011</ele>
        <time>2021-05-26T21:20:54.189Z</time>
      </trkpt>
      <trkpt lat="50.57171" lon="3.44955">
        <ele>34.24242</ele>
        <time>2021-05-26T21:21:02.441Z</time>
      </trkpt>
      <trkpt lat="50.57181" lon="3.44928">
        <ele>34.033169</ele>
        <time>2021-05-26T21:21:04.874Z</time>
      </trkpt>
      <trkpt lat="50.5719" lon="3.44905">
        <ele>33.72128</ele>
        <time>2021-05-26T21:21:06.965Z</time>
      </trkpt>
      <trkpt lat="50.57198" lon="3.44879">
        <ele>33.2073</ele>
        <time>2021-05-26T21:21:09.192Z</time>
      </trkpt>
      <trkpt lat="50.57205" lon="3.4484">
        <ele>32.497316</ele>
        <time>2021-05-26T21:21:12.118Z</time>
      </trkpt>
      <trkpt lat="50.57218" lon="3.44657">
        <ele>29.295254</ele>
        <time>2021-05-26T21:21:24.015Z</time>
      </trkpt>
      <trkpt lat="50.57221" lon="3.44621">
        <ele>28.558757</ele>
        <time>2021-05-26T21:21:26.252Z</time>
      </trkpt>
      <trkpt lat="50.57225" lon="3.44559">
        <ele>27.120218</ele>
        <time>2021-05-26T21:21:30.096Z</time>
      </trkpt>
      <trkpt lat="50.57228" lon="3.44525">
        <ele>26.314846</ele>
        <time>2021-05-26T21:21:32.221Z</time>
      </trkpt>
      <trkpt lat="50.57238" lon="3.44444">
        <ele>24.403455</ele>
        <time>2021-05-26T21:21:37.458Z</time>
      </trkpt>
      <trkpt lat="50.57241" lon="3.44436">
        <ele>24.201627</ele>
        <time>2021-05-26T21:21:37.956Z</time>
      </trkpt>
      <trkpt lat="50.57243" lon="3.44435">
        <ele>24.112397</ele>
        <time>2021-05-26T21:21:38.176Z</time>
      </trkpt>
      <trkpt lat="50.57249" lon="3.44428">
        <ele>23.840547</ele>
        <time>2021-05-26T21:21:38.984Z</time>
      </trkpt>
      <trkpt lat="50.57252" lon="3.44422">
        <ele>23.664806</ele>
        <time>2021-05-26T21:21:39.462Z</time>
      </trkpt>
      <trkpt lat="50.57254" lon="3.44419">
        <ele>23.569175</ele>
        <time>2021-05-26T21:21:39.714Z</time>
      </trkpt>
      <trkpt lat="50.57255" lon="3.44396">
        <ele>23.033775</ele>
        <time>2021-05-26T21:21:41.239Z</time>
      </trkpt>
      <trkpt lat="50.57252" lon="3.44385">
        <ele>22.762098</ele>
        <time>2021-05-26T21:21:41.927Z</time>
      </trkpt>
      <trkpt lat="50.57246" lon="3.44377">
        <ele>22.490208</ele>
        <time>2021-05-26T21:21:42.785Z</time>
      </trkpt>
      <trkpt lat="50.57232" lon="3.44371">
        <ele>22.273088</ele>
        <time>2021-05-26T21:21:44.365Z</time>
      </trkpt>
      <trkpt lat="50.57221" lon="3.44378">
        <ele>22.107635</ele>
        <time>2021-05-26T21:21:45.520Z</time>
      </trkpt>
      <trkpt lat="50.57217" lon="3.44385">
        <ele>22.015214</ele>
        <time>2021-05-26T21:21:46.387Z</time>
      </trkpt>
      <trkpt lat="50.57202" lon="3.44368">
        <ele>21.755771</ele>
        <time>2021-05-26T21:21:48.606Z</time>
      </trkpt>
      <trkpt lat="50.57126" lon="3.44364">
        <ele>20.715373</ele>
        <time>2021-05-26T21:21:57.504Z</time>
      </trkpt>
      <trkpt lat="50.5707" lon="3.44371">
        <ele>19.989283</ele>
        <time>2021-05-26T21:22:05.521Z</time>
      </trkpt>
      <trkpt lat="50.57047" lon="3.44376">
        <ele>20.031327</ele>
        <time>2021-05-26T21:22:08.685Z</time>
      </trkpt>
      <trkpt lat="50.57037" lon="3.44381">
        <ele>20.050144</ele>
        <time>2021-05-26T21:22:10.108Z</time>
      </trkpt>
      <trkpt lat="50.56976" lon="3.44409">
        <ele>20.16331</ele>
        <time>2021-05-26T21:22:18.894Z</time>
      </trkpt>
      <trkpt lat="50.56944" lon="3.44418">
        <ele>20.221094</ele>
        <time>2021-05-26T21:22:24.108Z</time>
      </trkpt>
      <trkpt lat="50.56916" lon="3.44427">
        <ele>20.270724</ele>
        <time>2021-05-26T21:22:29.075Z</time>
      </trkpt>
      <trkpt lat="50.56893" lon="3.44434">
        <ele>20.431899</ele>
        <time>2021-05-26T21:22:33.602Z</time>
      </trkpt>
      <trkpt lat="50.56885" lon="3.44439">
        <ele>20.636292</ele>
        <time>2021-05-26T21:22:35.234Z</time>
      </trkpt>
      <trkpt lat="50.56874" lon="3.4445">
        <ele>20.953001</ele>
        <time>2021-05-26T21:22:38.305Z</time>
      </trkpt>
      <trkpt lat="50.56851" lon="3.44472">
        <ele>21.59973</ele>
        <time>2021-05-26T21:22:43.673Z</time>
      </trkpt>
      <trkpt lat="50.56856" lon="3.44507">
        <ele>22.152192</ele>
        <time>2021-05-26T21:22:50.207Z</time>
      </trkpt>
      <trkpt lat="50.56859" lon="3.44525">
        <ele>22.431165</ele>
        <time>2021-05-26T21:22:53.253Z</time>
      </trkpt>
      <trkpt lat="50.56859" lon="3.44529">
        <ele>22.497792</ele>
        <time>2021-05-26T21:22:53.981Z</time>
      </trkpt>
      <trkpt lat="50.56858" lon="3.44558">
        <ele>22.944245</ele>
        <time>2021-05-26T21:22:59.547Z</time>
      </trkpt>
      <trkpt lat="50.56849" lon="3.44609">
        <ele>23.748767</ele>
        <time>2021-05-26T21:23:10.246Z</time>
      </trkpt>
      <trkpt lat="50.5684" lon="3.44623">
        <ele>24.046799</ele>
        <time>2021-05-26T21:23:14.265Z</time>
      </trkpt>
      <trkpt lat="50.56838" lon="3.44627">
        <ele>24.131818</ele>
        <time>2021-05-26T21:23:15.532Z</time>
      </trkpt>
      <trkpt lat="50.56839" lon="3.44628">
        <ele>24.161847</ele>
        <time>2021-05-26T21:23:15.908Z</time>
      </trkpt>
      <trkpt lat="50.56839" lon="3.44632">
        <ele>24.220391</ele>
        <time>2021-05-26T21:23:16.646Z</time>
      </trkpt>
      <trkpt lat="50.56839" lon="3.4464">
        <ele>24.338497</ele>
        <time>2021-05-26T21:23:18.516Z</time>
      </trkpt>
      <trkpt lat="50.56808" lon="3.44779">
        <ele>27.875299</ele>
        <time>2021-05-26T21:23:48.150Z</time>
      </trkpt>
      <trkpt lat="50.56806" lon="3.44794">
        <ele>28.271853</ele>
        <time>2021-05-26T21:23:51.577Z</time>
      </trkpt>
      <trkpt lat="50.568" lon="3.44821">
        <ele>29.000902</ele>
        <time>2021-05-26T21:23:57.186Z</time>
      </trkpt>
      <trkpt lat="50.56797" lon="3.44836">
        <ele>29.388443</ele>
        <time>2021-05-26T21:24:00.046Z</time>
      </trkpt>
      <trkpt lat="50.56785" lon="3.44894">
        <ele>30.949603</ele>
        <time>2021-05-26T21:24:11.906Z</time>
      </trkpt>
      <trkpt lat="50.56777" lon="3.44929">
        <ele>31.880458</ele>
        <time>2021-05-26T21:24:18.971Z</time>
      </trkpt>
      <trkpt lat="50.56772" lon="3.44953">
        <ele>32.334682</ele>
        <time>2021-05-26T21:24:23.961Z</time>
      </trkpt>
      <trkpt lat="50.56772" lon="3.4497">
        <ele>32.658594</ele>
        <time>2021-05-26T21:24:27.274Z</time>
      </trkpt>
      <trkpt lat="50.56771" lon="3.44976">
        <ele>32.758963</ele>
        <time>2021-05-26T21:24:28.263Z</time>
      </trkpt>
      <trkpt lat="50.5677" lon="3.44998">
        <ele>33.179031</ele>
        <time>2021-05-26T21:24:32.603Z</time>
      </trkpt>
      <trkpt lat="50.56768" lon="3.45008">
        <ele>33.370203</ele>
        <time>2021-05-26T21:24:34.750Z</time>
      </trkpt>
      <trkpt lat="50.56753" lon="3.45073">
        <ele>34.624965</ele>
        <time>2021-05-26T21:24:47.284Z</time>
      </trkpt>
      <trkpt lat="50.56742" lon="3.45119">
        <ele>35.536966</ele>
        <time>2021-05-26T21:24:55.411Z</time>
      </trkpt>
      <trkpt lat="50.56736" lon="3.45141">
        <ele>35.97972</ele>
        <time>2021-05-26T21:24:59.308Z</time>
      </trkpt>
      <trkpt lat="50.56734" lon="3.4516">
        <ele>36.339388</ele>
        <time>2021-05-26T21:25:02.127Z</time>
      </trkpt>
      <trkpt lat="50.56726" lon="3.45246">
        <ele>37.407534</ele>
        <time>2021-05-26T21:25:12.589Z</time>
      </trkpt>
      <trkpt lat="50.56725" lon="3.45255">
        <ele>37.478693</ele>
        <time>2021-05-26T21:25:14.029Z</time>
      </trkpt>
      <trkpt lat="50.56721" lon="3.45288">
        <ele>37.731057</ele>
        <time>2021-05-26T21:25:18.028Z</time>
      </trkpt>
      <trkpt lat="50.56717" lon="3.45305">
        <ele>37.868265</ele>
        <time>2021-05-26T21:25:20.308Z</time>
      </trkpt>
      <trkpt lat="50.56692" lon="3.45358">
        <ele>38.362077</ele>
        <time>2021-05-26T21:25:28.724Z</time>
      </trkpt>
      <trkpt lat="50.56687" lon="3.45375">
        <ele>38.498842</ele>
        <time>2021-05-26T21:25:31.093Z</time>
      </trkpt>
      <trkpt lat="50.56678" lon="3.45402">
        <ele>38.733229</ele>
        <time>2021-05-26T21:25:34.763Z</time>
      </trkpt>
      <trkpt lat="50.56672" lon="3.45419">
        <ele>38.871079</ele>
        <time>2021-05-26T21:25:36.918Z</time>
      </trkpt>
      <trkpt lat="50.56666" lon="3.45446">
        <ele>39.091803</ele>
        <time>2021-05-26T21:25:40.280Z</time>
      </trkpt>
      <trkpt lat="50.56661" lon="3.45471">
        <ele>39.234278</ele>
        <time>2021-05-26T21:25:44.431Z</time>
      </trkpt>
      <trkpt lat="50.56653" lon="3.45477">
        <ele>39.289915</ele>
        <time>2021-05-26T21:25:46.620Z</time>
      </trkpt>
      <trkpt lat="50.56627" lon="3.45504">
        <ele>39.477607</ele>
        <time>2021-05-26T21:25:53.473Z</time>
      </trkpt>
      <trkpt lat="50.56598" lon="3.45542">
        <ele>39.715311</ele>
        <time>2021-05-26T21:26:02.228Z</time>
      </trkpt>
      <trkpt lat="50.56555" lon="3.45587">
        <ele>40.036605</ele>
        <time>2021-05-26T21:26:14.130Z</time>
      </trkpt>
      <trkpt lat="50.56503" lon="3.45627">
        <ele>40.129888</ele>
        <time>2021-05-26T21:26:26.965Z</time>
      </trkpt>
      <trkpt lat="50.56434" lon="3.45663">
        <ele>39.421301</ele>
        <time>2021-05-26T21:26:41.025Z</time>
      </trkpt>
      <trkpt lat="50.56377" lon="3.45679">
        <ele>38.861258</ele>
        <time>2021-05-26T21:26:50.471Z</time>
      </trkpt>
      <trkpt lat="50.56276" lon="3.45672">
        <ele>36.6284</ele>
        <time>2021-05-26T21:27:06.009Z</time>
      </trkpt>
      <trkpt lat="50.56271" lon="3.45671">
        <ele>36.490898</ele>
        <time>2021-05-26T21:27:06.681Z</time>
      </trkpt>
      <trkpt lat="50.56242" lon="3.45665">
        <ele>35.677378</ele>
        <time>2021-05-26T21:27:11.084Z</time>
      </trkpt>
      <trkpt lat="50.56219" lon="3.45658">
        <ele>35.024086</ele>
        <time>2021-05-26T21:27:14.495Z</time>
      </trkpt>
      <trkpt lat="50.56192" lon="3.45645">
        <ele>34.238716</ele>
        <time>2021-05-26T21:27:18.676Z</time>
      </trkpt>
      <trkpt lat="50.56183" lon="3.45645">
        <ele>33.993511</ele>
        <time>2021-05-26T21:27:19.917Z</time>
      </trkpt>
      <trkpt lat="50.56113" lon="3.45588">
        <ele>31.82797</ele>
        <time>2021-05-26T21:27:31.340Z</time>
      </trkpt>
      <trkpt lat="50.56036" lon="3.45499">
        <ele>29.213739</ele>
        <time>2021-05-26T21:27:45.687Z</time>
      </trkpt>
      <trkpt lat="50.55983" lon="3.45415">
        <ele>27.6237</ele>
        <time>2021-05-26T21:27:57.683Z</time>
      </trkpt>
      <trkpt lat="50.55944" lon="3.45341">
        <ele>26.504289</ele>
        <time>2021-05-26T21:28:07.582Z</time>
      </trkpt>
      <trkpt lat="50.55884" lon="3.45227">
        <ele>24.90399</ele>
        <time>2021-05-26T21:28:22.728Z</time>
      </trkpt>
      <trkpt lat="50.55881" lon="3.45224">
        <ele>24.85623</ele>
        <time>2021-05-26T21:28:23.313Z</time>
      </trkpt>
      <trkpt lat="50.55864" lon="3.45204">
        <ele>24.557552</ele>
        <time>2021-05-26T21:28:26.740Z</time>
      </trkpt>
      <trkpt lat="50.55848" lon="3.45168">
        <ele>24.162898</ele>
        <time>2021-05-26T21:28:31.380Z</time>
      </trkpt>
      <trkpt lat="50.55834" lon="3.45138">
        <ele>23.827996</ele>
        <time>2021-05-26T21:28:35.329Z</time>
      </trkpt>
      <trkpt lat="50.55822" lon="3.4511">
        <ele>23.529234</ele>
        <time>2021-05-26T21:28:38.759Z</time>
      </trkpt>
      <trkpt lat="50.55491" lon="3.44473">
        <ele>18.420061</ele>
        <time>2021-05-26T21:30:09.560Z</time>
      </trkpt>
      <trkpt lat="50.55466" lon="3.44422">
        <ele>18.162728</ele>
        <time>2021-05-26T21:30:17.336Z</time>
      </trkpt>
      <trkpt lat="50.55321" lon="3.44143">
        <ele>18.741704</ele>
        <time>2021-05-26T21:31:06.409Z</time>
      </trkpt>
      <trkpt lat="50.55314" lon="3.4413">
        <ele>18.848102</ele>
        <time>2021-05-26T21:31:09.135Z</time>
      </trkpt>
      <trkpt lat="50.55219" lon="3.43942">
        <ele>20.243904</ele>
        <time>2021-05-26T21:31:47.465Z</time>
      </trkpt>
      <trkpt lat="50.55205" lon="3.43912">
        <ele>20.089031</ele>
        <time>2021-05-26T21:31:53.051Z</time>
      </trkpt>
      <trkpt lat="50.55178" lon="3.43855">
        <ele>19.789991</ele>
        <time>2021-05-26T21:32:02.300Z</time>
      </trkpt>
      <trkpt lat="50.55131" lon="3.43732">
        <ele>19.184163</ele>
        <time>2021-05-26T21:32:17.693Z</time>
      </trkpt>
      <trkpt lat="50.55118" lon="3.43698">
        <ele>18.94396</ele>
        <time>2021-05-26T21:32:21.548Z</time>
      </trkpt>
      <trkpt lat="50.55079" lon="3.43585">
        <ele>17.663565</ele>
        <time>2021-05-26T21:32:34.542Z</time>
      </trkpt>
      <trkpt lat="50.55077" lon="3.43577">
        <ele>17.575202</ele>
        <time>2021-05-26T21:32:35.426Z</time>
      </trkpt>
      <trkpt lat="50.55069" lon="3.43555">
        <ele>17.323462</ele>
        <time>2021-05-26T21:32:37.965Z</time>
      </trkpt>
      <trkpt lat="50.55044" lon="3.43487">
        <ele>16.540266</ele>
        <time>2021-05-26T21:32:54.275Z</time>
      </trkpt>
      <trkpt lat="50.55034" lon="3.43459">
        <ele>16.264843</ele>
        <time>2021-05-26T21:32:57.771Z</time>
      </trkpt>
      <trkpt lat="50.55007" lon="3.43383">
        <ele>16.353125</ele>
        <time>2021-05-26T21:33:08.202Z</time>
      </trkpt>
      <trkpt lat="50.54996" lon="3.43353">
        <ele>16.388672</ele>
        <time>2021-05-26T21:33:12.833Z</time>
      </trkpt>
      <trkpt lat="50.54986" lon="3.43325">
        <ele>16.42123</ele>
        <time>2021-05-26T21:33:17.475Z</time>
      </trkpt>
      <trkpt lat="50.5496" lon="3.4324">
        <ele>16.51732</ele>
        <time>2021-05-26T21:33:31.376Z</time>
      </trkpt>
      <trkpt lat="50.54933" lon="3.43129">
        <ele>16.937293</ele>
        <time>2021-05-26T21:33:49.231Z</time>
      </trkpt>
      <trkpt lat="50.54919" lon="3.43042">
        <ele>17.329083</ele>
        <time>2021-05-26T21:34:02.210Z</time>
      </trkpt>
      <trkpt lat="50.54916" lon="3.43027">
        <ele>17.399764</ele>
        <time>2021-05-26T21:34:04.632Z</time>
      </trkpt>
      <trkpt lat="50.54917" lon="3.43024">
        <ele>17.419509</ele>
        <time>2021-05-26T21:34:05.284Z</time>
      </trkpt>
      <trkpt lat="50.5493" lon="3.4301">
        <ele>17.526355</ele>
        <time>2021-05-26T21:34:08.736Z</time>
      </trkpt>
      <trkpt lat="50.5493" lon="3.43007">
        <ele>17.54189</ele>
        <time>2021-05-26T21:34:09.222Z</time>
      </trkpt>
      <trkpt lat="50.54928" lon="3.42995">
        <ele>17.59276</ele>
        <time>2021-05-26T21:34:10.881Z</time>
      </trkpt>
      <trkpt lat="50.54928" lon="3.42989">
        <ele>17.620048</ele>
        <time>2021-05-26T21:34:11.829Z</time>
      </trkpt>
      <trkpt lat="50.54927" lon="3.42986">
        <ele>17.635271</ele>
        <time>2021-05-26T21:34:12.367Z</time>
      </trkpt>
      <trkpt lat="50.54924" lon="3.42982">
        <ele>17.66391</ele>
        <time>2021-05-26T21:34:13.338Z</time>
      </trkpt>
      <trkpt lat="50.54892" lon="3.42968">
        <ele>17.87463</ele>
        <time>2021-05-26T21:34:20.795Z</time>
      </trkpt>
      <trkpt lat="50.54884" lon="3.42963">
        <ele>17.92198</ele>
        <time>2021-05-26T21:34:22.640Z</time>
      </trkpt>
      <trkpt lat="50.54883" lon="3.42959">
        <ele>17.937636</ele>
        <time>2021-05-26T21:34:23.359Z</time>
      </trkpt>
      <trkpt lat="50.54868" lon="3.42915">
        <ele>18.111963</ele>
        <time>2021-05-26T21:34:30.360Z</time>
      </trkpt>
      <trkpt lat="50.54852" lon="3.42894">
        <ele>18.230016</ele>
        <time>2021-05-26T21:34:35.038Z</time>
      </trkpt>
      <trkpt lat="50.54834" lon="3.42842">
        <ele>18.435715</ele>
        <time>2021-05-26T21:34:43.413Z</time>
      </trkpt>
      <trkpt lat="50.54829" lon="3.42835">
        <ele>18.472838</ele>
        <time>2021-05-26T21:34:45.023Z</time>
      </trkpt>
      <trkpt lat="50.54825" lon="3.42831">
        <ele>18.4984</ele>
        <time>2021-05-26T21:34:46.014Z</time>
      </trkpt>
      <trkpt lat="50.54812" lon="3.4282">
        <ele>18.577646</ele>
        <time>2021-05-26T21:34:49.273Z</time>
      </trkpt>
      <trkpt lat="50.54808" lon="3.4282">
        <ele>18.604107</ele>
        <time>2021-05-26T21:34:50.251Z</time>
      </trkpt>
      <trkpt lat="50.54805" lon="3.42825">
        <ele>18.626825</ele>
        <time>2021-05-26T21:34:51.113Z</time>
      </trkpt>
      <trkpt lat="50.54803" lon="3.42821">
        <ele>18.647604</ele>
        <time>2021-05-26T21:34:51.825Z</time>
      </trkpt>
      <trkpt lat="50.54727" lon="3.42699">
        <ele>19.321085</ele>
        <time>2021-05-26T21:35:10.552Z</time>
      </trkpt>
      <trkpt lat="50.54666" lon="3.42642">
        <ele>19.777083</ele>
        <time>2021-05-26T21:35:23.131Z</time>
      </trkpt>
      <trkpt lat="50.54574" lon="3.42585">
        <ele>20.205662</ele>
        <time>2021-05-26T21:35:40.371Z</time>
      </trkpt>
      <trkpt lat="50.5447" lon="3.42541">
        <ele>20.588689</ele>
        <time>2021-05-26T21:35:57.572Z</time>
      </trkpt>
      <trkpt lat="50.5441" lon="3.42516">
        <ele>20.336576</ele>
        <time>2021-05-26T21:36:06.343Z</time>
      </trkpt>
      <trkpt lat="50.5424" lon="3.42433">
        <ele>19.56734</ele>
        <time>2021-05-26T21:36:29.297Z</time>
      </trkpt>
      <trkpt lat="50.54235" lon="3.42431">
        <ele>19.539756</ele>
        <time>2021-05-26T21:36:29.985Z</time>
      </trkpt>
      <trkpt lat="50.54233" lon="3.42428">
        <ele>19.526482</ele>
        <time>2021-05-26T21:36:30.274Z</time>
      </trkpt>
      <trkpt lat="50.54078" lon="3.4237">
        <ele>19.161219</ele>
        <time>2021-05-26T21:36:52.143Z</time>
      </trkpt>
      <trkpt lat="50.53973" lon="3.42348">
        <ele>19.527864</ele>
        <time>2021-05-26T21:37:10.213Z</time>
      </trkpt>
      <trkpt lat="50.53968" lon="3.42348">
        <ele>19.544093</ele>
        <time>2021-05-26T21:37:11.181Z</time>
      </trkpt>
      <trkpt lat="50.53965" lon="3.42346">
        <ele>19.556825</ele>
        <time>2021-05-26T21:37:11.967Z</time>
      </trkpt>
      <trkpt lat="50.53907" lon="3.42331">
        <ele>19.909558</ele>
        <time>2021-05-26T21:37:22.073Z</time>
      </trkpt>
      <trkpt lat="50.53826" lon="3.42315">
        <ele>20.49347</ele>
        <time>2021-05-26T21:37:36.852Z</time>
      </trkpt>
      <trkpt lat="50.53725" lon="3.42291">
        <ele>21.266154</ele>
        <time>2021-05-26T21:37:54.438Z</time>
      </trkpt>
      <trkpt lat="50.53576" lon="3.42263">
        <ele>22.625494</ele>
        <time>2021-05-26T21:38:21.910Z</time>
      </trkpt>
      <trkpt lat="50.53478" lon="3.42237">
        <ele>24.141788</ele>
        <time>2021-05-26T21:38:42.650Z</time>
      </trkpt>
      <trkpt lat="50.53342" lon="3.42208">
        <ele>26.181191</ele>
        <time>2021-05-26T21:39:13.159Z</time>
      </trkpt>
      <trkpt lat="50.53268" lon="3.42193">
        <ele>27.269537</ele>
        <time>2021-05-26T21:39:28.638Z</time>
      </trkpt>
      <trkpt lat="50.53265" lon="3.42192">
        <ele>27.31345</ele>
        <time>2021-05-26T21:39:29.226Z</time>
      </trkpt>
      <trkpt lat="50.53254" lon="3.42189">
        <ele>27.468414</ele>
        <time>2021-05-26T21:39:31.866Z</time>
      </trkpt>
      <trkpt lat="50.53217" lon="3.42181">
        <ele>27.794718</ele>
        <time>2021-05-26T21:39:40.990Z</time>
      </trkpt>
      <trkpt lat="50.5289" lon="3.42111">
        <ele>28.375789</ele>
        <time>2021-05-26T21:40:48.885Z</time>
      </trkpt>
      <trkpt lat="50.52836" lon="3.42099">
        <ele>28.396713</ele>
        <time>2021-05-26T21:40:59.827Z</time>
      </trkpt>
      <trkpt lat="50.52752" lon="3.4208">
        <ele>28.420843</ele>
        <time>2021-05-26T21:41:17.128Z</time>
      </trkpt>
      <trkpt lat="50.52597" lon="3.42045">
        <ele>28.316473</ele>
        <time>2021-05-26T21:41:49.285Z</time>
      </trkpt>
      <trkpt lat="50.52521" lon="3.42029">
        <ele>28.220609</ele>
        <time>2021-05-26T21:42:03.766Z</time>
      </trkpt>
      <trkpt lat="50.52437" lon="3.42011">
        <ele>27.612767</ele>
        <time>2021-05-26T21:42:19.477Z</time>
      </trkpt>
      <trkpt lat="50.52365" lon="3.41989">
        <ele>27.090066</ele>
        <time>2021-05-26T21:42:32.655Z</time>
      </trkpt>
      <trkpt lat="50.52283" lon="3.41973">
        <ele>26.176036</ele>
        <time>2021-05-26T21:42:46.862Z</time>
      </trkpt>
      <trkpt lat="50.52273" lon="3.41971">
        <ele>26.049746</ele>
        <time>2021-05-26T21:42:48.585Z</time>
      </trkpt>
      <trkpt lat="50.52246" lon="3.41966">
        <ele>25.716853</ele>
        <time>2021-05-26T21:42:53.206Z</time>
      </trkpt>
      <trkpt lat="50.52169" lon="3.4195">
        <ele>24.762174</ele>
        <time>2021-05-26T21:43:05.991Z</time>
      </trkpt>
      <trkpt lat="50.52105" lon="3.41935">
        <ele>24.217735</ele>
        <time>2021-05-26T21:43:16.944Z</time>
      </trkpt>
      <trkpt lat="50.52093" lon="3.41932">
        <ele>24.117493</ele>
        <time>2021-05-26T21:43:18.833Z</time>
      </trkpt>
      <trkpt lat="50.52079" lon="3.41929">
        <ele>24.001547</ele>
        <time>2021-05-26T21:43:21.314Z</time>
      </trkpt>
      <trkpt lat="50.52048" lon="3.41921">
        <ele>23.74354</ele>
        <time>2021-05-26T21:43:26.653Z</time>
      </trkpt>
      <trkpt lat="50.52017" lon="3.41913">
        <ele>23.481808</ele>
        <time>2021-05-26T21:43:32.519Z</time>
      </trkpt>
      <trkpt lat="50.51906" lon="3.41912">
        <ele>23.688791</ele>
        <time>2021-05-26T21:43:56.053Z</time>
      </trkpt>
      <trkpt lat="50.51886" lon="3.41916">
        <ele>23.793368</ele>
        <time>2021-05-26T21:44:00.468Z</time>
      </trkpt>
      <trkpt lat="50.5188" lon="3.41917">
        <ele>23.825416</ele>
        <time>2021-05-26T21:44:01.808Z</time>
      </trkpt>
      <trkpt lat="50.51872" lon="3.41918">
        <ele>23.86988</ele>
        <time>2021-05-26T21:44:03.979Z</time>
      </trkpt>
      <trkpt lat="50.51736" lon="3.41927">
        <ele>24.741145</ele>
        <time>2021-05-26T21:44:36.765Z</time>
      </trkpt>
      <trkpt lat="50.51727" lon="3.41926">
        <ele>24.809857</ele>
        <time>2021-05-26T21:44:39.199Z</time>
      </trkpt>
      <trkpt lat="50.51713" lon="3.41925">
        <ele>24.910321</ele>
        <time>2021-05-26T21:44:42.496Z</time>
      </trkpt>
      <trkpt lat="50.5151" lon="3.41926">
        <ele>25.610404</ele>
        <time>2021-05-26T21:45:26.765Z</time>
      </trkpt>
      <trkpt lat="50.51487" lon="3.41945">
        <ele>25.628155</ele>
        <time>2021-05-26T21:45:31.773Z</time>
      </trkpt>
      <trkpt lat="50.51481" lon="3.4195">
        <ele>25.632274</ele>
        <time>2021-05-26T21:45:32.893Z</time>
      </trkpt>
      <trkpt lat="50.51465" lon="3.41959">
        <ele>25.644156</ele>
        <time>2021-05-26T21:45:36.148Z</time>
      </trkpt>
      <trkpt lat="50.51437" lon="3.4197">
        <ele>25.487479</ele>
        <time>2021-05-26T21:45:41.518Z</time>
      </trkpt>
      <trkpt lat="50.51422" lon="3.41972">
        <ele>25.359843</ele>
        <time>2021-05-26T21:45:44.148Z</time>
      </trkpt>
      <trkpt lat="50.51384" lon="3.41976">
        <ele>25.021693</ele>
        <time>2021-05-26T21:45:51.037Z</time>
      </trkpt>
      <trkpt lat="50.51309" lon="3.41999">
        <ele>24.355666</ele>
        <time>2021-05-26T21:46:04.177Z</time>
      </trkpt>
      <trkpt lat="50.51218" lon="3.42052">
        <ele>23.475939</ele>
        <time>2021-05-26T21:46:21.012Z</time>
      </trkpt>
      <trkpt lat="50.51129" lon="3.42133">
        <ele>22.537052</ele>
        <time>2021-05-26T21:46:38.969Z</time>
      </trkpt>
      <trkpt lat="50.51068" lon="3.42217">
        <ele>21.935276</ele>
        <time>2021-05-26T21:46:53.423Z</time>
      </trkpt>
      <trkpt lat="50.5106" lon="3.42232">
        <ele>21.846542</ele>
        <time>2021-05-26T21:46:55.605Z</time>
      </trkpt>
      <trkpt lat="50.51046" lon="3.4226">
        <ele>21.68511</ele>
        <time>2021-05-26T21:46:59.722Z</time>
      </trkpt>
      <trkpt lat="50.5105" lon="3.42275">
        <ele>21.613688</ele>
        <time>2021-05-26T21:47:01.546Z</time>
      </trkpt>
      <trkpt lat="50.51038" lon="3.42282">
        <ele>21.524074</ele>
        <time>2021-05-26T21:47:03.121Z</time>
      </trkpt>
      <trkpt lat="50.51025" lon="3.42289">
        <ele>21.426016</ele>
        <time>2021-05-26T21:47:04.957Z</time>
      </trkpt>
      <trkpt lat="50.51021" lon="3.42292">
        <ele>21.394714</ele>
        <time>2021-05-26T21:47:05.527Z</time>
      </trkpt>
      <trkpt lat="50.51002" lon="3.42307">
        <ele>21.241302</ele>
        <time>2021-05-26T21:47:08.319Z</time>
      </trkpt>
      <trkpt lat="50.50987" lon="3.42321">
        <ele>21.129348</ele>
        <time>2021-05-26T21:47:10.573Z</time>
      </trkpt>
      <trkpt lat="50.50984" lon="3.42324">
        <ele>21.111027</ele>
        <time>2021-05-26T21:47:11.006Z</time>
      </trkpt>
      <trkpt lat="50.50931" lon="3.42378">
        <ele>20.789232</ele>
        <time>2021-05-26T21:47:19.466Z</time>
      </trkpt>
      <trkpt lat="50.50893" lon="3.42426">
        <ele>20.539469</ele>
        <time>2021-05-26T21:47:25.948Z</time>
      </trkpt>
      <trkpt lat="50.50684" lon="3.42741">
        <ele>19.111569</ele>
        <time>2021-05-26T21:48:04.674Z</time>
      </trkpt>
      <trkpt lat="50.50652" lon="3.4279">
        <ele>18.848662</ele>
        <time>2021-05-26T21:48:10.323Z</time>
      </trkpt>
      <trkpt lat="50.50633" lon="3.42818">
        <ele>18.695679</ele>
        <time>2021-05-26T21:48:13.515Z</time>
      </trkpt>
      <trkpt lat="50.50538" lon="3.42968">
        <ele>18.442978</ele>
        <time>2021-05-26T21:48:31.571Z</time>
      </trkpt>
      <trkpt lat="50.50529" lon="3.42984">
        <ele>18.461659</ele>
        <time>2021-05-26T21:48:33.482Z</time>
      </trkpt>
      <trkpt lat="50.50523" lon="3.42993">
        <ele>18.472823</ele>
        <time>2021-05-26T21:48:34.789Z</time>
      </trkpt>
      <trkpt lat="50.50517" lon="3.43003">
        <ele>18.485173</ele>
        <time>2021-05-26T21:48:36.552Z</time>
      </trkpt>
      <trkpt lat="50.50469" lon="3.43071">
        <ele>18.572744</ele>
        <time>2021-05-26T21:48:47.494Z</time>
      </trkpt>
      <trkpt lat="50.50406" lon="3.43154">
        <ele>19.282579</ele>
        <time>2021-05-26T21:49:02.757Z</time>
      </trkpt>
      <trkpt lat="50.50385" lon="3.43181">
        <ele>19.539791</ele>
        <time>2021-05-26T21:49:07.778Z</time>
      </trkpt>
      <trkpt lat="50.50376" lon="3.43191">
        <ele>19.645922</ele>
        <time>2021-05-26T21:49:09.933Z</time>
      </trkpt>
      <trkpt lat="50.50369" lon="3.43196">
        <ele>19.728155</ele>
        <time>2021-05-26T21:49:11.479Z</time>
      </trkpt>
      <trkpt lat="50.5036" lon="3.43202">
        <ele>19.815916</ele>
        <time>2021-05-26T21:49:13.190Z</time>
      </trkpt>
      <trkpt lat="50.50351" lon="3.432">
        <ele>19.911098</ele>
        <time>2021-05-26T21:49:15.103Z</time>
      </trkpt>
      <trkpt lat="50.50342" lon="3.432">
        <ele>19.991295</ele>
        <time>2021-05-26T21:49:16.723Z</time>
      </trkpt>
      <trkpt lat="50.50333" lon="3.43201">
        <ele>20.079915</ele>
        <time>2021-05-26T21:49:18.386Z</time>
      </trkpt>
      <trkpt lat="50.50323" lon="3.43204">
        <ele>20.180616</ele>
        <time>2021-05-26T21:49:20.355Z</time>
      </trkpt>
      <trkpt lat="50.50297" lon="3.43211">
        <ele>20.510636</ele>
        <time>2021-05-26T21:49:25.183Z</time>
      </trkpt>
      <trkpt lat="50.50292" lon="3.43213">
        <ele>20.605197</ele>
        <time>2021-05-26T21:49:26.210Z</time>
      </trkpt>
      <trkpt lat="50.50268" lon="3.43223">
        <ele>21.020799</ele>
        <time>2021-05-26T21:49:31.122Z</time>
      </trkpt>
      <trkpt lat="50.50204" lon="3.43255">
        <ele>22.164646</ele>
        <time>2021-05-26T21:49:45.343Z</time>
      </trkpt>
      <trkpt lat="50.50145" lon="3.43263">
        <ele>23.161096</ele>
        <time>2021-05-26T21:49:59.063Z</time>
      </trkpt>
      <trkpt lat="50.50139" lon="3.43264">
        <ele>23.267774</ele>
        <time>2021-05-26T21:50:00.769Z</time>
      </trkpt>
      <trkpt lat="50.50109" lon="3.43266">
        <ele>23.887777</ele>
        <time>2021-05-26T21:50:07.662Z</time>
      </trkpt>
      <trkpt lat="50.50048" lon="3.43272">
        <ele>25.258455</ele>
        <time>2021-05-26T21:50:22.525Z</time>
      </trkpt>
      <trkpt lat="50.50006" lon="3.43277">
        <ele>26.192429</ele>
        <time>2021-05-26T21:50:32.638Z</time>
      </trkpt>
      <trkpt lat="50.49982" lon="3.43285">
        <ele>26.747722</ele>
        <time>2021-05-26T21:50:38.805Z</time>
      </trkpt>
      <trkpt lat="50.49958" lon="3.43293">
        <ele>27.277905</ele>
        <time>2021-05-26T21:50:44.439Z</time>
      </trkpt>
      <trkpt lat="50.49883" lon="3.4333">
        <ele>28.209335</ele>
        <time>2021-05-26T21:51:01.571Z</time>
      </trkpt>
      <trkpt lat="50.49839" lon="3.43364">
        <ele>28.757936</ele>
        <time>2021-05-26T21:51:10.521Z</time>
      </trkpt>
      <trkpt lat="50.49777" lon="3.43415">
        <ele>29.353561</ele>
        <time>2021-05-26T21:51:22.445Z</time>
      </trkpt>
      <trkpt lat="50.49769" lon="3.43422">
        <ele>29.329801</ele>
        <time>2021-05-26T21:51:23.822Z</time>
      </trkpt>
      <trkpt lat="50.49756" lon="3.43431">
        <ele>29.291986</ele>
        <time>2021-05-26T21:51:26.142Z</time>
      </trkpt>
      <trkpt lat="50.49734" lon="3.43444">
        <ele>29.232202</ele>
        <time>2021-05-26T21:51:30.563Z</time>
      </trkpt>
      <trkpt lat="50.49652" lon="3.43489">
        <ele>29.00682</ele>
        <time>2021-05-26T21:51:46.849Z</time>
      </trkpt>
      <trkpt lat="50.49635" lon="3.435">
        <ele>28.957846</ele>
        <time>2021-05-26T21:51:50.239Z</time>
      </trkpt>
      <trkpt lat="50.49576" lon="3.43539">
        <ele>28.683712</ele>
        <time>2021-05-26T21:52:01.803Z</time>
      </trkpt>
      <trkpt lat="50.4956" lon="3.43546">
        <ele>28.603593</ele>
        <time>2021-05-26T21:52:04.030Z</time>
      </trkpt>
      <trkpt lat="50.49477" lon="3.43565">
        <ele>28.204438</ele>
        <time>2021-05-26T21:52:14.997Z</time>
      </trkpt>
      <trkpt lat="50.4929" lon="3.43541">
        <ele>27.632143</ele>
        <time>2021-05-26T21:52:41.546Z</time>
      </trkpt>
      <trkpt lat="50.49267" lon="3.43542">
        <ele>27.564726</ele>
        <time>2021-05-26T21:52:44.559Z</time>
      </trkpt>
      <trkpt lat="50.49218" lon="3.43548">
        <ele>27.167801</ele>
        <time>2021-05-26T21:52:51.151Z</time>
      </trkpt>
      <trkpt lat="50.49186" lon="3.4355">
        <ele>26.913626</ele>
        <time>2021-05-26T21:52:55.265Z</time>
      </trkpt>
      <trkpt lat="50.49169" lon="3.4355">
        <ele>26.774225</ele>
        <time>2021-05-26T21:52:57.475Z</time>
      </trkpt>
      <trkpt lat="50.4915" lon="3.43547">
        <ele>26.618203</ele>
        <time>2021-05-26T21:52:59.966Z</time>
      </trkpt>
      <trkpt lat="50.49135" lon="3.43542">
        <ele>26.501698</ele>
        <time>2021-05-26T21:53:01.773Z</time>
      </trkpt>
      <trkpt lat="50.49092" lon="3.43524">
        <ele>26.143013</ele>
        <time>2021-05-26T21:53:07.102Z</time>
      </trkpt>
      <trkpt lat="50.49043" lon="3.43502">
        <ele>25.29127</ele>
        <time>2021-05-26T21:53:13.011Z</time>
      </trkpt>
      <trkpt lat="50.48999" lon="3.43482">
        <ele>24.522121</ele>
        <time>2021-05-26T21:53:18.129Z</time>
      </trkpt>
      <trkpt lat="50.48969" lon="3.43467">
        <ele>24.001548</ele>
        <time>2021-05-26T21:53:21.494Z</time>
      </trkpt>
      <trkpt lat="50.48913" lon="3.43426">
        <ele>23.010856</ele>
        <time>2021-05-26T21:53:28.482Z</time>
      </trkpt>
      <trkpt lat="50.4889" lon="3.43412">
        <ele>22.747758</ele>
        <time>2021-05-26T21:53:31.286Z</time>
      </trkpt>
      <trkpt lat="50.48866" lon="3.43401">
        <ele>22.483421</ele>
        <time>2021-05-26T21:53:34.146Z</time>
      </trkpt>
      <trkpt lat="50.48835" lon="3.43392">
        <ele>22.154635</ele>
        <time>2021-05-26T21:53:37.698Z</time>
      </trkpt>
      <trkpt lat="50.48831" lon="3.43417">
        <ele>21.973954</ele>
        <time>2021-05-26T21:53:39.781Z</time>
      </trkpt>
      <trkpt lat="50.48777" lon="3.43508">
        <ele>21.213657</ele>
        <time>2021-05-26T21:53:50.126Z</time>
      </trkpt>
      <trkpt lat="50.48772" lon="3.4353">
        <ele>21.252843</ele>
        <time>2021-05-26T21:53:52.288Z</time>
      </trkpt>
      <trkpt lat="50.48774" lon="3.4355">
        <ele>21.288156</ele>
        <time>2021-05-26T21:53:54.668Z</time>
      </trkpt>
      <trkpt lat="50.48786" lon="3.43584">
        <ele>21.354897</ele>
        <time>2021-05-26T21:53:58.384Z</time>
      </trkpt>
      <trkpt lat="50.48793" lon="3.43602">
        <ele>21.391252</ele>
        <time>2021-05-26T21:54:00.952Z</time>
      </trkpt>
      <trkpt lat="50.488" lon="3.4362">
        <ele>21.42732</ele>
        <time>2021-05-26T21:54:03.067Z</time>
      </trkpt>
      <trkpt lat="50.48844" lon="3.43725">
        <ele>21.64357</ele>
        <time>2021-05-26T21:54:16.396Z</time>
      </trkpt>
      <trkpt lat="50.48851" lon="3.4374">
        <ele>21.674422</ele>
        <time>2021-05-26T21:54:18.580Z</time>
      </trkpt>
      <trkpt lat="50.48863" lon="3.43769">
        <ele>21.647908</ele>
        <time>2021-05-26T21:54:21.861Z</time>
      </trkpt>
      <trkpt lat="50.48882" lon="3.43799">
        <ele>21.597413</ele>
        <time>2021-05-26T21:54:26.208Z</time>
      </trkpt>
      <trkpt lat="50.48907" lon="3.43837">
        <ele>21.531841</ele>
        <time>2021-05-26T21:54:31.501Z</time>
      </trkpt>
      <trkpt lat="50.48918" lon="3.43854">
        <ele>21.501504</ele>
        <time>2021-05-26T21:54:33.795Z</time>
      </trkpt>
      <trkpt lat="50.48944" lon="3.43891">
        <ele>21.436888</ele>
        <time>2021-05-26T21:54:38.523Z</time>
      </trkpt>
      <trkpt lat="50.48953" lon="3.43902">
        <ele>21.414401</ele>
        <time>2021-05-26T21:54:40.197Z</time>
      </trkpt>
      <trkpt lat="50.48981" lon="3.43937">
        <ele>21.346719</ele>
        <time>2021-05-26T21:54:44.694Z</time>
      </trkpt>
      <trkpt lat="50.48998" lon="3.43966">
        <ele>21.113023</ele>
        <time>2021-05-26T21:54:47.771Z</time>
      </trkpt>
      <trkpt lat="50.49034" lon="3.44057">
        <ele>20.449735</ele>
        <time>2021-05-26T21:54:56.039Z</time>
      </trkpt>
      <trkpt lat="50.49043" lon="3.44079">
        <ele>20.287324</ele>
        <time>2021-05-26T21:54:58.046Z</time>
      </trkpt>
      <trkpt lat="50.49109" lon="3.44183">
        <ele>19.471388</ele>
        <time>2021-05-26T21:55:09.407Z</time>
      </trkpt>
      <trkpt lat="50.49138" lon="3.44236">
        <ele>19.227838</ele>
        <time>2021-05-26T21:55:15.076Z</time>
      </trkpt>
      <trkpt lat="50.49167" lon="3.44324">
        <ele>18.886959</ele>
        <time>2021-05-26T21:55:23.515Z</time>
      </trkpt>
      <trkpt lat="50.49219" lon="3.44434">
        <ele>18.557581</ele>
        <time>2021-05-26T21:55:35.948Z</time>
      </trkpt>
      <trkpt lat="50.49227" lon="3.44464">
        <ele>18.52552</ele>
        <time>2021-05-26T21:55:39.030Z</time>
      </trkpt>
      <trkpt lat="50.49237" lon="3.44565">
        <ele>18.427535</ele>
        <time>2021-05-26T21:55:48.453Z</time>
      </trkpt>
      <trkpt lat="50.49254" lon="3.44618">
        <ele>18.370203</ele>
        <time>2021-05-26T21:55:53.885Z</time>
      </trkpt>
      <trkpt lat="50.49286" lon="3.44688">
        <ele>18.256208</ele>
        <time>2021-05-26T21:56:01.468Z</time>
      </trkpt>
      <trkpt lat="50.49301" lon="3.44709">
        <ele>18.20765</ele>
        <time>2021-05-26T21:56:04.250Z</time>
      </trkpt>
      <trkpt lat="50.49336" lon="3.44729">
        <ele>18.117289</ele>
        <time>2021-05-26T21:56:09.281Z</time>
      </trkpt>
      <trkpt lat="50.4934" lon="3.44731">
        <ele>18.107718</ele>
        <time>2021-05-26T21:56:09.776Z</time>
      </trkpt>
      <trkpt lat="50.49353" lon="3.4475">
        <ele>18.065375</ele>
        <time>2021-05-26T21:56:12.139Z</time>
      </trkpt>
      <trkpt lat="50.49359" lon="3.44758">
        <ele>18.045273</ele>
        <time>2021-05-26T21:56:13.324Z</time>
      </trkpt>
      <trkpt lat="50.49366" lon="3.44748">
        <ele>18.024164</ele>
        <time>2021-05-26T21:56:14.528Z</time>
      </trkpt>
      <trkpt lat="50.49368" lon="3.44744">
        <ele>18.016243</ele>
        <time>2021-05-26T21:56:14.991Z</time>
      </trkpt>
      <trkpt lat="50.4942" lon="3.44663">
        <ele>17.961071</ele>
        <time>2021-05-26T21:56:26.029Z</time>
      </trkpt>
      <trkpt lat="50.49426" lon="3.44654">
        <ele>17.975845</ele>
        <time>2021-05-26T21:56:27.139Z</time>
      </trkpt>
      <trkpt lat="50.49477" lon="3.44573">
        <ele>18.104785</ele>
        <time>2021-05-26T21:56:38.875Z</time>
      </trkpt>
      <trkpt lat="50.49491" lon="3.44561">
        <ele>18.133117</ele>
        <time>2021-05-26T21:56:41.780Z</time>
      </trkpt>
      <trkpt lat="50.49544" lon="3.44521">
        <ele>18.206842</ele>
        <time>2021-05-26T21:56:50.865Z</time>
      </trkpt>
      <trkpt lat="50.49562" lon="3.44503">
        <ele>18.104918</ele>
        <time>2021-05-26T21:56:54.177Z</time>
      </trkpt>
      <trkpt lat="50.4959" lon="3.44475">
        <ele>17.949384</ele>
        <time>2021-05-26T21:56:58.845Z</time>
      </trkpt>
      <trkpt lat="50.49648" lon="3.44404">
        <ele>17.598363</ele>
        <time>2021-05-26T21:57:08.575Z</time>
      </trkpt>
      <trkpt lat="50.49663" lon="3.44393">
        <ele>17.520779</ele>
        <time>2021-05-26T21:57:10.607Z</time>
      </trkpt>
      <trkpt lat="50.49669" lon="3.44396">
        <ele>17.492339</ele>
        <time>2021-05-26T21:57:11.373Z</time>
      </trkpt>
      <trkpt lat="50.49672" lon="3.44401">
        <ele>17.470916</ele>
        <time>2021-05-26T21:57:11.941Z</time>
      </trkpt>
      <trkpt lat="50.49674" lon="3.44405">
        <ele>17.455715</ele>
        <time>2021-05-26T21:57:12.272Z</time>
      </trkpt>
      <trkpt lat="50.49687" lon="3.44433">
        <ele>17.327514</ele>
        <time>2021-05-26T21:57:15.031Z</time>
      </trkpt>
      <trkpt lat="50.49735" lon="3.44569">
        <ele>16.398896</ele>
        <time>2021-05-26T21:57:26.821Z</time>
      </trkpt>
      <trkpt lat="50.49754" lon="3.44626">
        <ele>16.01464</ele>
        <time>2021-05-26T21:57:31.881Z</time>
      </trkpt>
      <trkpt lat="50.49776" lon="3.4469">
        <ele>15.703434</ele>
        <time>2021-05-26T21:57:38.043Z</time>
      </trkpt>
      <trkpt lat="50.49798" lon="3.44759">
        <ele>15.76454</ele>
        <time>2021-05-26T21:57:44.818Z</time>
      </trkpt>
      <trkpt lat="50.49799" lon="3.44762">
        <ele>15.767072</ele>
        <time>2021-05-26T21:57:45.206Z</time>
      </trkpt>
      <trkpt lat="50.49844" lon="3.44889">
        <ele>15.881351</ele>
        <time>2021-05-26T21:57:59.656Z</time>
      </trkpt>
      <trkpt lat="50.49851" lon="3.44909">
        <ele>15.900025</ele>
        <time>2021-05-26T21:58:02.400Z</time>
      </trkpt>
      <trkpt lat="50.49864" lon="3.44939">
        <ele>16.015657</ele>
        <time>2021-05-26T21:58:06.563Z</time>
      </trkpt>
      <trkpt lat="50.49867" lon="3.44946">
        <ele>16.057359</ele>
        <time>2021-05-26T21:58:07.588Z</time>
      </trkpt>
      <trkpt lat="50.49874" lon="3.44964">
        <ele>16.163498</ele>
        <time>2021-05-26T21:58:10.264Z</time>
      </trkpt>
      <trkpt lat="50.49935" lon="3.45106">
        <ele>17.016191</ele>
        <time>2021-05-26T21:58:30.997Z</time>
      </trkpt>
      <trkpt lat="50.49943" lon="3.45125">
        <ele>17.133316</ele>
        <time>2021-05-26T21:58:33.544Z</time>
      </trkpt>
      <trkpt lat="50.49958" lon="3.45159">
        <ele>17.323986</ele>
        <time>2021-05-26T21:58:37.665Z</time>
      </trkpt>
      <trkpt lat="50.49974" lon="3.45177">
        <ele>17.334409</ele>
        <time>2021-05-26T21:58:40.819Z</time>
      </trkpt>
      <trkpt lat="50.49999" lon="3.45188">
        <ele>17.347452</ele>
        <time>2021-05-26T21:58:44.461Z</time>
      </trkpt>
      <trkpt lat="50.50005" lon="3.45189">
        <ele>17.350764</ele>
        <time>2021-05-26T21:58:45.496Z</time>
      </trkpt>
      <trkpt lat="50.50044" lon="3.45199">
        <ele>17.371376</ele>
        <time>2021-05-26T21:58:51.652Z</time>
      </trkpt>
      <trkpt lat="50.50051" lon="3.45202">
        <ele>17.375031</ele>
        <time>2021-05-26T21:58:52.706Z</time>
      </trkpt>
      <trkpt lat="50.50052" lon="3.45203">
        <ele>17.375895</ele>
        <time>2021-05-26T21:58:52.961Z</time>
      </trkpt>
      <trkpt lat="50.50084" lon="3.45223">
        <ele>17.393894</ele>
        <time>2021-05-26T21:58:58.220Z</time>
      </trkpt>
      <trkpt lat="50.50092" lon="3.45227">
        <ele>17.398303</ele>
        <time>2021-05-26T21:58:59.434Z</time>
      </trkpt>
      <trkpt lat="50.5013" lon="3.45249">
        <ele>17.423024</ele>
        <time>2021-05-26T21:59:04.921Z</time>
      </trkpt>
      <trkpt lat="50.50142" lon="3.45258">
        <ele>17.440267</ele>
        <time>2021-05-26T21:59:06.811Z</time>
      </trkpt>
      <trkpt lat="50.50193" lon="3.45294">
        <ele>17.513501</ele>
        <time>2021-05-26T21:59:14.365Z</time>
      </trkpt>
      <trkpt lat="50.50229" lon="3.45322">
        <ele>17.565017</ele>
        <time>2021-05-26T21:59:20.086Z</time>
      </trkpt>
      <trkpt lat="50.5031" lon="3.45386">
        <ele>17.788578</ele>
        <time>2021-05-26T21:59:36.548Z</time>
      </trkpt>
      <trkpt lat="50.50341" lon="3.45413">
        <ele>17.984655</ele>
        <time>2021-05-26T21:59:42.602Z</time>
      </trkpt>
      <trkpt lat="50.50355" lon="3.45425">
        <ele>18.073187</ele>
        <time>2021-05-26T21:59:45.218Z</time>
      </trkpt>
      <trkpt lat="50.50407" lon="3.45459">
        <ele>18.383126</ele>
        <time>2021-05-26T21:59:54.569Z</time>
      </trkpt>
      <trkpt lat="50.50416" lon="3.45464">
        <ele>18.438337</ele>
        <time>2021-05-26T21:59:56.254Z</time>
      </trkpt>
      <trkpt lat="50.50444" lon="3.45482">
        <ele>18.603003</ele>
        <time>2021-05-26T22:00:01.364Z</time>
      </trkpt>
      <trkpt lat="50.50447" lon="3.4549">
        <ele>18.636325</ele>
        <time>2021-05-26T22:00:02.366Z</time>
      </trkpt>
      <trkpt lat="50.50448" lon="3.45508">
        <ele>18.645756</ele>
        <time>2021-05-26T22:00:04.265Z</time>
      </trkpt>
      <trkpt lat="50.50443" lon="3.45552">
        <ele>18.645756</ele>
        <time>2021-05-26T22:00:09.142Z</time>
      </trkpt>
      <trkpt lat="50.50441" lon="3.45568">
        <ele>18.645756</ele>
        <time>2021-05-26T22:00:10.831Z</time>
      </trkpt>
      <trkpt lat="50.50441" lon="3.45573">
        <ele>18.645756</ele>
        <time>2021-05-26T22:00:11.365Z</time>
      </trkpt>
      <trkpt lat="50.5044" lon="3.45588">
        <ele>18.645756</ele>
        <time>2021-05-26T22:00:13.224Z</time>
      </trkpt>
      <trkpt lat="50.50437" lon="3.45631">
        <ele>18.645756</ele>
        <time>2021-05-26T22:00:17.741Z</time>
      </trkpt>
      <trkpt lat="50.50436" lon="3.45642">
        <ele>18.645756</ele>
        <time>2021-05-26T22:00:19.104Z</time>
      </trkpt>
      <trkpt lat="50.50436" lon="3.45662">
        <ele>18.645756</ele>
        <time>2021-05-26T22:00:21.151Z</time>
      </trkpt>
    </trkseg>
  </trk>
</gpx>